[[{"header":{"parameterUnit":"m.s-1","parameterCategory":1,"la1":31.0,"la2":29.5877,"lo1":-88.7671,"lo2":-86.6584,"dy":0.0162,"dx":0.0185,"nx":115,"ny":88,"refTime":"2024-07-19T00:00:00:Z","depth":0,"parameterNumber":2,"parameterNumberName":"U-component_of_WINDS"},"data":[0.0,0.0,0.0,0.0,0.0,0.0,0.0,0.0,0.0,0.0,0.0,0.0,0.0,0.0,0.0,0.0,0.0,0.0,0.0,0.0,0.0,0.0,0.0,0.0,0.0,0.0,0.0,0.0,0.0,0.0,0.0,0.0,0.0,0.0,0.0,0.0,0.0,0.0,0.0,0.0,0.0,0.0,0.0,0.0,0.0,0.0,0.0,0.0,0.0,0.0,0.0,0.0,0.0,0.0,0.0,0.0,0.0,0.0,0.0,0.0,0.0,0.0,0.0,0.0,0.0,0.0,0.0,0.0,0.0,0.0,0.0,0.0,0.0,0.0,0.0,0.0,0.0,0.0,0.0,0.0,0.0,0.0,0.0,0.0,0.0,0.0,0.0,0.0,0.0,0.0,0.0,0.0,0.0,0.0,0.0,0.0,0.0,0.0,0.0,0.0,0.0,0.0,0.0,0.0,0.0,0.0,0.0,0.0,0.0,0.0,0.0,0.0,0.0,0.0,0.0,0.0,0.0,0.0,0.0,0.0,0.0,0.0,0.0,0.0,0.0,0.0,0.0,0.0,0.0,0.0,0.0,0.0,0.0,0.0,0.0,0.0,0.0,0.0,0.0,0.0,0.0,0.0,0.0,0.0,0.0,0.0,0.0,0.0,0.0,0.0,0.0,0.0,0.0,0.0,0.0,0.0,0.0,0.0,0.0,0.0,0.0,0.0,0.0,0.0,0.0,0.0,0.0,0.0,0.0,0.0,0.0,0.0,0.0,0.0,0.0,0.0,0.0,0.0,0.0,0.0,0.0,0.0,0.0,0.0,0.0,0.0,0.0,0.0,0.0,0.0,0.0,0.0,0.0,0.0,0.0,0.0,0.0,0.0,0.0,0.0,0.0,0.0,0.0,0.0,0.0,0.0,0.0,0.0,0.0,0.0,0.0,0.0,0.0,0.0,0.0,0.0,0.0,0.0,0.0,0.0,0.0,0.0,0.0,0.0,0.0,0.0,0.0,0.0,0.0,0.0,0.0,0.0,0.0,0.0,0.0,0.0,0.0,0.0,0.0,0.0,0.0,0.0,0.0,0.0,0.0,0.0,0.0,0.0,0.0,0.0,0.0,0.0,0.0,0.0,0.0,0.0,0.0,0.0,0.0,0.0,0.0,0.0,0.0,0.0,0.0,0.0,0.0,0.0,0.0,0.0,0.0,0.0,0.0,0.0,0.0,0.0,0.0,0.0,0.0,0.0,0.0,0.0,0.0,0.0,0.0,0.0,0.0,0.0,0.0,0.0,0.0,0.0,0.0,0.0,0.0,0.0,0.0,0.0,0.0,0.0,0.0,0.0,0.0,0.0,0.0,0.0,0.0,0.0,0.0,0.0,0.0,0.0,0.0,0.0,0.0,0.0,0.0,0.0,0.0,0.0,0.0,0.0,0.0,0.0,0.0,0.0,0.0,0.0,0.0,0.0,0.0,0.0,0.0,0.0,0.0,0.0,0.0,0.0,0.0,0.0,0.0,0.0,0.0,0.0,0.0,0.0,0.0,0.0,0.0,0.0,0.0,0.0,0.0,0.0,0.0,0.0,0.0,0.0,0.0,0.0,0.0,0.0,0.0,0.0,0.0,0.0,0.0,0.0,0.0,0.0,0.0,0.0,0.0,0.0,0.0,0.0,0.0,0.0,0.0,0.0,0.0,0.0,0.0,0.0,0.0,0.0,0.0,0.0,0.0,0.0,0.0,0.0,0.0,0.0,0.0,0.0,0.0,0.0,0.0,0.0,0.0,0.0,0.0,0.0,0.0,0.0,0.0,0.0,0.0,0.0,0.0,0.0,0.0,0.0,0.0,0.0,0.0,0.0,0.0,0.0,0.0,0.0,0.0,0.0,0.0,0.0,0.0,0.0,0.0,0.0,0.0,0.0,0.0,0.0,0.0,0.0,0.0,0.0,0.0,0.0,0.0,0.0,0.0,0.0,0.0,0.0,0.0,0.0,0.0,0.0,0.0,0.0,0.0,0.0,0.0,0.0,0.0,0.0,0.0,0.0,0.0,0.0,0.0,0.0,0.0,0.0,0.0,0.0,0.0,0.0,0.0,0.0,0.0,0.0,0.0,0.0,0.0,0.0,0.0,0.0,0.0,0.0,0.0,0.0,0.0,0.0,0.0,0.0,0.0,0.0,0.0,0.0,0.0,0.0,0.0,0.0,0.0,0.0,0.0,0.0,0.0,0.0,0.0,0.0,0.0,0.0,0.0,0.0,0.0,0.0,0.0,0.0,0.0,0.0,0.0,0.0,0.0,0.0,0.0,0.0,0.0,0.0,0.0,0.0,0.0,0.0,0.0,0.0,0.0,0.0,0.0,0.0,0.0,0.0,0.0,0.0,0.0,0.0,0.0,0.0,0.0,0.0,0.0,0.0,0.0,0.0,0.0,0.0,0.0,0.0,0.0,0.0,0.0,0.0,0.0,0.0,0.0,0.0,0.0,0.0,0.0,0.0,0.0,0.0,0.0,0.0,0.0,0.0,0.0,0.0,0.0,0.0,0.0,0.0,0.0,0.0,0.0,0.0,0.0,0.0,0.0,0.0,0.0,0.0,0.0,0.0,0.0,0.0,0.0,0.0,0.0,0.0,0.0,0.0,0.0,0.0,0.0,0.0,0.0,0.0,0.0,0.0,0.0,0.0,0.0,0.0,0.0,0.0,0.0,0.0,0.0,0.0,0.0,0.0,0.0,0.0,0.0,0.0,0.0,0.0,0.0,0.0,0.0,0.0,0.0,0.0,0.0,0.0,0.0,0.0,0.0,0.0,0.0,0.0,0.0,0.0,0.0,0.0,0.0,0.0,0.0,0.0,0.0,0.0,0.0,0.0,0.0,0.0,0.0,0.0,0.0,0.0,0.0,0.0,0.0,0.0,0.0,0.0,0.0,0.0,0.0,0.0,0.0,0.0,0.0,0.0,0.0,0.0,0.0,0.0,0.0,0.0,0.0,0.0,0.0,0.0,0.0,0.0,0.0,0.0,0.0,0.0,0.0,0.0,0.0,0.0,0.0,0.0,0.0,0.0,0.0,0.0,0.0,0.0,0.0,0.0,0.0,0.0,0.0,0.0,0.0,0.0,0.0,0.0,0.0,0.0,0.0,0.0,0.0,0.0,0.0,0.0,0.0,0.0,0.0,0.0,0.0,0.0,0.0,0.0,0.0,0.0,0.0,0.0,0.0,0.0,0.0,0.0,0.0,0.0,0.0,0.0,0.0,0.0,0.0,0.0,0.0,0.0,0.0,0.0,0.0,0.0,0.0,0.0,0.0,0.0,0.0,0.0,0.0,0.0,0.0,0.0,0.0,0.0,0.0,0.0,0.0,0.0,0.0,0.0,0.0,0.0,0.0,0.0,0.0,0.0,0.0,0.0,0.0,0.0,0.0,0.0,0.0,0.0,0.0,0.0,0.0,0.0,0.0,0.0,0.0,0.0,0.0,0.0,0.0,0.0,0.0,0.0,0.0,0.0,0.0,0.0,0.0,0.0,0.0,0.0,0.0,0.0,0.0,0.0,0.0,0.0,0.0,0.0,0.0,0.0,0.0,0.0,0.0,0.0,0.0,0.0,0.0,0.0,0.0,0.0,0.0,0.0,0.0,0.0,0.0,0.0,0.0,0.0,0.0,0.0,0.0,0.0,0.0,0.0,0.0,0.0,0.0,0.0,0.0,0.0,0.0,0.0,0.0,0.0,0.0,0.0,0.0,0.0,0.0,0.0,0.0,0.0,0.0,0.0,0.0,0.0,0.0,0.0,0.0,0.0,0.0,0.0,0.0,0.0,0.0,0.0,0.0,0.0,0.0,0.0,0.0,0.0,0.0,0.0,0.0,0.0,0.0,0.0,0.0,0.0,0.0,0.0,0.0,0.0,0.0,0.0,0.0,0.0,0.0,0.0,0.0,0.0,0.0,0.0,0.0,0.0,0.0,0.0,0.0,0.0,0.0,0.0,0.0,0.0,0.0,0.0,0.0,0.0,0.0,0.0,0.0,0.0,0.0,0.0,0.0,0.0,0.0,0.0,0.0,0.0,0.0,0.0,0.0,0.0,0.0,0.0,0.0,0.0,0.0,0.0,0.0,0.0,0.0,0.0,0.0,0.0,0.0,0.0,0.0,0.0,0.0,0.0,0.0,0.0,0.0,0.0,0.0,0.0,0.0,0.0,0.0,0.0,0.0,0.0,0.0,0.0,0.0,0.0,0.0,0.0,0.0,0.0,0.0,0.0,0.0,0.0,0.0,0.0,0.0,0.0,-2.7736,0.0,0.0,0.0,0.0,0.0,0.0,0.0,0.0,0.0,0.0,0.0,0.0,0.0,0.0,0.0,0.0,0.0,0.0,0.0,0.0,0.0,0.0,0.0,0.0,0.0,0.0,0.0,0.0,0.0,0.0,0.0,0.0,0.0,0.0,0.0,0.0,0.0,0.0,0.0,0.0,0.0,0.0,0.0,0.0,0.0,0.0,0.0,0.0,0.0,0.0,0.0,0.0,0.0,0.0,0.0,0.0,0.0,0.0,0.0,0.0,0.0,0.0,0.0,0.0,0.0,0.0,0.0,0.0,0.0,0.0,0.0,0.0,0.0,0.0,0.0,0.0,0.0,0.0,0.0,0.0,0.0,0.0,0.0,0.0,0.0,0.0,0.0,0.0,0.0,0.0,0.0,0.0,0.0,0.0,0.0,0.0,0.0,0.0,0.0,0.0,0.0,0.0,0.0,0.0,0.0,0.0,0.0,0.0,0.0,0.0,-3.0404,-3.0385,-3.0,-2.941,-2.8563,0.0,0.0,0.0,0.0,0.0,0.0,0.0,0.0,0.0,0.0,0.0,0.0,0.0,0.0,0.0,0.0,0.0,0.0,0.0,0.0,0.0,0.0,0.0,0.0,0.0,0.0,0.0,0.0,0.0,0.0,0.0,0.0,0.0,0.0,0.0,0.0,0.0,0.0,0.0,0.0,0.0,0.0,0.0,0.0,0.0,0.0,0.0,0.0,0.0,0.0,0.0,0.0,0.0,0.0,0.0,0.0,0.0,0.0,0.0,0.0,0.0,0.0,0.0,0.0,0.0,0.0,0.0,0.0,0.0,0.0,0.0,0.0,0.0,0.0,0.0,0.0,0.0,0.0,0.0,0.0,0.0,0.0,0.0,0.0,0.0,0.0,0.0,0.0,0.0,0.0,0.0,0.0,0.0,0.0,0.0,0.0,0.0,0.0,0.0,0.0,0.0,0.0,0.0,0.0,0.0,0.0,0.0,0.0,0.0,0.0,0.0,0.0,-3.0692,-3.009,-2.8835,0.0,0.0,0.0,0.0,0.0,0.0,0.0,0.0,0.0,0.0,0.0,0.0,0.0,0.0,0.0,0.0,0.0,0.0,0.0,0.0,0.0,0.0,0.0,0.0,0.0,0.0,0.0,0.0,0.0,0.0,0.0,0.0,0.0,0.0,0.0,0.0,0.0,0.0,0.0,0.0,0.0,0.0,0.0,0.0,0.0,0.0,0.0,0.0,0.0,0.0,0.0,0.0,0.0,0.0,0.0,0.0,0.0,0.0,0.0,0.0,0.0,0.0,0.0,0.0,0.0,0.0,0.0,0.0,0.0,0.0,0.0,0.0,0.0,0.0,0.0,0.0,0.0,0.0,0.0,0.0,0.0,0.0,0.0,0.0,0.0,0.0,0.0,0.0,0.0,0.0,0.0,0.0,0.0,0.0,0.0,0.0,0.0,0.0,0.0,0.0,0.0,0.0,0.0,0.0,0.0,0.0,0.0,0.0,0.0,0.0,-3.2333,-3.1602,-3.1577,0.0,-2.8086,0.0,0.0,0.0,0.0,0.0,0.0,0.0,0.0,0.0,0.0,0.0,0.0,0.0,0.0,0.0,0.0,0.0,0.0,0.0,0.0,0.0,0.0,0.0,0.0,0.0,0.0,0.0,0.0,0.0,0.0,0.0,0.0,0.0,0.0,0.0,0.0,0.0,0.0,0.0,0.0,0.0,0.0,0.0,0.0,0.0,0.0,0.0,0.0,0.0,0.0,0.0,0.0,0.0,0.0,0.0,0.0,0.0,0.0,0.0,0.0,0.0,0.0,0.0,0.0,0.0,0.0,0.0,0.0,0.0,0.0,0.0,0.0,0.0,0.0,0.0,0.0,0.0,0.0,0.0,0.0,0.0,0.0,0.0,0.0,0.0,0.0,0.0,0.0,0.0,0.0,0.0,0.0,0.0,0.0,0.0,0.0,0.0,0.0,0.0,0.0,0.0,0.0,0.0,0.0,0.0,0.0,0.0,0.0,0.0,0.0,-3.2737,-3.241,-3.1911,-3.0445,0.0,0.0,0.0,0.0,0.0,0.0,0.0,0.0,0.0,0.0,0.0,0.0,0.0,0.0,0.0,0.0,0.0,0.0,0.0,0.0,0.0,0.0,0.0,0.0,0.0,0.0,0.0,0.0,0.0,0.0,0.0,0.0,0.0,0.0,0.0,0.0,0.0,0.0,0.0,0.0,0.0,0.0,0.0,0.0,0.0,0.0,0.0,0.0,0.0,0.0,0.0,0.0,0.0,0.0,0.0,0.0,0.0,0.0,0.0,0.0,0.0,0.0,0.0,0.0,0.0,0.0,0.0,0.0,0.0,0.0,0.0,0.0,0.0,0.0,0.0,0.0,0.0,0.0,0.0,0.0,0.0,0.0,0.0,0.0,0.0,0.0,0.0,0.0,0.0,0.0,0.0,0.0,0.0,0.0,0.0,0.0,0.0,0.0,0.0,0.0,0.0,0.0,0.0,0.0,0.0,0.0,0.0,0.0,0.0,0.0,-3.3064,-3.3391,-3.2891,-3.2045,-3.0401,-2.7896,0.0,0.0,0.0,0.0,0.0,0.0,0.0,0.0,0.0,0.0,0.0,0.0,0.0,0.0,0.0,0.0,0.0,0.0,0.0,0.0,0.0,0.0,0.0,0.0,0.0,0.0,0.0,0.0,0.0,0.0,0.0,0.0,0.0,0.0,0.0,0.0,0.0,0.0,0.0,0.0,0.0,0.0,0.0,0.0,0.0,0.0,0.0,0.0,0.0,0.0,0.0,0.0,0.0,0.0,0.0,0.0,0.0,0.0,0.0,0.0,0.0,0.0,0.0,0.0,0.0,0.0,0.0,0.0,0.0,0.0,0.0,0.0,0.0,0.0,0.0,0.0,0.0,0.0,0.0,0.0,0.0,0.0,0.0,0.0,0.0,0.0,0.0,0.0,0.0,0.0,0.0,0.0,0.0,0.0,0.0,0.0,0.0,0.0,0.0,0.0,0.0,0.0,0.0,0.0,0.0,0.0,0.0,0.0,-3.2891,-3.4462,-3.4577,-3.2949,-3.2064,-3.0414,0.0,0.0,0.0,0.0,0.0,0.0,0.0,0.0,0.0,0.0,0.0,0.0,0.0,0.0,0.0,0.0,0.0,0.0,0.0,0.0,0.0,0.0,0.0,0.0,0.0,0.0,0.0,0.0,0.0,0.0,0.0,0.0,0.0,0.0,0.0,0.0,0.0,0.0,0.0,0.0,0.0,0.0,0.0,0.0,0.0,0.0,0.0,0.0,0.0,0.0,0.0,0.0,0.0,0.0,0.0,0.0,0.0,0.0,0.0,0.0,0.0,0.0,0.0,0.0,0.0,0.0,0.0,0.0,0.0,0.0,0.0,0.0,0.0,0.0,0.0,0.0,0.0,0.0,0.0,0.0,0.0,0.0,0.0,0.0,0.0,0.0,0.0,0.0,0.0,0.0,0.0,0.0,0.0,0.0,0.0,0.0,0.0,0.0,0.0,0.0,0.0,0.0,0.0,0.0,0.0,0.0,0.0,0.0,0.0,-3.291,-3.4064,-3.409,-3.2936,-3.2064,-3.0388,0.0,0.0,0.0,0.0,0.0,0.0,0.0,0.0,0.0,0.0,0.0,0.0,0.0,0.0,0.0,0.0,0.0,0.0,0.0,0.0,0.0,0.0,0.0,0.0,0.0,0.0,0.0,0.0,0.0,0.0,0.0,0.0,0.0,0.0,0.0,0.0,0.0,0.0,0.0,0.0,0.0,0.0,0.0,0.0,0.0,0.0,0.0,0.0,0.0,0.0,0.0,0.0,0.0,0.0,0.0,0.0,0.0,0.0,0.0,0.0,0.0,0.0,0.0,0.0,0.0,0.0,0.0,0.0,0.0,0.0,0.0,0.0,0.0,0.0,0.0,0.0,0.0,0.0,0.0,0.0,0.0,0.0,0.0,0.0,0.0,0.0,0.0,0.0,0.0,0.0,0.0,0.0,0.0,0.0,0.0,0.0,0.0,0.0,0.0,0.0,0.0,0.0,0.0,0.0,0.0,0.0,0.0,0.0,0.0,-3.284,0.0,-3.3333,0.0,-3.1871,-3.0369,0.0,0.0,0.0,0.0,0.0,0.0,0.0,0.0,0.0,0.0,0.0,0.0,0.0,0.0,0.0,0.0,0.0,0.0,0.0,0.0,0.0,0.0,0.0,0.0,0.0,0.0,0.0,0.0,0.0,0.0,0.0,0.0,0.0,0.0,0.0,0.0,0.0,0.0,0.0,0.0,0.0,0.0,0.0,0.0,0.0,0.0,0.0,0.0,0.0,0.0,0.0,0.0,0.0,0.0,0.0,0.0,0.0,0.0,0.0,0.0,0.0,0.0,0.0,0.0,0.0,0.0,0.0,0.0,0.0,0.0,0.0,0.0,0.0,0.0,0.0,0.0,0.0,0.0,0.0,0.0,0.0,0.0,0.0,0.0,0.0,0.0,0.0,0.0,0.0,0.0,0.0,0.0,0.0,0.0,0.0,0.0,0.0,0.0,0.0,0.0,0.0,0.0,0.0,0.0,0.0,0.0,0.0,0.0,-3.1888,-3.2741,-3.2779,-3.2434,-3.1641,-3.1511,-3.0278,0.0,0.0,0.0,0.0,0.0,0.0,0.0,0.0,0.0,0.0,0.0,0.0,0.0,0.0,0.0,0.0,0.0,0.0,0.0,0.0,0.0,0.0,0.0,0.0,0.0,0.0,0.0,0.0,0.0,0.0,0.0,0.0,0.0,0.0,0.0,0.0,0.0,0.0,0.0,0.0,0.0,0.0,0.0,0.0,0.0,0.0,0.0,0.0,0.0,0.0,0.0,0.0,0.0,0.0,0.0,0.0,0.0,0.0,0.0,0.0,0.0,0.0,0.0,0.0,0.0,0.0,0.0,0.0,0.0,0.0,0.0,0.0,0.0,0.0,0.0,0.0,0.0,0.0,0.0,0.0,0.0,0.0,0.0,0.0,0.0,0.0,0.0,0.0,0.0,0.0,0.0,0.0,0.0,0.0,0.0,0.0,0.0,0.0,0.0,0.0,0.0,0.0,0.0,0.0,0.0,0.0,0.0,0.0,0.0,-3.1929,-3.1967,-3.1826,-3.1524,-3.0936,-2.9958,0.0,0.0,0.0,0.0,0.0,0.0,0.0,0.0,0.0,0.0,0.0,0.0,0.0,0.0,0.0,0.0,0.0,0.0,0.0,0.0,0.0,0.0,0.0,0.0,0.0,0.0,0.0,0.0,0.0,0.0,0.0,0.0,0.0,0.0,0.0,0.0,0.0,0.0,0.0,0.0,0.0,0.0,0.0,0.0,0.0,0.0,0.0,0.0,0.0,0.0,0.0,0.0,0.0,0.0,0.0,0.0,0.0,0.0,0.0,0.0,0.0,0.0,0.0,0.0,0.0,0.0,0.0,0.0,0.0,0.0,0.0,0.0,0.0,0.0,0.0,0.0,0.0,0.0,0.0,0.0,0.0,0.0,0.0,0.0,0.0,0.0,0.0,0.0,0.0,0.0,0.0,0.0,0.0,0.0,0.0,0.0,0.0,0.0,0.0,0.0,0.0,0.0,0.0,0.0,0.0,0.0,0.0,0.0,0.0,-3.1045,-3.1064,-3.107,-3.1004,-3.0487,-2.9798,-2.8936,0.0,0.0,0.0,0.0,0.0,0.0,0.0,0.0,0.0,0.0,0.0,0.0,0.0,0.0,0.0,0.0,0.0,0.0,0.0,0.0,0.0,0.0,0.0,0.0,0.0,0.0,0.0,0.0,0.0,0.0,0.0,0.0,0.0,0.0,0.0,0.0,0.0,0.0,0.0,0.0,0.0,0.0,0.0,0.0,0.0,0.0,0.0,0.0,0.0,0.0,0.0,0.0,0.0,0.0,0.0,0.0,0.0,0.0,0.0,0.0,0.0,0.0,0.0,0.0,0.0,0.0,0.0,0.0,0.0,0.0,0.0,0.0,0.0,0.0,0.0,0.0,0.0,0.0,0.0,0.0,0.0,0.0,0.0,0.0,0.0,0.0,0.0,0.0,0.0,0.0,0.0,0.0,0.0,0.0,0.0,0.0,0.0,0.0,0.0,0.0,0.0,0.0,0.0,0.0,0.0,0.0,0.0,0.0,-3.028,-3.0223,-3.023,-3.0223,-3.0204,-2.9822,0.0,0.0,0.0,0.0,0.0,0.0,0.0,0.0,0.0,0.0,0.0,0.0,0.0,0.0,0.0,0.0,0.0,0.0,0.0,0.0,0.0,0.0,0.0,0.0,0.0,0.0,0.0,0.0,0.0,0.0,0.0,0.0,0.0,0.0,0.0,0.0,0.0,0.0,0.0,0.0,0.0,0.0,0.0,0.0,0.0,0.0,0.0,0.0,0.0,0.0,0.0,0.0,0.0,0.0,0.0,0.0,0.0,0.0,0.0,0.0,0.0,0.0,0.0,0.0,0.0,0.0,0.0,0.0,0.0,0.0,0.0,0.0,0.0,0.0,0.0,0.0,0.0,0.0,0.0,0.0,0.0,0.0,0.0,0.0,0.0,0.0,0.0,0.0,0.0,0.0,0.0,0.0,0.0,0.0,0.0,0.0,0.0,0.0,0.0,0.0,0.0,0.0,0.0,0.0,0.0,0.0,0.0,0.0,0.0,-3.1077,-3.0515,-3.0204,-3.0204,-3.0204,-3.0115,0.0,0.0,0.0,0.0,0.0,0.0,0.0,0.0,0.0,0.0,0.0,0.0,0.0,0.0,0.0,0.0,0.0,0.0,0.0,0.0,0.0,0.0,0.0,0.0,0.0,0.0,0.0,0.0,0.0,0.0,0.0,0.0,0.0,0.0,0.0,0.0,0.0,0.0,0.0,0.0,0.0,0.0,0.0,0.0,0.0,0.0,0.0,0.0,0.0,0.0,0.0,0.0,0.0,0.0,0.0,0.0,0.0,0.0,0.0,0.0,0.0,0.0,0.0,0.0,0.0,0.0,0.0,0.0,0.0,0.0,0.0,0.0,0.0,0.0,0.0,0.0,0.0,0.0,0.0,0.0,0.0,0.0,0.0,0.0,0.0,0.0,0.0,0.0,0.0,0.0,0.0,0.0,0.0,0.0,0.0,0.0,0.0,0.0,0.0,0.0,0.0,0.0,0.0,0.0,0.0,0.0,0.0,0.0,-3.1729,-3.1367,-3.0902,-3.0497,-3.0161,-3.0157,-3.0145,0.0,0.0,0.0,0.0,0.0,0.0,0.0,0.0,0.0,0.0,0.0,0.0,0.0,0.0,0.0,0.0,0.0,0.0,0.0,0.0,0.0,0.0,0.0,0.0,0.0,0.0,0.0,0.0,0.0,0.0,0.0,0.0,0.0,0.0,0.0,0.0,0.0,0.0,0.0,0.0,0.0,0.0,0.0,0.0,0.0,0.0,0.0,0.0,0.0,0.0,0.0,0.0,0.0,0.0,0.0,0.0,0.0,0.0,0.0,0.0,0.0,0.0,0.0,0.0,0.0,0.0,0.0,0.0,0.0,0.0,0.0,0.0,0.0,0.0,0.0,0.0,0.0,0.0,0.0,0.0,0.0,0.0,0.0,0.0,0.0,0.0,0.0,0.0,0.0,0.0,0.0,0.0,0.0,0.0,0.0,0.0,0.0,0.0,0.0,0.0,0.0,0.0,0.0,0.0,0.0,0.0,0.0,0.0,-3.2308,-3.1453,-3.1347,-3.0917,-3.0133,-3.0087,-3.0101,0.0,0.0,0.0,0.0,0.0,0.0,0.0,0.0,0.0,0.0,0.0,0.0,0.0,0.0,0.0,0.0,0.0,0.0,0.0,0.0,0.0,0.0,0.0,0.0,0.0,0.0,0.0,0.0,0.0,0.0,0.0,0.0,0.0,0.0,0.0,0.0,0.0,0.0,0.0,0.0,0.0,0.0,0.0,0.0,0.0,0.0,0.0,0.0,0.0,0.0,0.0,0.0,0.0,0.0,0.0,0.0,0.0,0.0,0.0,0.0,0.0,0.0,0.0,0.0,0.0,0.0,0.0,0.0,0.0,0.0,0.0,0.0,0.0,0.0,0.0,0.0,0.0,0.0,0.0,0.0,0.0,0.0,0.0,0.0,0.0,0.0,0.0,0.0,0.0,0.0,0.0,0.0,0.0,0.0,0.0,0.0,0.0,0.0,0.0,0.0,0.0,0.0,0.0,0.0,0.0,0.0,0.0,0.0,-3.313,-3.2264,-3.1616,-3.0917,-3.0114,-3.0083,-3.0083,0.0,0.0,0.0,0.0,0.0,0.0,0.0,0.0,0.0,0.0,0.0,0.0,0.0,0.0,0.0,0.0,0.0,0.0,0.0,0.0,0.0,0.0,0.0,0.0,0.0,0.0,0.0,0.0,0.0,0.0,0.0,0.0,0.0,0.0,0.0,0.0,0.0,0.0,0.0,0.0,0.0,0.0,0.0,0.0,0.0,0.0,0.0,0.0,-3.6228,0.0,0.0,0.0,0.0,0.0,0.0,0.0,0.0,0.0,0.0,0.0,0.0,0.0,0.0,0.0,0.0,0.0,0.0,0.0,0.0,0.0,0.0,0.0,0.0,0.0,0.0,0.0,0.0,0.0,0.0,0.0,0.0,0.0,0.0,0.0,0.0,0.0,0.0,0.0,0.0,0.0,0.0,0.0,0.0,0.0,0.0,0.0,0.0,0.0,0.0,0.0,0.0,0.0,0.0,0.0,0.0,0.0,0.0,0.0,-3.3342,-3.246,-3.1661,-3.0861,-3.0071,-2.9988,-3.0022,0.0,0.0,0.0,0.0,0.0,0.0,0.0,0.0,0.0,0.0,0.0,0.0,0.0,0.0,0.0,0.0,0.0,0.0,0.0,0.0,0.0,0.0,0.0,0.0,0.0,0.0,0.0,0.0,0.0,0.0,0.0,0.0,0.0,0.0,0.0,0.0,0.0,0.0,0.0,0.0,0.0,0.0,0.0,0.0,0.0,0.0,0.0,0.0,0.0,0.0,0.0,0.0,0.0,0.0,0.0,0.0,0.0,0.0,0.0,0.0,0.0,0.0,0.0,0.0,0.0,0.0,0.0,0.0,0.0,0.0,0.0,0.0,0.0,0.0,0.0,0.0,0.0,0.0,0.0,0.0,0.0,0.0,0.0,0.0,0.0,0.0,0.0,0.0,0.0,0.0,0.0,0.0,0.0,0.0,0.0,0.0,0.0,0.0,0.0,0.0,0.0,0.0,0.0,0.0,0.0,0.0,0.0,-3.307,-3.3089,-3.2255,-3.1545,-3.0787,-2.9934,-2.9916,-2.9932,-2.9972,0.0,0.0,0.0,0.0,0.0,0.0,0.0,0.0,0.0,0.0,0.0,0.0,0.0,0.0,0.0,0.0,0.0,0.0,0.0,0.0,0.0,0.0,0.0,0.0,0.0,0.0,0.0,0.0,0.0,0.0,0.0,0.0,0.0,0.0,0.0,0.0,0.0,0.0,-3.0143,-3.2146,0.0,0.0,0.0,0.0,0.0,0.0,0.0,0.0,-3.8786,0.0,0.0,0.0,0.0,0.0,0.0,0.0,0.0,0.0,0.0,0.0,0.0,0.0,0.0,0.0,0.0,0.0,0.0,0.0,0.0,0.0,0.0,0.0,0.0,0.0,0.0,0.0,0.0,0.0,0.0,0.0,0.0,0.0,0.0,0.0,0.0,0.0,0.0,0.0,0.0,0.0,0.0,0.0,0.0,0.0,0.0,0.0,0.0,0.0,0.0,0.0,0.0,0.0,0.0,0.0,0.0,-3.1421,-3.2208,-3.2208,-3.1412,-3.1288,-3.0787,-2.9945,-2.9916,-2.9897,-2.9905,0.0,0.0,0.0,0.0,0.0,0.0,0.0,0.0,0.0,0.0,0.0,0.0,0.0,0.0,0.0,0.0,0.0,0.0,0.0,0.0,0.0,0.0,0.0,0.0,0.0,0.0,0.0,0.0,0.0,0.0,0.0,0.0,0.0,0.0,0.0,0.0,0.0,0.0,0.0,-3.3761,-3.5077,0.0,0.0,0.0,0.0,0.0,0.0,0.0,0.0,-3.9523,0.0,0.0,0.0,0.0,0.0,0.0,0.0,0.0,0.0,0.0,0.0,0.0,0.0,0.0,0.0,0.0,0.0,0.0,0.0,0.0,0.0,0.0,0.0,0.0,0.0,0.0,0.0,0.0,0.0,0.0,0.0,0.0,0.0,0.0,0.0,0.0,0.0,0.0,0.0,0.0,0.0,0.0,0.0,0.0,0.0,0.0,0.0,0.0,0.0,0.0,0.0,0.0,0.0,0.0,0.0,-3.1178,-3.1538,-3.1548,-3.1143,-3.0727,-3.0284,-2.9868,-2.9849,-2.9849,0.0,0.0,0.0,0.0,0.0,0.0,0.0,0.0,0.0,0.0,0.0,0.0,0.0,0.0,0.0,0.0,0.0,0.0,0.0,0.0,0.0,0.0,0.0,0.0,0.0,0.0,0.0,0.0,0.0,0.0,0.0,0.0,0.0,0.0,0.0,0.0,0.0,0.0,0.0,0.0,-3.4814,-3.5838,-3.7126,0.0,0.0,0.0,0.0,0.0,0.0,-4.046,-4.0475,0.0,0.0,0.0,0.0,0.0,0.0,0.0,0.0,0.0,0.0,0.0,0.0,0.0,0.0,0.0,0.0,0.0,0.0,0.0,0.0,0.0,0.0,0.0,0.0,0.0,0.0,0.0,0.0,0.0,0.0,0.0,0.0,0.0,0.0,0.0,0.0,0.0,0.0,0.0,0.0,0.0,0.0,0.0,0.0,0.0,0.0,0.0,0.0,0.0,0.0,0.0,0.0,0.0,0.0,0.0,-3.0851,-3.0832,-3.0833,-3.0817,-3.0166,-2.9789,-2.9789,-2.9789,-2.9789,0.0,0.0,0.0,0.0,0.0,0.0,0.0,0.0,0.0,0.0,0.0,0.0,0.0,0.0,0.0,0.0,0.0,0.0,0.0,0.0,0.0,0.0,0.0,0.0,0.0,0.0,0.0,0.0,0.0,0.0,0.0,0.0,0.0,0.0,0.0,0.0,0.0,0.0,0.0,0.0,0.0,-3.6581,-3.7438,-3.8314,0.0,0.0,0.0,0.0,-4.1012,-4.1101,0.0,0.0,0.0,0.0,0.0,0.0,0.0,0.0,0.0,0.0,0.0,0.0,0.0,0.0,0.0,0.0,0.0,0.0,0.0,0.0,0.0,0.0,0.0,0.0,0.0,0.0,0.0,0.0,0.0,0.0,0.0,0.0,0.0,0.0,0.0,0.0,0.0,0.0,0.0,0.0,0.0,0.0,0.0,0.0,0.0,0.0,0.0,0.0,0.0,0.0,0.0,0.0,0.0,0.0,0.0,0.0,-2.9949,-2.9967,-2.9959,-2.994,-2.9856,-2.9789,-2.9789,-2.9789,-2.9789,0.0,0.0,0.0,0.0,0.0,0.0,0.0,0.0,0.0,0.0,0.0,0.0,0.0,0.0,0.0,0.0,0.0,0.0,0.0,0.0,0.0,0.0,0.0,0.0,0.0,0.0,0.0,0.0,0.0,0.0,0.0,0.0,0.0,0.0,0.0,0.0,0.0,0.0,0.0,0.0,0.0,-3.746,-3.8338,-3.9192,-4.0042,0.0,0.0,-4.0973,-4.107,-4.1101,0.0,0.0,0.0,0.0,0.0,0.0,0.0,0.0,0.0,0.0,0.0,0.0,0.0,0.0,0.0,0.0,0.0,0.0,0.0,0.0,0.0,0.0,0.0,0.0,0.0,0.0,0.0,0.0,0.0,0.0,0.0,0.0,0.0,0.0,0.0,0.0,0.0,0.0,0.0,0.0,0.0,0.0,0.0,0.0,0.0,0.0,0.0,0.0,0.0,0.0,0.0,0.0,0.0,0.0,0.0,-2.979,-2.9735,-2.9754,-2.9755,-2.9728,-2.9747,-2.9728,-2.9766,-2.9747,-2.9747,0.0,0.0,0.0,0.0,0.0,0.0,0.0,0.0,0.0,0.0,0.0,0.0,0.0,0.0,0.0,0.0,0.0,0.0,0.0,0.0,0.0,0.0,0.0,0.0,0.0,0.0,0.0,0.0,0.0,0.0,0.0,0.0,0.0,0.0,0.0,0.0,0.0,0.0,0.0,0.0,0.0,0.0,-3.8493,-3.9346,0.0,0.0,0.0,-4.0522,-4.1031,0.0,0.0,0.0,0.0,0.0,0.0,0.0,0.0,0.0,0.0,0.0,0.0,0.0,0.0,0.0,0.0,0.0,0.0,0.0,0.0,0.0,0.0,0.0,0.0,0.0,0.0,0.0,0.0,0.0,0.0,0.0,0.0,0.0,0.0,0.0,0.0,0.0,0.0,0.0,0.0,0.0,0.0,0.0,0.0,0.0,0.0,0.0,0.0,0.0,0.0,0.0,0.0,0.0,0.0,0.0,0.0,0.0,-2.969,-2.969,-2.9691,-2.9692,-2.9701,-2.9701,-2.9701,-2.9701,0.0,0.0,0.0,0.0,0.0,0.0,0.0,0.0,0.0,0.0,0.0,0.0,0.0,0.0,0.0,0.0,0.0,0.0,0.0,0.0,0.0,0.0,0.0,0.0,0.0,0.0,0.0,-2.5665,0.0,0.0,0.0,0.0,0.0,0.0,0.0,0.0,0.0,0.0,0.0,0.0,0.0,0.0,-3.7538,-3.8178,-3.9188,-4.01,0.0,0.0,-4.0346,-4.1012,-4.0565,-4.0352,0.0,0.0,0.0,0.0,0.0,0.0,0.0,0.0,0.0,0.0,0.0,0.0,0.0,0.0,0.0,0.0,0.0,0.0,0.0,0.0,0.0,0.0,0.0,0.0,0.0,0.0,0.0,0.0,0.0,0.0,0.0,0.0,0.0,0.0,0.0,0.0,0.0,0.0,0.0,0.0,0.0,0.0,0.0,0.0,0.0,0.0,0.0,0.0,0.0,0.0,0.0,0.0,0.0,0.0,-2.9692,-2.9692,-2.9692,-2.9692,-2.9701,-2.9701,-2.9701,-2.9701,-2.9701,-2.9701,0.0,0.0,0.0,0.0,0.0,0.0,0.0,0.0,0.0,0.0,0.0,0.0,0.0,0.0,0.0,0.0,0.0,0.0,0.0,0.0,0.0,0.0,0.0,0.0,0.0,0.0,0.0,0.0,0.0,0.0,0.0,0.0,0.0,0.0,0.0,0.0,0.0,0.0,0.0,0.0,0.0,-3.7321,-3.7377,-3.8773,-3.9819,0.0,-4.0522,-4.1031,-4.109,-4.1033,-4.1035,-4.1074,0.0,0.0,0.0,0.0,0.0,0.0,0.0,0.0,0.0,0.0,0.0,0.0,0.0,0.0,0.0,0.0,0.0,0.0,0.0,0.0,0.0,0.0,0.0,0.0,0.0,0.0,0.0,0.0,0.0,0.0,0.0,0.0,0.0,0.0,0.0,0.0,0.0,0.0,0.0,0.0,0.0,0.0,0.0,0.0,0.0,0.0,0.0,0.0,0.0,0.0,0.0,0.0,0.0,-2.9701,-2.9701,-2.9701,-2.9701,-2.9701,-2.9701,-2.9701,-2.9701,-2.9701,-2.9701,0.0,0.0,0.0,0.0,0.0,0.0,0.0,0.0,0.0,0.0,0.0,0.0,0.0,0.0,0.0,0.0,0.0,0.0,0.0,0.0,0.0,0.0,0.0,0.0,0.0,0.0,0.0,0.0,-2.932,-2.9936,-3.1018,0.0,0.0,0.0,0.0,0.0,0.0,0.0,0.0,0.0,0.0,-3.6694,-3.7236,-3.8304,0.0,0.0,-4.0073,-4.0481,-4.1023,-4.0658,-4.0486,-4.1005,-4.1493,0.0,0.0,0.0,0.0,0.0,0.0,0.0,0.0,0.0,0.0,0.0,0.0,0.0,0.0,0.0,0.0,0.0,0.0,0.0,0.0,0.0,0.0,0.0,0.0,0.0,0.0,0.0,0.0,0.0,0.0,0.0,0.0,0.0,0.0,0.0,0.0,0.0,0.0,0.0,0.0,0.0,0.0,0.0,0.0,0.0,0.0,0.0,0.0,0.0,0.0,0.0,0.0,-2.9701,-2.9701,-2.9664,-2.9683,-2.9673,-2.9655,-2.9645,-2.9636,-2.9645,-2.9645,0.0,0.0,0.0,0.0,0.0,0.0,0.0,0.0,0.0,0.0,0.0,0.0,0.0,0.0,0.0,0.0,0.0,0.0,0.0,0.0,0.0,0.0,0.0,0.0,0.0,0.0,0.0,0.0,-3.0115,-3.0947,-3.2691,0.0,0.0,0.0,0.0,0.0,0.0,0.0,0.0,0.0,0.0,-3.6612,-3.7214,-3.8026,-3.886,-3.9678,-4.0026,-4.0393,-4.1012,-4.0591,-4.0482,-4.1351,0.0,0.0,0.0,0.0,0.0,0.0,0.0,0.0,0.0,0.0,0.0,0.0,0.0,0.0,0.0,0.0,0.0,0.0,0.0,0.0,0.0,0.0,0.0,0.0,0.0,0.0,0.0,-2.7914,0.0,0.0,-2.8945,0.0,0.0,0.0,0.0,0.0,0.0,0.0,0.0,0.0,0.0,0.0,0.0,0.0,0.0,0.0,0.0,0.0,0.0,0.0,0.0,0.0,0.0,-2.9701,-2.9701,-2.9626,-2.9607,-2.9598,-2.9522,-2.9521,-2.9502,-2.9502,-2.9521,-2.9502,0.0,0.0,0.0,0.0,0.0,0.0,0.0,0.0,0.0,0.0,0.0,0.0,0.0,0.0,0.0,0.0,0.0,0.0,0.0,0.0,0.0,0.0,0.0,0.0,0.0,0.0,-3.07,-3.1533,-3.2732,0.0,0.0,0.0,0.0,0.0,0.0,0.0,0.0,0.0,-3.7377,-3.7275,-3.7292,-3.733,-3.8001,-3.885,-3.9687,-4.0517,-4.1076,-4.1113,-4.1083,-4.1387,0.0,0.0,0.0,0.0,0.0,0.0,0.0,0.0,0.0,0.0,0.0,0.0,0.0,0.0,0.0,0.0,0.0,0.0,0.0,0.0,0.0,0.0,0.0,0.0,0.0,0.0,0.0,-3.1051,-3.0499,0.0,0.0,0.0,0.0,0.0,0.0,0.0,0.0,0.0,0.0,0.0,-3.0834,-3.0834,0.0,0.0,0.0,0.0,0.0,0.0,0.0,0.0,0.0,0.0,0.0,0.0,-3.0208,-2.9673,-2.9607,-2.956,-2.954,-2.9502,-2.9521,-2.9521,-2.9521,-2.9521,-2.9521,0.0,0.0,0.0,0.0,0.0,0.0,0.0,0.0,0.0,0.0,0.0,0.0,0.0,0.0,0.0,0.0,0.0,0.0,0.0,0.0,0.0,0.0,0.0,0.0,0.0,-3.0653,0.0,0.0,0.0,0.0,0.0,0.0,0.0,0.0,0.0,0.0,0.0,-3.8489,-3.8213,-3.8128,-3.8102,-3.8097,-3.8809,-3.9481,0.0,0.0,0.0,0.0,0.0,0.0,0.0,0.0,0.0,0.0,0.0,0.0,0.0,0.0,-4.5026,-4.4483,-4.372,-4.2988,-4.2411,0.0,0.0,0.0,0.0,0.0,0.0,0.0,0.0,0.0,0.0,0.0,0.0,0.0,0.0,-3.2767,-3.2218,-3.2102,0.0,0.0,0.0,0.0,0.0,0.0,0.0,0.0,-3.063,-3.0826,-3.0784,-3.1084,-3.1663,0.0,-3.2759,-3.2893,0.0,0.0,0.0,0.0,0.0,0.0,0.0,0.0,-3.0602,-3.0038,-2.9719,-2.9531,-2.9472,-2.9444,-2.9463,-2.9463,-2.9463,-2.9482,-2.9521,-2.9472,-2.9472,0.0,0.0,0.0,0.0,0.0,0.0,0.0,0.0,0.0,0.0,0.0,0.0,0.0,0.0,0.0,0.0,0.0,0.0,0.0,0.0,0.0,0.0,0.0,-3.1662,0.0,0.0,0.0,0.0,0.0,0.0,0.0,0.0,0.0,-3.9006,-3.9284,-3.9361,-3.9062,-3.8979,-3.8953,-3.8961,0.0,0.0,0.0,0.0,0.0,0.0,0.0,-4.2019,-4.226,-4.3247,-4.4074,-4.4378,-4.4835,-4.5201,-4.5191,0.0,0.0,-4.5239,-4.4342,-4.3378,-4.2841,-4.1847,-4.1062,-4.1081,-4.1085,-4.1114,0.0,0.0,0.0,0.0,0.0,0.0,0.0,0.0,-3.3122,-3.3099,0.0,-3.2987,0.0,0.0,0.0,0.0,-3.227,-3.2193,0.0,0.0,-3.0787,-3.0757,-3.0752,-3.1536,-3.2369,-3.322,-3.393,-3.4311,-3.4285,-3.2897,0.0,0.0,0.0,0.0,0.0,0.0,-3.0883,-3.075,-2.9933,-2.9463,-2.9412,-2.9402,-2.9384,-2.9412,-2.9412,-2.9443,-2.9492,-2.9443,-2.9414,-2.9492,-2.9492,0.0,0.0,0.0,0.0,0.0,0.0,0.0,0.0,0.0,0.0,0.0,0.0,0.0,0.0,0.0,0.0,0.0,0.0,0.0,0.0,-3.162,0.0,0.0,0.0,0.0,0.0,0.0,0.0,0.0,0.0,0.0,-3.9841,-4.0555,-4.0792,-3.994,0.0,0.0,0.0,0.0,-4.0134,-4.0959,-4.11,-4.111,-4.111,-4.1127,-4.1438,-4.2179,0.0,0.0,-4.3383,-4.351,-4.3559,-4.351,-4.3583,-4.404,-4.5643,-4.4521,-4.346,-4.3443,-4.214,-4.1064,-4.1009,-4.1059,-4.1107,-3.0479,0.0,0.0,0.0,0.0,-3.3583,-3.4311,-3.487,-3.4821,-3.4436,-3.3865,-3.3787,0.0,0.0,0.0,0.0,0.0,0.0,-3.166,-3.0806,-3.0794,-3.0762,-3.07,-3.0942,-3.1792,-3.3097,-3.3377,-3.3791,-3.4367,-3.3953,-3.3772,-3.3824,0.0,0.0,0.0,0.0,-3.1422,-3.0731,-2.9871,-2.9423,-2.9384,-2.9384,-2.9423,-2.9491,-2.9472,-2.9482,-2.9521,-2.9433,-2.9412,-2.9433,-2.9433,0.0,0.0,0.0,0.0,0.0,0.0,0.0,0.0,0.0,0.0,0.0,0.0,0.0,0.0,0.0,0.0,0.0,0.0,0.0,-3.2419,-3.3315,-3.4082,0.0,0.0,0.0,0.0,0.0,0.0,0.0,0.0,0.0,-4.0657,-4.0942,-4.1005,0.0,0.0,-4.0716,-4.073,-4.0736,-4.0824,-4.1078,-4.1114,0.0,-4.1107,-4.1578,-4.2039,-4.2263,-4.2778,-4.3231,-4.3451,-4.3496,-4.3496,-4.3471,-4.3486,-4.3685,-4.4025,-4.336,-4.2635,-4.2527,-4.1727,-4.1007,-4.0986,-4.1013,-4.1036,-3.0425,-3.0549,-3.1438,-3.2067,-3.2588,-3.3419,-3.4075,-3.4576,-3.4481,-3.4167,-3.3667,-3.3613,-3.3228,-3.2649,-3.2476,0.0,0.0,0.0,-3.162,-3.0774,-3.0762,-3.0561,-3.0219,-3.0498,-3.1168,-3.211,-3.2761,-3.3331,-3.385,-3.4167,-3.434,-3.4427,0.0,0.0,-3.3702,-3.2628,-3.1781,-3.1155,-3.0008,-2.9384,-2.9384,-2.9443,-2.9511,-2.9588,-2.956,-2.954,-2.954,-2.9472,-2.9443,-2.9443,-2.9423,-2.9423,0.0,0.0,0.0,0.0,0.0,0.0,0.0,0.0,0.0,0.0,0.0,-3.049,-3.0923,0.0,0.0,0.0,-3.2086,-3.2768,-3.3632,-3.4222,0.0,0.0,0.0,0.0,0.0,0.0,0.0,-3.9646,-4.0078,-4.0499,-4.1,-4.107,-4.11,-4.1106,-4.11,-4.1112,-4.1106,0.0,-4.1088,-4.1062,-4.1062,-4.1059,-4.1068,-4.1477,-4.1785,-4.1766,-4.217,-4.2494,-4.2485,-4.2471,-4.2481,-4.2461,-4.2481,-4.2461,-4.2461,-4.2024,-4.1824,-4.2116,-4.155,-4.1007,-4.0984,-4.0976,-4.099,-3.0404,-3.0487,-3.132,-3.1708,-3.1863,-3.2586,-3.294,-3.2998,-3.2942,-3.2891,-3.289,-3.2837,-3.2713,-3.2564,-3.24,0.0,-3.326,-3.2391,-3.1522,-3.07,-3.0626,-3.0184,-2.9444,-3.0158,-3.053,-3.066,-3.2165,-3.2946,-3.3039,-3.38,-3.4233,-3.4293,-3.4351,-3.4393,-3.4311,-3.2787,-3.1944,-3.1882,-3.024,-2.9412,-2.9412,-2.954,-2.9626,-2.9701,-2.9636,-2.9607,-2.9607,-2.954,-2.9521,-2.9502,-2.9443,-2.9433,-2.9482,0.0,0.0,0.0,0.0,0.0,0.0,0.0,0.0,0.0,0.0,0.0,0.0,0.0,0.0,0.0,-3.32,0.0,-3.4512,-3.46,0.0,0.0,0.0,-3.7136,-3.7198,-3.8695,-3.9733,-3.9789,0.0,0.0,-4.1009,-4.1059,-4.1052,-4.0992,-4.1073,-4.1109,-4.111,-4.1088,-4.1081,-4.1009,-4.0986,-4.0999,-4.1,-4.1035,-4.107,-4.1073,-4.0987,-4.1051,-4.1009,-4.0985,-4.0946,-4.1005,-4.0907,-4.0946,-4.0907,-4.0985,-4.114,-4.1922,-4.1494,-4.0987,-4.0991,-4.0976,-4.1002,-3.0404,-3.0423,-3.0633,-3.112,-3.1736,-3.1909,-3.2365,-3.2923,-3.2897,-3.2891,-3.289,-3.2837,-3.2669,-3.245,-3.2354,-3.2343,-3.2343,-3.1439,-3.092,-3.0663,-2.9996,-2.9585,-2.9407,-2.9611,-3.001,-3.0641,-3.1608,-3.2407,-3.3039,-3.3819,-3.4209,-3.4203,-3.4233,-3.4269,-3.426,-3.2724,-3.189,-3.1816,-3.023,-2.9443,-2.9559,-2.9626,-2.9692,-2.9701,-2.9692,-2.9683,-2.9683,-2.9607,-2.9569,-2.956,-2.9521,-2.9463,-2.9423,-2.9453,0.0,0.0,0.0,0.0,0.0,0.0,0.0,0.0,0.0,-3.1261,-3.161,0.0,-3.2718,0.0,-3.3599,-3.4395,-3.525,-3.5369,0.0,0.0,-3.658,-3.7362,-3.8011,-3.905,-3.9968,-4.0626,-4.0887,-4.1007,-4.1003,-4.1027,-4.0777,-4.0139,-4.065,-4.1114,-4.1107,-4.1062,-4.1013,-4.0986,-4.0976,-4.098,-4.0996,-4.0984,-4.0991,-4.0987,-4.0969,-4.0912,-4.0907,-4.0888,-4.0888,-4.0888,-4.0888,-4.0888,-4.0888,-4.0888,-4.0946,-4.116,-4.1048,-4.0945,-4.0982,-4.0975,-4.0992,-3.0373,-3.0404,-3.0404,-3.0692,-3.1121,-3.1135,-3.1371,-3.1769,-3.1757,-3.1738,-3.1738,-3.1637,-3.1695,-3.1829,-3.1391,-3.1327,-3.1453,-3.0577,-3.0144,-3.0112,-2.9632,-2.9388,-2.9388,-2.9388,-2.9805,-3.0623,-3.1422,-3.2221,-3.3001,-3.3807,-3.4216,-3.4216,-3.4216,-3.4203,-3.4201,-3.301,-3.2199,-3.1794,-3.0251,-2.9482,-2.9598,-2.9655,-2.9701,-2.9701,-2.9701,-2.9701,-2.9701,-2.9655,-2.9636,-2.9636,-2.9588,-2.9521,-2.9443,-2.9453,-2.9443,0.0,0.0,0.0,0.0,0.0,0.0,0.0,0.0,0.0,0.0,0.0,-3.3518,-3.3939,-3.4481,-3.5002,-3.5506,-3.5574,-3.5623,-3.5708,-3.6503,-3.7404,-3.8268,-3.9135,-3.9975,-4.085,-4.0984,-4.0992,-4.0984,-4.0988,-4.084,-4.0334,-4.0723,-4.0756,-4.0094,-4.0162,-4.0408,-4.0439,-4.0739,-4.098,-4.0967,-4.0958,-4.095,-4.095,-4.0917,-4.0888,-4.0888,-4.0888,-4.0888,-4.0888,-4.0888,-4.0888,-4.0888,-4.0888,-4.0888,-4.0888,-4.0888,-4.0912,-4.095,-4.0978,-4.0975,-3.0336,-3.0398,-3.0398,-3.0398,-3.0404,-3.0404,-3.0404,-3.0404,-3.0336,-3.0305,-3.0273,-3.0142,-3.044,-3.0958,-3.0163,-3.0104,-3.0591,-2.9858,-2.9463,-2.9384,-2.9399,-2.9388,-2.9407,-2.9508,-2.9927,-3.0623,-3.1515,-3.2295,-3.3008,-3.3807,-3.4216,-3.4216,-3.4216,-3.4216,-3.4179,-3.3503,-3.2667,-3.1667,-3.0236,-2.955,-2.9607,-2.9655,-2.9701,-2.9701,-2.9701,-2.9692,-2.9701,-2.9701,-2.9701,-2.9701,-2.9626,-2.9578,-2.9502,-2.9443,-2.9384,0.0,-2.9384,0.0,0.0,0.0,0.0,0.0,0.0,0.0,0.0,-3.3988,-3.4388,-3.5193,-3.5335,-3.5393,-3.5463,-3.5496,-3.5526,-3.561,-3.6427,-3.7302,-3.8064,-3.8888,-3.9776,-4.0631,-4.0784,-4.0839,-4.0948,-4.0975,-4.0968,-4.075,-4.0731,-4.021,-3.8891,-3.9357,-4.0015,-3.9878,-4.0477,-4.0974,-4.0917,-4.0888,-4.0888,-4.0888,-4.0888,-4.0888,-4.0888,-4.0888,-4.0888,-4.0903,-4.0898,-4.0903,-4.0903,-4.0903,-4.0903,-4.0888,-4.0888,-4.0888,-4.0907,-4.0945,-4.0982,-3.0305,-3.0316,-3.031,-3.0367,-3.0404,-3.0404,-3.0404,-3.0404,-3.0336,-3.0267,-3.0214,-3.0128,-3.0125,-3.0116,-2.9899,-2.9822,-2.9804,-2.9596,-2.9463,-2.9384,-2.938,-2.9388,-2.9444,-3.0065,-3.0456,-3.0679,-3.2061,-3.2853,-3.3008,-3.3819,-3.4216,-3.4216,-3.4216,-3.4216,-3.4197,0.0,0.0,0.0,-3.0026,-2.9598,-2.9664,-2.9701,-2.9701,-2.9701,-2.9655,0.0,-2.9701,-2.9655,-2.9636,-2.9701,-2.9626,0.0,0.0,0.0,0.0,0.0,0.0,0.0,0.0,0.0,0.0,0.0,-3.1929,-3.2458,-3.3627,-3.4365,-3.4893,-3.5117,-3.5141,-3.5203,-3.533,-3.54,-3.5443,-3.5546,-3.6364,-3.7013,-3.7258,-3.802,-3.8874,-3.9709,-3.9859,-4.0121,-4.0742,-4.0921,-4.0649,-4.0047,-3.9945,-3.9522,-3.8574,-3.9738,-4.0699,-4.0773,-4.0852,-4.0917,-4.0888,-4.0888,-4.0888,-4.0888,-4.0888,-4.0888,-4.0888,-4.0888,-4.0898,-4.0898,-4.0893,-4.0893,-4.0893,-4.0893,-4.0898,-4.0903,-4.0888,-4.0888,-4.0888,-4.0912,-4.0941,-3.0286,-3.0299,-3.0298,-3.0316,0.0,-3.0398,-3.0404,-3.0404,-3.0336,-3.026,-3.0187,-3.0121,-3.003,-2.9907,-2.9823,-2.9746,-2.9636,-2.9569,-2.9521,-2.9453,-2.9411,-2.938,-2.9425,-3.0214,-3.0809,-3.1236,-3.2414,-3.3194,-3.3584,-3.4023,-3.4216,-3.4216,-3.4216,-3.4216,-3.4179,-3.3849,-3.2884,-3.136,-3.054,-3.0001,-2.9701,-2.9701,-2.9692,-2.9664,-2.9617,0.0,0.0,0.0,0.0,0.0,0.0,0.0,0.0,0.0,0.0,-2.9388,-2.938,-2.9382,-2.9421,-2.9824,-3.0648,-3.1933,-3.278,-3.3504,-3.4197,-3.4652,-3.4917,-3.4945,-3.4973,-3.5063,-3.5193,-3.5266,-3.533,-3.5463,-3.5894,-3.6381,-3.6906,-3.7334,-3.798,-3.8768,-3.8952,-3.9156,-3.9606,-3.9664,-3.9509,-3.912,-3.9062,-3.9062,-3.9101,-3.9775,-4.044,-4.0867,-4.0917,-4.0888,-4.0888,-4.0888,-4.0888,-4.0888,-4.0888,-4.0888,-4.0888,-4.0898,-4.0898,-4.0883,-4.0872,-4.0848,-4.0848,-4.0848,-4.0872,-4.0878,-4.0883,-4.0893,-4.0903,-4.0888,-4.0893,-3.0227,-3.0267,-3.0273,-3.0292,-3.0298,-3.0361,-3.0386,-3.0355,-3.0311,0.0,0.0,-3.0132,-3.0022,-2.9899,-2.9823,-2.9755,-2.9701,-2.9626,-2.9578,-2.9492,-2.9414,-2.9382,-2.9444,-3.0214,-3.1013,-3.1831,-3.263,-3.3417,-3.4197,-3.4216,-3.4216,-3.4216,-3.4216,-3.4216,-3.4172,-3.3613,-3.2933,-3.2198,-3.12,-3.0429,-2.988,-2.973,-2.9636,-2.9569,-2.9578,-2.9559,-2.9521,-2.9482,-2.9482,-2.9521,-2.9482,-2.9463,-2.9412,-2.9392,-2.9401,-2.9388,-2.9388,-2.9388,-2.9411,-3.0193,-3.1118,-3.2123,-3.3553,-3.4484,-3.4718,-3.4758,-3.4769,-3.4782,-3.4841,-3.4955,-3.5057,-3.5134,-3.5234,-3.5361,-3.5439,-3.5797,-3.6514,-3.6665,-3.7033,-3.7875,-3.8064,-3.8161,-3.8393,-3.8479,-3.8387,-3.8406,-3.8464,-3.8736,-3.9485,-3.9878,-4.0266,-4.0791,-4.0888,-4.0888,-4.0888,-4.0888,-4.0888,-4.0888,-4.0888,-4.0883,-4.0898,-4.0898,-4.0902,-4.0867,-4.0851,-4.0821,-4.0801,-4.0801,-4.0826,-4.0853,-4.0897,-4.0835,-4.0699,-4.0674,-4.0635,-3.0213,-3.0221,-3.0208,-3.0247,-3.0299,-3.0305,-3.0267,-3.0234,-3.0279,-3.0233,-3.0128,-3.0098,-3.0033,-2.9904,-2.9834,-2.9755,-2.9683,-2.9626,-2.956,-2.9492,-2.9433,-2.9382,-2.9463,-3.0214,-3.1032,-3.1812,-3.2611,-3.341,-3.4123,-3.4216,-3.4216,-3.4216,-3.4216,-3.4216,-3.4197,-3.4098,-3.3694,-3.2922,-3.1459,-3.065,-3.053,-2.9886,-2.9531,-2.9502,-2.9453,-2.9453,-2.9492,-2.9443,-2.9443,-2.9492,-2.9443,-2.9412,-2.9384,-2.939,-2.9388,-2.9388,-2.9388,-2.9388,-2.9407,-3.015,-3.1288,-3.2795,-3.3783,-3.4374,-3.4528,-3.4602,-3.4655,-3.4708,-3.4829,-3.4907,-3.4927,-3.5038,-3.5134,-3.5226,-3.5354,-3.5518,-3.5733,-3.581,-3.617,-3.6975,-3.7147,-3.7478,-3.8044,-3.8257,-3.8251,-3.8328,-3.8212,-3.8654,-3.9392,-4.0305,-4.0713,-4.0869,-4.0888,-4.0888,-4.0888,-4.0888,-4.0888,-4.0888,-4.0888,-4.0898,-4.0898,-4.0824,-4.0789,-4.0798,-4.0657,-4.067,-4.0684,-4.08,-4.0663,-4.0632,-4.0654,-4.0533,-3.9922,-3.9786,-3.98,-3.0145,-3.0159,-3.0174,-3.0221,-3.0241,-3.0279,-3.0247,-3.0214,-3.0227,-3.0194,-3.0101,-3.0091,-3.0026,-2.9885,-2.9815,-2.9755,-2.9701,-2.9664,-2.9607,-2.9502,-2.9472,-2.9412,-2.9481,-3.0225,-3.1013,-3.1831,-3.263,-3.3429,-3.4141,-3.4216,-3.4216,-3.4216,-3.4216,-3.4216,-3.4216,-3.4216,-3.4023,-3.3675,-3.2151,-3.1142,-3.0696,-2.9922,-2.9482,-2.9453,-2.9423,-2.9421,-2.9431,-2.9429,-2.9419,-2.945,-2.9429,-2.939,-2.939,-2.9388,-2.9388,-2.9388,-2.9388,-2.9582,-3.001,-3.1199,-3.2437,-3.3576,-3.4041,-3.4281,-3.4393,-3.4484,-3.4561,-3.4645,-3.4718,-3.4809,-3.484,-3.4936,-3.5019,-3.5122,-3.5231,-3.5335,-3.5467,-3.5521,-3.5726,-3.6118,-3.6214,-3.6425,-3.6886,-3.6957,-3.699,-3.7018,-3.7333,-3.7877,-3.8285,-3.9043,-3.9897,-4.0674,-4.0888,-4.0888,-4.0869,-4.0888,-4.0888,-4.0888,-4.0893,-4.0903,-4.0844,-4.0551,-4.0176,-4.007,-3.9757,-3.9435,-3.9416,-3.9377,-3.9414,-3.9442,-3.9458,-3.9261,-3.8962,-3.8597,-3.8305,-3.0101,-3.0109,-3.0147,-3.0174,-3.02,-3.0253,-3.0246,-3.0219,-3.0219,-3.0159,-3.0113,-3.0083,-3.0007,-2.9868,-2.9825,-2.9774,-2.9711,-2.9673,-2.9598,-2.9502,-2.9482,-2.9451,-2.9463,-3.0047,-3.0827,-3.1775,-3.2444,-3.3243,-3.4104,-3.4216,-3.4216,-3.4216,-3.4216,-3.4216,-3.4216,-3.4216,-3.4216,-3.4123,-3.2839,-3.1778,-3.0963,-3.0143,-2.9648,-2.9392,-2.9392,-2.939,-2.9388,-2.9388,-2.9388,-2.9388,-2.9388,-2.9388,-2.9388,-2.9388,-2.9388,-2.9388,-2.9388,-2.9824,-3.0846,-3.2184,-3.3354,-3.4141,-3.4216,-3.4233,-3.4293,-3.4386,-3.4495,-3.4561,-3.4655,-3.4718,-3.4778,-3.4849,-3.4945,-3.5044,-3.5132,-3.525,-3.541,-3.5479,-3.5521,-3.557,-3.559,-3.5653,-3.5723,-3.5766,-3.5862,-3.6015,-3.6397,-3.6809,-3.712,-3.7726,-3.8712,-3.982,-4.0344,-4.0247,-4.0325,-4.0266,-4.0247,-4.0344,-4.0262,-4.015,-4.0077,-3.9614,-3.929,-3.9162,-3.8713,-3.8411,-3.8251,-3.827,-3.8346,-3.8446,-3.8496,-3.8329,-3.8069,-3.7417,-3.7003,-3.0098,-3.0101,-3.0109,-3.0157,-3.0192,-3.0199,-3.0218,-3.0211,-3.0211,-3.015,-3.0102,-3.0095,-3.0002,-2.9825,-2.9808,-2.9755,-2.9701,-2.9626,-2.956,-2.9492,-2.9443,-2.9429,-2.9444,-2.9508,-3.0307,-3.1682,-3.1961,-3.2816,-3.4141,-3.4216,-3.4216,-3.4216,-3.4216,-3.4216,-3.4216,-3.4216,-3.4216,-3.4191,-3.3354,-3.253,-3.1712,-3.0913,-3.015,-2.9407,-2.9407,-2.9388,-2.9378,-2.9388,-2.9388,-2.9388,-2.9378,-2.9378,-2.9378,-2.9378,-2.9388,-2.9378,-2.9425,-3.0047,-3.1552,-3.2518,-3.3361,-3.4086,-3.4216,-3.4221,-3.4293,-3.4305,-3.4363,-3.4495,-3.4623,-3.4687,-3.4708,-3.4819,-3.4888,-3.4936,-3.5035,-3.5149,-3.5242,-3.5376,-3.5488,-3.5494,-3.5571,-3.5612,-3.5629,-3.5684,-3.5742,-3.5784,-3.5914,-3.6272,-3.682,-3.7072,-3.7484,-3.8343,-3.8639,-3.8674,-3.8751,-3.8659,-3.8848,-3.8771,-3.8656,-3.8748,-3.8776,-3.8634,-3.8374,-3.8313,-3.8141,-3.7967,-3.8019,-3.8193,-3.8063,-3.7862,-3.7904,-3.8014,-3.7347,-3.6597,-3.6315,-2.998,-2.9996,-3.0076,-3.0121,-3.013,-3.0178,-3.0204,-3.0204,-3.0145,-3.0121,-3.0095,-3.0053,-2.9932,-2.9789,-2.9789,-2.9774,-2.9683,-2.9626,-2.956,-2.9492,-2.9433,-2.9661,-3.0065,-3.0121,-3.0939,-3.2407,-3.2518,-3.3094,-3.403,-3.4216,-3.4216,-3.4216,-3.4216,-3.4216,-3.4216,-3.4216,-3.4216,-3.4179,-3.3881,-3.3324,-3.2462,-3.1255,-3.0456,-3.0103,-2.9657,-2.9386,-2.9344,-2.9344,-2.9315,-2.9265,-2.9283,-2.9265,-2.9283,-2.9304,-2.9344,-2.9381,-3.0286,-3.1329,-3.2444,-3.325,-3.3856,-3.4197,-3.4216,-3.4209,-3.4233,-3.4281,-3.4328,-3.4439,-3.4509,-3.4612,-3.4687,-3.4758,-3.48,-3.4889,-3.4945,-3.5027,-3.5174,-3.5266,-3.5373,-3.5467,-3.5534,-3.5565,-3.5596,-3.5654,-3.5708,-3.5722,-3.5732,-3.5954,-3.6245,-3.6279,-3.6415,-3.6692,-3.6808,-3.7326,-3.8048,-3.8354,-3.8311,-3.8301,-3.8312,-3.8296,-3.8174,-3.7735,-3.7461,-3.7444,-3.7135,-3.6864,-3.6651,-3.6729,-3.6709,-3.6792,-3.6751,-3.6652,-3.6319,-3.6032,-3.603,-3.008,-2.9943,-3.0038,-3.0091,-3.0094,-3.015,-3.0176,-3.0176,-3.0128,-3.0091,-3.008,-3.0003,-2.9916,-2.9798,-2.9789,-2.9774,-2.9683,-2.9617,-2.9671,-2.9791,-2.9758,-3.0153,-3.0864,-3.092,-3.1645,-3.2816,-3.2971,-3.338,-3.4123,-3.4216,-3.4216,-3.4216,-3.4216,-3.4216,-3.4216,-3.4216,-3.4216,-3.4216,-3.4216,-3.39,-3.3224,-3.1979,-3.1162,-3.0902,-3.0148,-2.967,-2.9635,-2.9402,-2.9251,-2.9207,-2.9207,-2.9207,-2.9207,-2.9444,-2.9687,-3.0021,-3.128,-3.2354,-3.2948,-3.3739,-3.4216,-3.4216,-3.4216,-3.4216,-3.4209,-3.4245,-3.4305,-3.4363,-3.4439,-3.4547,-3.4645,-3.4687,-3.4759,-3.485,-3.487,-3.4982,-3.5132,-3.5166,-3.5285,-3.5424,-3.5474,-3.5534,-3.5593,-3.5653,-3.5684,-3.5713,-3.5704,-3.5708,-3.5708,-3.5747,-3.5747,-3.5708,-3.5728,-3.6227,-3.7389,-3.7477,-3.7584,-3.7575,-3.7467,-3.7422,-3.7566,-3.6906,-3.6574,-3.6535,-3.5974,-3.58,-3.6033,-3.5878,-3.5767,-3.5729,-3.5745,-3.5809,-3.5839,-3.5766,-3.5788,-3.054,-3.0,-3.0057,-3.019,-3.0122,-3.0141,-3.0141,-3.0186,-3.0102,-3.0072,-3.0014,-3.0037,-2.9934,-2.9883,-2.9931,-2.9811,-2.9701,-2.9625,-2.9969,-3.0603,-3.0565,-3.0976,-3.1719,-3.1756,-3.2202,-3.3057,-3.3101,-3.3484,-3.4179,-3.4216,-3.4216,-3.4216,-3.4216,-3.4216,-3.4216,-3.4216,-3.4216,-3.4216,-3.4216,-3.416,-3.403,-3.3268,-3.25,-3.1819,-3.0921,-3.0461,-3.0365,-2.9647,-2.9244,-2.9226,-2.9318,-2.9281,-2.93,-2.9954,-3.0674,-3.1443,-3.2334,-3.2851,-3.3018,-3.3734,-3.4197,-3.4216,-3.4216,-3.4216,-3.4216,-3.4228,-3.4245,-3.4305,-3.4363,-3.4461,-3.4591,-3.4655,-3.4727,-3.478,-3.485,-3.4945,-3.5092,-3.517,-3.5234,-3.5327,-3.542,-3.5502,-3.5589,-3.5615,-3.5637,-3.5683,-3.5708,-3.5699,-3.5694,-3.5699,-3.5699,-3.5699,-3.5699,-3.5762,-3.5863,-3.6237,-3.612,-3.6169,-3.6386,-3.6037,-3.5852,-3.5745,-3.5811,-3.5839,-3.5762,-3.5723,-3.5704,-3.5704,-3.5723,-3.5715,-3.5706,-3.5713,-3.5699,-3.5766,-3.5788,-3.16,-3.1438,-3.1535,-3.1585,-3.1528,-3.1083,-3.0879,-3.0822,-3.0255,-3.0003,-3.0094,-3.0492,-3.0652,-3.06,-3.1101,-3.1017,-3.048,-3.0327,-3.0725,-3.1443,-3.144,-3.1812,-3.2518,-3.2574,-3.299,-3.3658,-3.3782,-3.39,-3.416,-3.4216,-3.4216,-3.4216,-3.4216,-3.4216,-3.4216,-3.4216,-3.4216,-3.4216,-3.4216,-3.4216,-3.4197,-3.39,-3.3603,-3.3287,-3.1967,-3.1242,-3.1207,-3.0842,-3.0648,-3.0606,-3.0624,-3.0624,-3.0642,-3.0924,-3.1476,-3.2268,-3.2656,-3.3081,-3.3617,-3.3957,-3.4142,-3.4179,-3.4216,-3.4216,-3.4216,-3.4216,-3.4233,-3.4293,-3.4316,-3.4386,-3.4506,-3.4583,-3.4666,-3.4737,-3.479,-3.4879,-3.4974,-3.5065,-3.516,-3.525,-3.5376,-3.5489,-3.5528,-3.5571,-3.5614,-3.5645,-3.5654,-3.5651,-3.5637,-3.5662,-3.5697,-3.5716,-3.5716,-3.5716,-3.5716,-3.5732,-3.5737,-3.5732,-3.578,-3.5822,-3.5715,-3.5715,-3.5762,-3.5781,-3.5704,-3.5704,-3.5704,-3.5704,-3.5704,-3.5709,-3.5701,-3.5702,-3.5699,-3.5737,-3.576,-3.2143,-3.225,-3.2326,-3.2372,-3.2305,-3.1846,-3.1617,-3.156,-3.1004,-3.0758,-3.0835,-3.1286,-3.1439,-3.1478,-3.1958,-3.2078,-3.1652,-3.1327,-3.1574,-3.2339,-3.2248,-3.2611,-3.3268,-3.3392,-3.367,-3.4123,-3.4216,-3.4216,-3.4216,-3.4216,-3.4216,-3.4216,-3.4216,-3.4216,-3.4216,-3.4216,-3.4216,-3.4216,-3.4216,-3.4216,-3.4216,-3.4216,-3.4216,-3.4036,-3.3061,-3.2304,-3.2004,-3.1661,-3.1452,-3.1397,-3.1403,-3.1525,-3.1764,-3.1844,-3.2249,-3.2999,-3.3154,-3.3394,-3.3925,-3.4074,-3.4124,-3.4161,-3.4185,-3.4216,-3.4216,-3.4216,-3.4221,-3.4257,-3.4293,-3.4358,-3.4427,-3.4517,-3.4594,-3.4676,-3.4728,-3.4819,-3.4889,-3.4964,-3.5082,-3.5201,-3.5327,-3.5441,-3.5495,-3.5547,-3.5573,-3.5591,-3.5616,-3.5608,-3.5614,-3.5626,-3.5656,-3.5681,-3.5668,-3.5654,-3.566,-3.5676,-3.5692,-3.5711,-3.5711,-3.5715,-3.5704,-3.5704,-3.5704,-3.5704,-3.5704,-3.5704,-3.5704,-3.5704,-3.5704,-3.5704,-3.5715,-3.5711,-3.5703,-3.5704,-3.5732,-3.2187,-3.2263,-3.2278,-3.2496,-3.2515,-3.2383,-3.2317,-3.2307,-3.2213,-3.2043,-3.2015,-3.227,-3.2279,-3.2249,-3.2427,-3.2649,-3.2997,-3.2465,-3.2507,-3.3138,-3.3066,-3.3392,-3.4048,-3.4086,-3.4086,-3.4216,-3.4216,-3.4216,-3.4216,-3.4216,-3.4216,-3.4216,-3.4216,-3.4216,-3.4216,-3.4216,-3.4216,-3.4216,-3.4216,-3.4216,-3.4216,-3.4216,-3.4216,-3.4197,-3.4006,-3.3556,-3.2828,-3.2004,-3.1648,-3.1574,-3.1562,-3.1825,-3.2504,-3.2614,-3.2963,-3.3576,-3.3818,-3.3876,-3.3889,-3.4023,-3.4055,-3.4124,-3.4161,-3.4185,-3.4216,-3.4216,-3.4197,-3.4221,-3.4257,-3.4311,-3.4328,-3.4427,-3.4528,-3.4666,-3.4687,-3.4759,-3.485,-3.4908,-3.4982,-3.5149,-3.5281,-3.5357,-3.5453,-3.55,-3.5501,-3.5554,-3.5579,-3.5585,-3.5585,-3.5598,-3.5598,-3.5629,-3.5628,-3.5626,-3.5637,-3.5648,-3.5679,-3.5709,-3.5709,-3.5704,-3.5704,-3.5704,-3.5704,-3.5704,-3.5704,-3.5704,-3.5704,-3.5704,-3.5704,-3.5709,-3.5715,-3.5706,-3.5703,-3.5713,-3.5732,-3.3605,-3.3694,-3.3832,-3.3884,-3.3801,-3.3353,-3.3137,-3.3043,-3.2572,-3.2289,-3.2373,-3.2834,-3.3059,-3.3151,-3.3531,-3.3891,-3.4091,-3.3739,-3.3701,-3.3876,-3.3855,-3.3918,-3.416,-3.4216,-3.4216,-3.4216,-3.4216,-3.4216,-3.4216,-3.4216,-3.4216,-3.4216,-3.4216,-3.4216,-3.4216,-3.4216,-3.4216,-3.4216,-3.4216,-3.4216,-3.4216,-3.4216,-3.4216,-3.4197,-3.4136,-3.3938,-3.3691,-3.332,-3.3132,-3.3077,-3.3062,-3.3164,-3.3366,-3.344,-3.3532,-3.3752,-3.3834,-3.386,-3.3895,-3.3947,-3.4011,-3.4086,-3.4105,-3.4142,-3.4216,-3.4216,-3.4216,-3.4216,-3.4221,-3.4227,-3.4293,-3.4347,-3.442,-3.455,-3.4645,-3.4708,-3.478,-3.485,-3.4954,-3.5096,-3.519,-3.5266,-3.5339,-3.5361,-3.5379,-3.5407,-3.5435,-3.5475,-3.5515,-3.5522,-3.5573,-3.5598,-3.561,-3.5596,-3.5608,-3.5606,-3.5643,-3.5679,-3.5704,-3.5704,-3.5704,-3.5704,-3.5704,-3.5704,-3.5704,-3.5704,-3.5704,-3.5704,-3.5704,-3.5704,-3.5709,-3.5716,-3.5713,-3.5718,-3.5751,-3.4245,-3.434,-3.4473,-3.4517,-3.4472,-3.4011,-3.3847,-3.3801,-3.3349,-3.3133,-3.3265,-3.36,-3.3815,-3.3907,-3.4281,-3.4431,-3.4427,-3.4328,-3.43,-3.4276,-3.4221,-3.4216,-3.4216,-3.4216,-3.4216,-3.4216,-3.4216,-3.4216,-3.4216,-3.4216,-3.4216,-3.4216,-3.4216,-3.4216,-3.4216,-3.4216,-3.4216,-3.4216,-3.4216,-3.4216,-3.4216,-3.4216,-3.4216,-3.4197,-3.4161,-3.4155,-3.4136,-3.4018,-3.3959,-3.3934,-3.3868,-3.3815,-3.382,-3.3788,-3.3807,-3.3807,-3.3807,-3.3834,-3.3873,-3.3881,-3.3934,-3.3992,-3.4055,-3.4093,-3.4161,-3.4173,-3.4216,-3.4216,-3.4197,-3.4221,-3.4257,-3.4293,-3.4328,-3.4427,-3.4539,-3.4645,-3.4697,-3.4811,-3.4908,-3.5018,-3.5117,-3.5168,-3.5198,-3.5239,-3.527,-3.5304,-3.5342,-3.5391,-3.542,-3.5402,-3.5463,-3.5515,-3.5541,-3.556,-3.5559,-3.5583,-3.5606,-3.5643,-3.5679,-3.5704,-3.5704,-3.5704,-3.5704,-3.5704,-3.5704,-3.5704,-3.5704,-3.5704,-3.5704,-3.5704,-3.5709,-3.5697,-3.5708,-3.5704,-3.5722,-3.4185,-3.4209,-3.4328,-3.4386,-3.4386,-3.4341,-3.4349,-3.4439,-3.4412,-3.437,-3.4449,-3.4349,-3.4431,-3.4446,-3.439,-3.4381,-3.4305,-3.4293,-3.4257,-3.4221,-3.4216,-3.4216,-3.4216,-3.4216,-3.4216,-3.4216,-3.4216,-3.4216,-3.4216,-3.4216,-3.4216,-3.4216,-3.4216,-3.4216,-3.4216,-3.4216,-3.4216,-3.4216,-3.4216,-3.4216,-3.4216,-3.4216,-3.4216,-3.4216,-3.4197,-3.4185,-3.4185,-3.4136,-3.4061,-3.4016,-3.3934,-3.3881,-3.3847,-3.382,-3.382,-3.382,-3.382,-3.3807,-3.382,-3.3842,-3.3913,-3.3921,-3.4011,-3.4099,-3.4111,-3.4148,-3.4185,-3.4216,-3.4216,-3.4216,-3.424,-3.4245,-3.4293,-3.4335,-3.4431,-3.4561,-3.4687,-3.4801,-3.4879,-3.4917,-3.5011,-3.5082,-3.5107,-3.5149,-3.5209,-3.5261,-3.5281,-3.5304,-3.532,-3.5323,-3.533,-3.5412,-3.5481,-3.5502,-3.5509,-3.5571,-3.5595,-3.5618,-3.5673,-3.5704,-3.5704,-3.5704,-3.5704,-3.5704,-3.5704,-3.5704,-3.5704,-3.5704,-3.5704,-3.5704,-3.5701,-3.5702,-3.5698,-3.5699,-3.5727,-3.4011,-3.4055,-3.4197,-3.4257,-3.4269,-3.437,-3.4397,-3.442,-3.4439,-3.445,-3.4461,-3.4439,-3.4439,-3.4409,-3.4351,-3.4316,-3.4281,-3.4245,-3.4221,-3.4197,-3.4216,-3.4216,-3.4216,-3.4216,-3.4216,-3.4216,-3.4216,-3.4216,-3.4216,-3.4216,-3.4216,-3.4216,-3.4216,-3.4216,-3.4216,-3.4216,-3.4216,-3.4216,-3.4216,-3.4216,-3.4216,-3.4216,-3.4216,-3.4216,-3.4216,-3.4216,-3.4216,-3.4185,-3.4124,-3.4011,-3.3985,-3.3959,-3.3934,-3.3913,-3.3887,-3.3855,-3.3847,-3.3807,-3.382,-3.3815,-3.386,-3.3895,-3.3947,-3.3998,-3.4086,-3.4111,-3.4148,-3.4185,-3.4216,-3.4216,-3.4209,-3.4221,-3.4245,-3.4323,-3.4397,-3.4539,-3.4666,-3.4728,-3.479,-3.4897,-3.4927,-3.4964,-3.501,-3.5073,-3.5136,-3.5153,-3.5196,-3.5248,-3.5242,-3.5293,-3.5316,-3.5376,-3.5427,-3.5449,-3.5496,-3.554,-3.5596,-3.5606,-3.5643,-3.5704,-3.5704,-3.5704,-3.5704,-3.5704,-3.5704,-3.5704,-3.5704,-3.5704,-3.5704,-3.5704,-3.5715,-3.5711,-3.5703,-3.5708,-3.5732,-3.3921,-3.3959,-3.4074,-3.4136,-3.4173,-3.4233,-3.4305,-3.434,-3.437,-3.4393,-3.4386,-3.4363,-3.437,-3.4351,-3.4281,-3.4257,-3.4257,-3.4221,-3.4197,-3.4216,-3.4216,-3.4216,-3.4216,-3.4216,-3.4216,-3.4216,-3.4216,-3.4216,-3.4216,-3.4216,-3.4216,-3.4216,-3.4216,-3.4216,-3.4216,-3.4216,-3.4216,-3.4216,-3.4216,-3.4216,-3.4216,-3.4216,-3.4216,-3.4216,-3.4216,-3.4216,-3.4216,-3.4216,-3.4148,-3.4074,-3.4036,-3.4023,-3.3998,-3.3972,-3.3952,-3.3934,-3.3895,-3.3881,-3.3868,-3.3855,-3.3873,-3.3881,-3.3895,-3.3952,-3.4011,-3.4061,-3.4105,-3.413,-3.4173,-3.4197,-3.4216,-3.4216,-3.4233,-3.4293,-3.4363,-3.4473,-3.4583,-3.4666,-3.4718,-3.4798,-3.4859,-3.4888,-3.4955,-3.5011,-3.502,-3.5047,-3.511,-3.5153,-3.5196,-3.5248,-3.5288,-3.5331,-3.5383,-3.54,-3.5456,-3.5502,-3.5578,-3.5608,-3.5648,-3.5704,-3.5704,-3.5704,-3.5704,-3.5704,-3.5704,-3.5704,-3.5704,-3.5704,-3.5704,-3.5709,-3.5715,-3.5716,-3.5708,-3.5737,-3.576,-3.3881,-3.3913,-3.3972,-3.4023,-3.4074,-3.4086,-3.4161,-3.4245,-3.4269,-3.4293,-3.4328,-3.4305,-3.43,-3.43,-3.4233,-3.4216,-3.4209,-3.4209,-3.4216,-3.4216,-3.4216,-3.4216,-3.4216,-3.4216,-3.4216,-3.4216,-3.4216,-3.4216,-3.4216,-3.4216,-3.4216,-3.4216,-3.4216,-3.4216,-3.4216,-3.4216,-3.4216,-3.4216,-3.4216,-3.4216,-3.4216,-3.4216,-3.4216,-3.4216,-3.4216,-3.4216,-3.4216,-3.4216,-3.4173,-3.4124,-3.4111,-3.4086,-3.4036,-3.4023,-3.4011,-3.4011,-3.3985,-3.3985,-3.3985,-3.3934,-3.3926,-3.3926,-3.3908,-3.3908,-3.3947,-3.4023,-3.4086,-3.4093,-3.4179,-3.4216,-3.4216,-3.4216,-3.4221,-3.4269,-3.4293,-3.4351,-3.4473,-3.4594,-3.4676,-3.4687,-3.4739,-3.4809,-3.4859,-3.4888,-3.4927,-3.4983,-3.503,-3.5056,-3.5127,-3.5189,-3.5239,-3.5277,-3.5304,-3.535,-3.5407,-3.5463,-3.5541,-3.559,-3.5662,-3.5704,-3.5704,-3.5704,-3.5704,-3.5704,-3.5704,-3.5704,-3.5704,-3.5704,-3.5704,-3.5715,-3.5701,-3.5713,-3.5704,-3.5742,-3.5784,-3.3815,-3.3815,-3.3913,-3.3934,-3.3947,-3.3998,-3.4036,-3.4074,-3.4105,-3.4161,-3.4173,-3.4197,-3.424,-3.4203,-3.4209,-3.4216,-3.4216,-3.4216,-3.4216,-3.4216,-3.4216,-3.4216,-3.4216,-3.4216,-3.4216,-3.4216,-3.4216,-3.4216,-3.4216,-3.4216,-3.4216,-3.4216,-3.4216,-3.4216,-3.4216,-3.4216,-3.4216,-3.4216,-3.4216,-3.4216,-3.4216,-3.4216,-3.4216,-3.4216,-3.4216,-3.4216,-3.4216,-3.4216,-3.4221,-3.4233,-3.4209,-3.4173,-3.4161,-3.4124,-3.4099,-3.4074,-3.4036,-3.4011,-3.3998,-3.3998,-3.3972,-3.3972,-3.3934,-3.3902,-3.3972,-3.3998,-3.4049,-3.4099,-3.4161,-3.4185,-3.4216,-3.4216,-3.4228,-3.4252,-3.4269,-3.4305,-3.4351,-3.4454,-3.4591,-3.4666,-3.4697,-3.4747,-3.4827,-3.4819,-3.4859,-3.4917,-3.4946,-3.4974,-3.5038,-3.5138,-3.5189,-3.5229,-3.5289,-3.5323,-3.5367,-3.5456,-3.5547,-3.561,-3.5676,-3.5704,-3.5704,-3.5704,-3.5704,-3.5704,-3.5704,-3.5704,-3.5704,-3.5704,-3.5704,-3.5695,-3.5711,-3.5698,-3.5723,-3.5766,-3.5821,-3.378,-3.3807,-3.3847,-3.3868,-3.3895,-3.3934,-3.3991,-3.4011,-3.4036,-3.4074,-3.4099,-3.4148,-3.4173,-3.4216,-3.4216,-3.4216,-3.4216,-3.4216,-3.4216,-3.4216,-3.4216,-3.4216,-3.4216,-3.4216,-3.4216,-3.4216,-3.4216,-3.4216,-3.4216,-3.4216,-3.4216,-3.4216,-3.4216,-3.4216,-3.4216,-3.4216,-3.4216,-3.4216,-3.4216,-3.4216,-3.4216,-3.4216,-3.4216,-3.4216,-3.4216,-3.4216,-3.4216,-3.4233,-3.4269,-3.4293,-3.4293,-3.4293,-3.4293,-3.4257,-3.4233,-3.4185,-3.4154,-3.4124,-3.4111,-3.4074,-3.4049,-3.403,-3.3985,-3.3972,-3.3979,-3.3998,-3.4018,-3.4086,-3.4136,-3.4161,-3.4216,-3.4216,-3.4216,-3.4216,-3.4221,-3.4269,-3.4305,-3.4427,-3.4536,-3.4602,-3.4634,-3.4676,-3.4718,-3.4747,-3.4809,-3.4868,-3.4917,-3.4927,-3.5011,-3.5092,-3.5155,-3.5204,-3.5273,-3.5323,-3.536,-3.5442,-3.5554,-3.5616,-3.567,-3.5698,-3.5704,-3.5704,-3.5704,-3.5704,-3.5704,-3.5704,-3.5704,-3.5704,-3.5709,-3.5715,-3.5711,-3.5698,-3.5728,-3.5756,-3.5818,-3.3739,-3.3807,-3.3807,-3.3829,-3.3868,-3.3881,-3.3908,-3.3978,-3.3967,-3.4029,-3.408,-3.4086,-3.4136,-3.4191,-3.4216,-3.4216,-3.4216,-3.4216,-3.4216,-3.4216,-3.4216,-3.4216,-3.4216,-3.4216,-3.4216,-3.4216,-3.4216,-3.4216,-3.4216,-3.4216,-3.4216,-3.4216,-3.4216,-3.4216,-3.4216,-3.4216,-3.4216,-3.4216,-3.4216,-3.4216,-3.4216,-3.4216,-3.4216,-3.4216,-3.4216,-3.4228,-3.4252,-3.4257,-3.4305,-3.4328,-3.4393,-3.4409,-3.442,-3.4404,-3.4393,-3.4323,-3.4293,-3.4257,-3.4209,-3.4161,-3.4136,-3.4105,-3.4043,-3.4023,-3.4023,-3.4023,-3.4049,-3.4074,-3.4099,-3.4136,-3.4185,-3.4216,-3.4216,-3.4216,-3.4216,-3.4221,-3.4281,-3.4404,-3.4461,-3.4506,-3.455,-3.4623,-3.4655,-3.4695,-3.4768,-3.4829,-3.4849,-3.4898,-3.4983,-3.5066,-3.511,-3.5179,-3.5258,-3.535,-3.54,-3.5463,-3.5585,-3.5616,-3.567,-3.5693,-3.5704,-3.5704,-3.5704,-3.5704,-3.5704,-3.5704,-3.5704,-3.5704,-3.5709,-3.5715,-3.5702,-3.5713,-3.5722,-3.5769,-3.5811,-3.3739,-3.3807,-3.3807,-3.3807,-3.382,-3.3834,-3.3834,-3.3829,-3.3895,-3.3921,-3.3947,-3.4067,-3.4099,-3.4136,-3.4166,-3.4197,-3.4216,-3.4216,-3.4216,-3.4216,-3.4216,-3.4216,-3.4216,-3.4216,-3.4216,-3.4216,-3.4216,-3.4216,-3.4216,-3.4216,-3.4216,-3.4216,-3.4216,-3.4216,-3.4216,-3.4216,-3.4216,-3.4216,-3.4216,-3.4216,-3.4216,-3.4216,-3.4216,-3.4216,-3.4209,-3.4233,-3.4269,-3.4293,-3.4351,-3.4443,-3.4484,-3.4517,-3.4528,-3.4473,-3.4427,-3.4374,-3.4393,-3.4351,-3.4293,-3.4269,-3.4233,-3.4185,-3.4136,-3.4099,-3.4086,-3.4092,-3.4061,-3.4049,-3.4074,-3.4124,-3.4216,-3.4197,-3.4216,-3.4216,-3.4216,-3.4209,-3.4233,-3.4293,-3.4393,-3.4461,-3.4506,-3.4558,-3.4602,-3.4634,-3.4687,-3.4749,-3.4809,-3.4868,-3.4936,-3.5011,-3.5101,-3.5151,-3.5215,-3.5335,-3.5441,-3.5534,-3.5598,-3.561,-3.5639,-3.5693,-3.5704,-3.5704,-3.5704,-3.5704,-3.5704,-3.5704,-3.5704,-3.5704,-3.5709,-3.5709,-3.5707,-3.5708,-3.5722,-3.5765,-3.5811,-3.3698,-3.3807,-3.3807,-3.3807,-3.3807,-3.3807,-3.3807,-3.382,-3.3847,-3.3873,-3.3921,-3.3998,-3.4074,-3.4111,-3.4173,-3.4216,-3.4216,-3.4216,-3.4216,-3.4216,-3.4216,-3.4216,-3.4216,-3.4216,-3.4216,-3.4216,-3.4216,-3.4216,-3.4216,-3.4216,-3.4216,-3.4216,-3.4216,-3.4216,-3.4216,-3.4216,-3.4216,-3.4216,-3.4216,-3.4216,-3.4216,-3.4216,-3.4216,-3.4209,-3.4233,-3.4269,-3.4305,-3.4374,-3.442,-3.4495,-3.458,-3.4623,-3.4634,-3.4623,-3.455,-3.4484,-3.4461,-3.4409,-3.4363,-3.434,-3.4335,-3.4276,-3.4221,-3.4197,-3.4161,-3.4124,-3.4074,-3.4036,-3.4061,-3.4111,-3.4136,-3.4173,-3.4197,-3.4216,-3.4216,-3.4216,-3.4228,-3.4233,-3.4305,-3.4404,-3.4461,-3.4506,-3.4547,-3.4591,-3.4634,-3.4687,-3.4739,-3.4809,-3.4906,-3.5002,-3.5092,-3.516,-3.5223,-3.5342,-3.5455,-3.5547,-3.5604,-3.5616,-3.5639,-3.5693,-3.5704,-3.5704,-3.5704,-3.5704,-3.5704,-3.5704,-3.5704,-3.5704,-3.5704,-3.5709,-3.5713,-3.5708,-3.5718,-3.5765,-3.5811,-3.3689,-3.3807,-3.3807,-3.3807,-3.3807,-3.3807,-3.3807,-3.3807,-3.3807,-3.3815,-3.3881,-3.3947,-3.4011,-3.4086,-3.4161,-3.4216,-3.4216,-3.4216,-3.4216,-3.4216,-3.4216,-3.4216,-3.4216,-3.4216,-3.4216,-3.4216,-3.4216,-3.4216,-3.4216,-3.4216,-3.4216,-3.4216,-3.4216,-3.4216,-3.4216,-3.4216,-3.4216,-3.4216,-3.4216,-3.4216,-3.4216,-3.4216,-3.4209,-3.4221,-3.4269,-3.4323,-3.437,-3.4439,-3.4506,-3.4561,-3.4615,-3.4697,-3.4718,-3.4768,-3.4708,-3.4602,-3.4569,-3.4506,-3.4461,-3.4427,-3.4393,-3.4293,-3.4293,-3.4257,-3.4197,-3.4124,-3.4061,-3.4036,-3.4023,-3.4074,-3.4099,-3.4148,-3.4185,-3.4216,-3.4216,-3.4216,-3.4216,-3.4228,-3.4252,-3.4335,-3.4404,-3.4461,-3.4514,-3.4528,-3.4572,-3.4666,-3.4718,-3.4788,-3.4877,-3.5021,-3.511,-3.5176,-3.5258,-3.5357,-3.5462,-3.5554,-3.5604,-3.5622,-3.5651,-3.5698,-3.5704,-3.5704,-3.5704,-3.5704,-3.5704,-3.5704,-3.5704,-3.5709,-3.5715,-3.5711,-3.5703,-3.5728,-3.5747,-3.5778,-3.5819,-3.3689,-3.3807,-3.3807,-3.3807,-3.3807,-3.3807,-3.3807,-3.3807,-3.3807,-3.3807,-3.3834,-3.3881,-3.3947,-3.4049,-3.4148,-3.4197,-3.4216,-3.4216,-3.4216,-3.4216,-3.4216,-3.4216,-3.4216,-3.4216,-3.4216,-3.4216,-3.4216,-3.4216,-3.4216,-3.4216,-3.4216,-3.4216,-3.4216,-3.4216,-3.4216,-3.4216,-3.4216,-3.4216,-3.4216,-3.4216,-3.4216,-3.4216,-3.4233,-3.4269,-3.4305,-3.437,-3.445,-3.4495,-3.4539,-3.4655,-3.4676,-3.4737,-3.4778,-3.4788,-3.4788,-3.4758,-3.4716,-3.4645,-3.4591,-3.4528,-3.4431,-3.4351,-3.4335,-3.4269,-3.4197,-3.4099,-3.4036,-3.4086,-3.3998,-3.3985,-3.4061,-3.4111,-3.4136,-3.4173,-3.4197,-3.4197,-3.4216,-3.4216,-3.424,-3.4233,-3.4316,-3.4416,-3.4473,-3.4495,-3.4528,-3.4634,-3.4727,-3.4778,-3.4859,-3.5002,-3.5153,-3.5226,-3.5254,-3.5345,-3.5456,-3.5566,-3.5604,-3.5608,-3.5656,-3.5704,-3.5704,-3.5704,-3.5704,-3.5704,-3.5704,-3.5704,-3.5704,-3.5709,-3.5701,-3.5702,-3.5708,-3.5752,-3.5794,-3.5814,-3.5827,-3.3689,-3.3807,-3.3807,-3.3807,-3.3807,-3.3807,-3.3807,-3.3807,-3.3807,-3.3807,-3.382,-3.3887,-3.3959,-3.4061,-3.4161,-3.4216,-3.4216,-3.4216,-3.4216,-3.4216,-3.4216,-3.4216,-3.4216,-3.4216,-3.4216,-3.4216,-3.4216,-3.4216,-3.4216,-3.4216,-3.4216,-3.4216,-3.4216,-3.4216,-3.4216,-3.4216,-3.4216,-3.4216,-3.4216,-3.4216,-3.4216,-3.4209,-3.4233,-3.4305,-3.4328,-3.4397,-3.4484,-3.4539,-3.4594,-3.4687,-3.4718,-3.4788,-3.4858,-3.4868,-3.4859,-3.4859,-3.4829,-3.4768,-3.4685,-3.4634,-3.4528,-3.442,-3.4381,-3.4305,-3.4191,-3.4068,-3.4011,-3.4036,-3.3959,-3.3934,-3.3998,-3.4061,-3.4111,-3.4148,-3.4173,-3.4197,-3.4197,-3.4216,-3.4209,-3.4221,-3.4215,-3.4328,-3.4427,-3.4473,-3.4517,-3.4612,-3.4716,-3.4788,-3.4868,-3.4983,-3.5134,-3.5278,-3.5308,-3.5352,-3.5456,-3.5554,-3.5604,-3.5614,-3.5662,-3.5684,-3.5704,-3.5704,-3.5704,-3.5704,-3.5704,-3.5704,-3.5704,-3.5709,-3.5695,-3.5702,-3.5708,-3.5752,-3.578,-3.5799,-3.5818,-3.3671,-3.3807,-3.3807,-3.3807,-3.3807,-3.3807,-3.3807,-3.3807,-3.3807,-3.3807,-3.3834,-3.3868,-3.3972,-3.4074,-3.4136,-3.4204,-3.4216,-3.4216,-3.4216,-3.4216,-3.4216,-3.4216,-3.4216,-3.4216,-3.4216,-3.4216,-3.4216,-3.4216,-3.4216,-3.4216,-3.4216,-3.4216,-3.4216,-3.4216,-3.4216,-3.4216,-3.4216,-3.4216,-3.4216,-3.4216,-3.4197,-3.4203,-3.4269,-3.4316,-3.4374,-3.4461,-3.4517,-3.4572,-3.4655,-3.4737,-3.4788,-3.4839,-3.4888,-3.4898,-3.4889,-3.4908,-3.4898,-3.4839,-3.4758,-3.4687,-3.4634,-3.4528,-3.4409,-3.4305,-3.4209,-3.4086,-3.3998,-3.4011,-3.3908,-3.39,-3.3926,-3.3998,-3.4049,-3.4099,-3.4148,-3.4173,-3.4179,-3.4197,-3.4216,-3.4209,-3.4233,-3.4281,-3.4363,-3.442,-3.4506,-3.4602,-3.4706,-3.4798,-3.4907,-3.5011,-3.5134,-3.5297,-3.5315,-3.536,-3.5483,-3.5566,-3.5596,-3.562,-3.5668,-3.5684,-3.5704,-3.5704,-3.5704,-3.5704,-3.5704,-3.5704,-3.5704,-3.5709,-3.5701,-3.5713,-3.5723,-3.5742,-3.5769,-3.5788,-3.5836,-3.3671,-3.3807,-3.3807,-3.3807,-3.3807,-3.3807,-3.3807,-3.3807,-3.3807,-3.3807,-3.382,-3.3868,-3.3934,-3.4011,-3.4086,-3.4148,-3.4216,-3.4216,-3.4216,-3.4216,-3.4216,-3.4216,-3.4216,-3.4216,-3.4216,-3.4216,-3.4216,-3.4216,-3.4216,-3.4216,-3.4216,-3.4216,-3.4216,-3.4216,-3.4216,-3.4216,-3.4216,-3.4216,-3.4216,-3.4209,-3.4221,-3.4257,-3.4316,-3.4386,-3.4461,-3.4528,-3.4602,-3.4655,-3.4727,-3.4807,-3.4848,-3.4878,-3.4898,-3.4917,-3.4908,-3.4908,-3.4917,-3.4859,-3.4798,-3.4737,-3.4634,-3.4487,-3.4386,-3.4305,-3.4209,-3.4074,-3.4011,-3.3985,-3.3913,-3.386,-3.3887,-3.3921,-3.3985,-3.4036,-3.4099,-3.4136,-3.4173,-3.4197,-3.4216,-3.4216,-3.4233,-3.4269,-3.434,-3.4409,-3.4506,-3.4602,-3.4727,-3.4819,-3.4974,-3.5084,-3.516,-3.5273,-3.5293,-3.5374,-3.5541,-3.5604,-3.5616,-3.5645,-3.5673,-3.5684,-3.5704,-3.5704,-3.5704,-3.5704,-3.5704,-3.5704,-3.5626,-3.5419,-3.5358,-3.5611,-3.5713,-3.5751,-3.5806,-3.585,-3.5901,-3.3684,-3.3788,-3.3807,-3.3807,-3.3807,-3.3807,-3.3807,-3.3807,-3.3807,-3.3807,-3.3807,-3.3868,-3.3934,-3.3998,-3.4074,-3.4136,-3.4197,-3.4216,-3.4216,-3.4216,-3.4216,-3.4216,-3.4216,-3.4216,-3.4216,-3.4216,-3.4216,-3.4216,-3.4216,-3.4216,-3.4216,-3.4216,-3.4216,-3.4216,-3.4216,-3.4216,-3.4216,-3.4197,-3.4209,-3.4221,-3.4269,-3.4281,-3.4351,-3.4443,-3.4465,-3.455,-3.4645,-3.4676,-3.4768,-3.4848,-3.4877,-3.4898,-3.4917,-3.4908,-3.4908,-3.4908,-3.4908,-3.486,-3.4819,-3.4758,-3.4666,-3.4473,-3.4374,-3.4316,-3.4209,-3.4092,-3.4011,-3.3959,-3.39,-3.3834,-3.3847,-3.3887,-3.3934,-3.3967,-3.4018,-3.4086,-3.4136,-3.4173,-3.4197,-3.4197,-3.4221,-3.4239,-3.4328,-3.4386,-3.4495,-3.4602,-3.4718,-3.4859,-3.5002,-3.5119,-3.5185,-3.5266,-3.5293,-3.5367,-3.5509,-3.5566,-3.561,-3.5645,-3.5673,-3.5704,-3.5704,-3.5704,-3.5704,-3.5704,-3.553,-3.5317,-3.5123,-3.4949,-3.5034,-3.5345,-3.5587,-3.576,-3.5822,-3.5887,-3.5933,-3.3671,-3.3766,-3.3775,-3.3807,-3.3807,-3.3807,-3.3807,-3.3807,-3.3807,-3.3807,-3.3807,-3.3873,-3.3908,-3.3972,-3.4036,-3.4111,-3.4161,-3.4185,-3.4216,-3.4216,-3.4216,-3.4216,-3.4216,-3.4216,-3.4216,-3.4216,-3.4216,-3.4216,-3.4216,-3.4216,-3.4216,-3.4216,-3.4216,-3.4216,-3.4216,-3.4216,-3.4216,-3.4209,-3.4233,-3.4245,-3.4293,-3.434,-3.4386,-3.4506,-3.4539,-3.4594,-3.4687,-3.4747,-3.4827,-3.4877,-3.4907,-3.4917,-3.4917,-3.4908,-3.4908,-3.4908,-3.4898,-3.486,-3.4819,-3.4737,-3.4634,-3.445,-3.4416,-3.4316,-3.4228,-3.4086,-3.4011,-3.3985,-3.39,-3.3807,-3.3807,-3.3847,-3.3881,-3.3934,-3.3972,-3.4023,-3.4099,-3.4136,-3.4173,-3.4179,-3.4203,-3.4227,-3.4328,-3.4416,-3.4539,-3.4634,-3.4718,-3.4878,-3.503,-3.5127,-3.5187,-3.525,-3.53,-3.5388,-3.547,-3.5528,-3.561,-3.562,-3.5648,-3.5698,-3.5704,-3.5665,-3.5414,-3.5148,-3.4955,-3.4795,-3.4485,-3.4118,-3.4536,-3.5137,-3.5397,-3.5681,-3.5838,-3.5901,-3.5933,-3.3629,-3.373,-3.378,-3.3807,-3.3807,-3.3807,-3.3807,-3.3807,-3.3807,-3.3807,-3.3807,-3.382,-3.386,-3.3921,-3.3985,-3.4061,-3.4124,-3.4173,-3.4216,-3.4216,-3.4216,-3.4216,-3.4216,-3.4216,-3.4197,-3.4216,-3.4185,-3.4185,-3.4204,-3.4185,-3.4185,-3.4197,-3.4197,-3.4216,-3.4216,-3.4216,-3.4216,-3.4228,-3.4257,-3.4293,-3.4328,-3.4409,-3.4484,-3.4539,-3.4623,-3.4676,-3.4747,-3.4809,-3.4877,-3.4907,-3.4908,-3.4908,-3.4908,-3.4917,-3.4917,-3.4908,-3.4908,-3.4879,-3.4817,-3.4676,-3.4539,-3.4427,-3.4404,-3.4316,-3.4197,-3.4086,-3.3998,-3.3991,-3.3887,-3.382,-3.3807,-3.382,-3.386,-3.3887,-3.3926,-3.3991,-3.4049,-3.4111,-3.413,-3.4185,-3.4209,-3.4233,-3.4335,-3.4427,-3.4583,-3.4687,-3.4768,-3.4898,-3.5048,-3.5127,-3.517,-3.525,-3.5315,-3.5393,-3.5469,-3.5547,-3.559,-3.5601,-3.5585,-3.5582,-3.551,-3.538,-3.5071,-3.4607,-3.4292,-3.4079,-3.3634,-3.317,-3.381,-3.4468,-3.5226,-3.5589,-3.5764,-3.5889,-3.5919,-3.3629,-3.3698,-3.3762,-3.3807,-3.3807,-3.3807,-3.3807,-3.3807,-3.3807,-3.3807,-3.3807,-3.3807,-3.3847,-3.3908,-3.3954,-3.4036,-3.408,-3.4173,-3.4216,-3.4216,-3.4216,-3.4216,-3.4216,-3.4185,-3.4173,-3.4148,-3.4136,-3.4111,-3.4061,-3.4111,-3.4136,-3.4136,-3.4185,-3.4216,-3.4216,-3.4216,-3.4216,-3.4209,-3.4257,-3.4316,-3.4363,-3.4461,-3.4539,-3.4604,-3.4676,-3.4747,-3.4798,-3.4877,-3.4917,-3.4927,-3.4936,-3.4945,-3.4936,-3.4936,-3.4945,-3.4917,-3.4908,-3.486,-3.4769,-3.4645,-3.4506,-3.4427,-3.437,-3.4281,-3.4148,-3.4061,-3.3985,-3.3952,-3.3855,-3.382,-3.3807,-3.3807,-3.3834,-3.3829,-3.3868,-3.3934,-3.4011,-3.4074,-3.4105,-3.4173,-3.4209,-3.4269,-3.4358,-3.4427,-3.4561,-3.4697,-3.4778,-3.4907,-3.5057,-3.5101,-3.5153,-3.525,-3.5323,-3.5386,-3.5462,-3.5528,-3.545,-3.5384,-3.538,-3.5375,-3.5259,-3.4911,-3.435,-3.3731,-3.3518,-3.3305,-3.2808,-3.2547,-3.3127,-3.3783,-3.4613,-3.5422,-3.581,-3.5892,-3.5911,-3.3633,-3.3671,-3.3748,-3.3807,-3.3807,-3.3807,-3.3807,-3.3807,-3.3807,-3.3807,-3.3807,-3.3807,-3.3834,-3.3868,-3.3934,-3.3998,-3.4055,-3.4136,-3.4185,-3.4197,-3.4216,-3.4185,-3.4173,-3.4161,-3.4124,-3.4086,-3.4061,-3.4055,-3.4011,-3.4049,-3.4074,-3.4124,-3.4154,-3.4197,-3.4216,-3.4216,-3.4216,-3.4221,-3.4281,-3.4351,-3.4397,-3.4495,-3.4602,-3.4666,-3.4718,-3.4788,-3.4877,-3.4926,-3.4946,-3.4955,-3.4992,-3.503,-3.4992,-3.4964,-3.4992,-3.4964,-3.4888,-3.4849,-3.4759,-3.4572,-3.4443,-3.4397,-3.4328,-3.4233,-3.4124,-3.4036,-3.3972,-3.3908,-3.3829,-3.382,-3.3807,-3.3807,-3.3807,-3.382,-3.3847,-3.3913,-3.3959,-3.4005,-3.4086,-3.4136,-3.4209,-3.4281,-3.4363,-3.445,-3.4528,-3.4666,-3.4798,-3.4936,-3.5067,-3.5092,-3.5153,-3.5239,-3.5304,-3.536,-3.5435,-3.5515,-3.5393,-3.5186,-3.5054,-3.49,-3.4389,-3.3919,-3.3378,-3.2914,-3.272,-3.2454,-3.1961,-3.1946,-3.2768,-3.3458,-3.4108,-3.4902,-3.57,-3.5892,-3.5905,-3.3605,-3.3619,-3.3739,-3.3788,-3.3807,-3.3807,-3.3807,-3.3807,-3.3807,-3.3807,-3.3807,-3.3807,-3.382,-3.3815,-3.3868,-3.3934,-3.3998,-3.4074,-3.4124,-3.4161,-3.4179,-3.4136,-3.4111,-3.4099,-3.4061,-3.4023,-3.3998,-3.3985,-3.3985,-3.3998,-3.4023,-3.4099,-3.4148,-3.4185,-3.4197,-3.4216,-3.4216,-3.4233,-3.4316,-3.4363,-3.4409,-3.4528,-3.4634,-3.4697,-3.4768,-3.4819,-3.4888,-3.4936,-3.4974,-3.5011,-3.5066,-3.5084,-3.5075,-3.5029,-3.5011,-3.4964,-3.4859,-3.4819,-3.4749,-3.4561,-3.4431,-3.4386,-3.4316,-3.4221,-3.4124,-3.4011,-3.3947,-3.39,-3.3834,-3.382,-3.3807,-3.3807,-3.3807,-3.3807,-3.3807,-3.386,-3.3908,-3.3959,-3.4036,-3.4099,-3.4173,-3.4245,-3.4351,-3.445,-3.4506,-3.4676,-3.4819,-3.4917,-3.503,-3.5084,-3.5143,-3.5262,-3.5304,-3.5314,-3.5332,-3.5181,-3.4783,-3.4397,-3.4264,-3.4072,-3.3522,-3.2966,-3.2527,-3.2159,-3.1947,-3.1719,-3.1628,-3.1985,-3.268,-3.3346,-3.4244,-3.4886,-3.5836,-3.5882,-3.5898,-3.3567,-3.3619,-3.3684,-3.3734,-3.3807,-3.3807,-3.3807,-3.3807,-3.3807,-3.3807,-3.3807,-3.3807,-3.3807,-3.382,-3.3868,-3.3908,-3.3947,-3.4016,-3.4036,-3.4061,-3.4086,-3.403,-3.4036,-3.4023,-3.4004,-3.3965,-3.3939,-3.3908,-3.3881,-3.3913,-3.4016,-3.4086,-3.4124,-3.4148,-3.4185,-3.4216,-3.4216,-3.4252,-3.4347,-3.4374,-3.445,-3.4539,-3.4645,-3.4747,-3.4788,-3.4849,-3.4908,-3.4974,-3.5001,-3.502,-3.5101,-3.5147,-3.5092,-3.5075,-3.5057,-3.4946,-3.4849,-3.4788,-3.4758,-3.455,-3.4386,-3.4351,-3.4245,-3.4136,-3.4036,-3.3972,-3.3908,-3.3855,-3.3834,-3.382,-3.3807,-3.3807,-3.3807,-3.3807,-3.3807,-3.3847,-3.3868,-3.3921,-3.3985,-3.4086,-3.4161,-3.4257,-3.4351,-3.4397,-3.4495,-3.4687,-3.4839,-3.4908,-3.5011,-3.5075,-3.4961,-3.5059,-3.5054,-3.4961,-3.4653,-3.4462,-3.4,-3.3594,-3.3462,-3.3167,-3.2526,-3.2033,-3.1671,-3.1657,-3.1811,-3.1773,-3.1657,-3.2295,-3.3343,-3.4029,-3.485,-3.5356,-3.5774,-3.5843,-3.5905,-3.3534,-3.3587,-3.3671,-3.3739,-3.3807,-3.3807,-3.3807,-3.3807,-3.3807,-3.3807,-3.3807,-3.3807,-3.3807,-3.382,-3.3829,-3.3868,-3.3908,-3.3947,-3.3985,-3.4011,-3.3998,-3.3985,-3.3991,-3.3947,-3.3939,-3.39,-3.3873,-3.3842,-3.3815,-3.3855,-3.3959,-3.4011,-3.4061,-3.4111,-3.4167,-3.4204,-3.4216,-3.4264,-3.4323,-3.4374,-3.4461,-3.4569,-3.4706,-3.4778,-3.4827,-3.4878,-3.4946,-3.5001,-3.5029,-3.5056,-3.5181,-3.5179,-3.5136,-3.5119,-3.5048,-3.4936,-3.484,-3.4788,-3.4727,-3.4539,-3.4409,-3.4316,-3.4185,-3.4055,-3.3998,-3.3947,-3.3868,-3.3815,-3.382,-3.3807,-3.3807,-3.3807,-3.3807,-3.3807,-3.382,-3.3815,-3.3842,-3.3881,-3.3972,-3.4086,-3.4173,-3.4269,-3.4328,-3.4363,-3.4484,-3.4687,-3.4829,-3.4917,-3.5002,-3.5075,-3.4814,-3.4634,-3.4587,-3.4494,-3.4115,-3.3641,-3.3192,-3.2786,-3.2559,-3.2163,-3.1553,-3.1361,-3.1294,-3.1574,-3.1947,-3.2063,-3.2314,-3.333,-3.4298,-3.4844,-3.518,-3.5574,-3.582,-3.5859,-3.5925,-3.3534,-3.3587,-3.3652,-3.3734,-3.3807,-3.3807,-3.3807,-3.3807,-3.3807,-3.3807,-3.3807,-3.3807,-3.3807,-3.3807,-3.382,-3.3829,-3.3855,-3.3895,-3.3908,-3.3985,-3.3959,-3.3952,-3.3895,-3.3881,-3.3855,-3.3834,-3.382,-3.3802,-3.3815,-3.3842,-3.3881,-3.3908,-3.4005,-3.4099,-3.4124,-3.4173,-3.4197,-3.4221,-3.4305,-3.4374,-3.445,-3.458,-3.4727,-3.4807,-3.4858,-3.4926,-3.5002,-3.5066,-3.5129,-3.5162,-3.5196,-3.5193,-3.517,-3.5136,-3.5029,-3.4927,-3.4839,-3.4749,-3.4666,-3.4506,-3.4386,-3.4269,-3.4124,-3.4018,-3.3985,-3.3908,-3.3847,-3.382,-3.3807,-3.3807,-3.3807,-3.3807,-3.3807,-3.3807,-3.382,-3.382,-3.3834,-3.3868,-3.3947,-3.4049,-3.4136,-3.4233,-3.4351,-3.4397,-3.4506,-3.4697,-3.4819,-3.4898,-3.5002,-3.5084,-3.4765,-3.4373,-3.428,-3.4052,-3.3173,-3.273,-3.2352,-3.2017,-3.1746,-3.1441,-3.0986,-3.093,-3.0994,-3.1738,-3.2604,-3.2952,-3.3388,-3.4265,-3.4817,-3.4971,-3.5316,-3.5714,-3.5862,-3.5891,-3.5936,-3.3495,-3.3619,-3.3726,-3.3793,-3.3788,-3.3807,-3.3807,-3.3807,-3.3807,-3.3807,-3.3807,-3.3807,-3.3807,-3.3807,-3.3807,-3.3834,-3.3834,-3.3829,-3.3847,-3.3873,-3.3873,-3.3887,-3.3847,-3.3829,-3.3802,-3.382,-3.3807,-3.3807,-3.382,-3.3834,-3.386,-3.3895,-3.3985,-3.4036,-3.4099,-3.4161,-3.4197,-3.4209,-3.4281,-3.4351,-3.4427,-3.4528,-3.4666,-3.4758,-3.4829,-3.4907,-3.4974,-3.5066,-3.5138,-3.5181,-3.5185,-3.5168,-3.5127,-3.5101,-3.503,-3.4936,-3.4848,-3.4747,-3.4623,-3.4495,-3.4381,-3.4257,-3.4117,-3.4049,-3.3972,-3.3887,-3.3834,-3.382,-3.3807,-3.3807,-3.3807,-3.3807,-3.3807,-3.3807,-3.3807,-3.3807,-3.3807,-3.3873,-3.3934,-3.4011,-3.4086,-3.4209,-3.434,-3.4461,-3.4561,-3.4666,-3.4758,-3.4859,-3.5002,-3.5072,-3.4707,-3.4351,-3.4139,-3.3714,-3.2615,-3.191,-3.1608,-3.1268,-3.0997,-3.0706,-3.0497,-3.1286,-3.2037,-3.271,-3.3378,-3.3808,-3.4283,-3.4885,-3.5296,-3.5311,-3.5441,-3.5802,-3.5895,-3.5922,-3.5965,-3.3448,-3.3559,-3.3698,-3.378,-3.3807,-3.3807,-3.3807,-3.3807,-3.3807,-3.3807,-3.3807,-3.3807,-3.3807,-3.3807,-3.3807,-3.3807,-3.3807,-3.3807,-3.382,-3.3807,-3.3807,-3.382,-3.3807,-3.3807,-3.3807,-3.3807,-3.3807,-3.3807,-3.3807,-3.3807,-3.3834,-3.3855,-3.3921,-3.3998,-3.4061,-3.4124,-3.4173,-3.4216,-3.4288,-3.4347,-3.4397,-3.4528,-3.4666,-3.4768,-3.4839,-3.4917,-3.5011,-3.5084,-3.5127,-3.5179,-3.5193,-3.516,-3.5127,-3.5101,-3.502,-3.4917,-3.4819,-3.4737,-3.4591,-3.4461,-3.4358,-3.4209,-3.4093,-3.4011,-3.3934,-3.3873,-3.382,-3.3807,-3.3807,-3.3807,-3.3807,-3.3807,-3.3807,-3.3807,-3.3807,-3.3807,-3.3834,-3.3855,-3.3921,-3.3998,-3.4086,-3.4197,-3.4316,-3.4397,-3.4528,-3.4697,-3.4788,-3.4878,-3.5011,-3.5062,-3.4697,-3.4316,-3.4074,-3.2966,-3.152,-3.1058,-3.0948,-3.0608,-3.0498,-3.0785,-3.116,-3.2271,-3.3197,-3.3691,-3.4223,-3.4775,-3.528,-3.5485,-3.5563,-3.5558,-3.5678,-3.5878,-3.5927,-3.595,-3.5992,-3.3455,-3.352,-3.3661,-3.3739,-3.3807,-3.3807,-3.3807,-3.3807,-3.3807,-3.3807,-3.3807,-3.3807,-3.3807,-3.3807,-3.3807,-3.3807,-3.3807,-3.3807,-3.3807,-3.3807,-3.3807,-3.3807,-3.3807,-3.3807,-3.3807,-3.3807,-3.3807,-3.3807,-3.3807,-3.3807,-3.382,-3.3802,-3.3868,-3.3934,-3.3998,-3.4061,-3.4136,-3.4197,-3.4257,-3.4316,-3.4416,-3.4517,-3.4655,-3.4768,-3.4868,-3.4965,-3.5039,-3.5101,-3.5145,-3.516,-3.5193,-3.5151,-3.5108,-3.5092,-3.4993,-3.4917,-3.4838,-3.4687,-3.4528,-3.4439,-3.4281,-3.4148,-3.4049,-3.3972,-3.3908,-3.3842,-3.382,-3.3807,-3.3807,-3.3807,-3.3807,-3.3807,-3.3807,-3.3807,-3.3807,-3.3807,-3.3815,-3.3855,-3.3921,-3.3985,-3.4068,-3.4166,-3.4305,-3.4374,-3.4517,-3.4697,-3.4849,-3.4927,-3.5001,-3.4985,-3.4803,-3.4328,-3.3928,-3.2531,-3.0988,-3.0654,-3.075,-3.0923,-3.0993,-3.1318,-3.1881,-3.2968,-3.3876,-3.4472,-3.5005,-3.5336,-3.5518,-3.5626,-3.5694,-3.5718,-3.5803,-3.5885,-3.5911,-3.5936,-3.5997,-3.3462,-3.3591,-3.3657,-3.3739,-3.3807,-3.3807,-3.3807,-3.3807,-3.3807,-3.3807,-3.3807,-3.3807,-3.3807,-3.3807,-3.3807,-3.3807,-3.3807,-3.3807,-3.3807,-3.3807,-3.3807,-3.3807,-3.3807,-3.3807,-3.3807,-3.3807,-3.3807,-3.3807,-3.3807,-3.3807,-3.3807,-3.382,-3.3855,-3.3921,-3.3998,-3.4061,-3.4124,-3.4173,-3.4209,-3.4257,-3.434,-3.4473,-3.4623,-3.4737,-3.4798,-3.4907,-3.4983,-3.5066,-3.5119,-3.517,-3.5185,-3.517,-3.5127,-3.5084,-3.4993,-3.4868,-3.4817,-3.4655,-3.4517,-3.4439,-3.4281,-3.4111,-3.4023,-3.3941,-3.3895,-3.3829,-3.382,-3.3807,-3.3807,-3.3807,-3.3807,-3.3807,-3.3807,-3.3807,-3.3807,-3.3807,-3.382,-3.3829,-3.3881,-3.3928,-3.4018,-3.4166,-3.4351,-3.4431,-3.4517,-3.4687,-3.4791,-3.4898,-3.5057,-3.4975,-3.4909,-3.4454,-3.3966,-3.2941,-3.1776,-3.1019,-3.0962,-3.1192,-3.1641,-3.2236,-3.2896,-3.3708,-3.449,-3.4971,-3.5276,-3.5554,-3.5678,-3.5703,-3.5742,-3.575,-3.5823,-3.5889,-3.5917,-3.5941,-3.6001]},{"header":{"parameterUnit":"m.s-1","parameterCategory":1,"la1":31.0,"la2":29.5877,"lo1":-88.7671,"lo2":-86.6584,"dy":0.0162,"dx":0.0185,"nx":115,"ny":88,"refTime":"2024-07-19T00:00:00:Z","depth":0,"parameterNumber":3,"parameterNumberName":"V-component_of_WINDS"},"data":[0.0,0.0,0.0,0.0,0.0,0.0,0.0,0.0,0.0,0.0,0.0,0.0,0.0,0.0,0.0,0.0,0.0,0.0,0.0,0.0,0.0,0.0,0.0,0.0,0.0,0.0,0.0,0.0,0.0,0.0,0.0,0.0,0.0,0.0,0.0,0.0,0.0,0.0,0.0,0.0,0.0,0.0,0.0,0.0,0.0,0.0,0.0,0.0,0.0,0.0,0.0,0.0,0.0,0.0,0.0,0.0,0.0,0.0,0.0,0.0,0.0,0.0,0.0,0.0,0.0,0.0,0.0,0.0,0.0,0.0,0.0,0.0,0.0,0.0,0.0,0.0,0.0,0.0,0.0,0.0,0.0,0.0,0.0,0.0,0.0,0.0,0.0,0.0,0.0,0.0,0.0,0.0,0.0,0.0,0.0,0.0,0.0,0.0,0.0,0.0,0.0,0.0,0.0,0.0,0.0,0.0,0.0,0.0,0.0,0.0,0.0,0.0,0.0,0.0,0.0,0.0,0.0,0.0,0.0,0.0,0.0,0.0,0.0,0.0,0.0,0.0,0.0,0.0,0.0,0.0,0.0,0.0,0.0,0.0,0.0,0.0,0.0,0.0,0.0,0.0,0.0,0.0,0.0,0.0,0.0,0.0,0.0,0.0,0.0,0.0,0.0,0.0,0.0,0.0,0.0,0.0,0.0,0.0,0.0,0.0,0.0,0.0,0.0,0.0,0.0,0.0,0.0,0.0,0.0,0.0,0.0,0.0,0.0,0.0,0.0,0.0,0.0,0.0,0.0,0.0,0.0,0.0,0.0,0.0,0.0,0.0,0.0,0.0,0.0,0.0,0.0,0.0,0.0,0.0,0.0,0.0,0.0,0.0,0.0,0.0,0.0,0.0,0.0,0.0,0.0,0.0,0.0,0.0,0.0,0.0,0.0,0.0,0.0,0.0,0.0,0.0,0.0,0.0,0.0,0.0,0.0,0.0,0.0,0.0,0.0,0.0,0.0,0.0,0.0,0.0,0.0,0.0,0.0,0.0,0.0,0.0,0.0,0.0,0.0,0.0,0.0,0.0,0.0,0.0,0.0,0.0,0.0,0.0,0.0,0.0,0.0,0.0,0.0,0.0,0.0,0.0,0.0,0.0,0.0,0.0,0.0,0.0,0.0,0.0,0.0,0.0,0.0,0.0,0.0,0.0,0.0,0.0,0.0,0.0,0.0,0.0,0.0,0.0,0.0,0.0,0.0,0.0,0.0,0.0,0.0,0.0,0.0,0.0,0.0,0.0,0.0,0.0,0.0,0.0,0.0,0.0,0.0,0.0,0.0,0.0,0.0,0.0,0.0,0.0,0.0,0.0,0.0,0.0,0.0,0.0,0.0,0.0,0.0,0.0,0.0,0.0,0.0,0.0,0.0,0.0,0.0,0.0,0.0,0.0,0.0,0.0,0.0,0.0,0.0,0.0,0.0,0.0,0.0,0.0,0.0,0.0,0.0,0.0,0.0,0.0,0.0,0.0,0.0,0.0,0.0,0.0,0.0,0.0,0.0,0.0,0.0,0.0,0.0,0.0,0.0,0.0,0.0,0.0,0.0,0.0,0.0,0.0,0.0,0.0,0.0,0.0,0.0,0.0,0.0,0.0,0.0,0.0,0.0,0.0,0.0,0.0,0.0,0.0,0.0,0.0,0.0,0.0,0.0,0.0,0.0,0.0,0.0,0.0,0.0,0.0,0.0,0.0,0.0,0.0,0.0,0.0,0.0,0.0,0.0,0.0,0.0,0.0,0.0,0.0,0.0,0.0,0.0,0.0,0.0,0.0,0.0,0.0,0.0,0.0,0.0,0.0,0.0,0.0,0.0,0.0,0.0,0.0,0.0,0.0,0.0,0.0,0.0,0.0,0.0,0.0,0.0,0.0,0.0,0.0,0.0,0.0,0.0,0.0,0.0,0.0,0.0,0.0,0.0,0.0,0.0,0.0,0.0,0.0,0.0,0.0,0.0,0.0,0.0,0.0,0.0,0.0,0.0,0.0,0.0,0.0,0.0,0.0,0.0,0.0,0.0,0.0,0.0,0.0,0.0,0.0,0.0,0.0,0.0,0.0,0.0,0.0,0.0,0.0,0.0,0.0,0.0,0.0,0.0,0.0,0.0,0.0,0.0,0.0,0.0,0.0,0.0,0.0,0.0,0.0,0.0,0.0,0.0,0.0,0.0,0.0,0.0,0.0,0.0,0.0,0.0,0.0,0.0,0.0,0.0,0.0,0.0,0.0,0.0,0.0,0.0,0.0,0.0,0.0,0.0,0.0,0.0,0.0,0.0,0.0,0.0,0.0,0.0,0.0,0.0,0.0,0.0,0.0,0.0,0.0,0.0,0.0,0.0,0.0,0.0,0.0,0.0,0.0,0.0,0.0,0.0,0.0,0.0,0.0,0.0,0.0,0.0,0.0,0.0,0.0,0.0,0.0,0.0,0.0,0.0,0.0,0.0,0.0,0.0,0.0,0.0,0.0,0.0,0.0,0.0,0.0,0.0,0.0,0.0,0.0,0.0,0.0,0.0,0.0,0.0,0.0,0.0,0.0,0.0,0.0,0.0,0.0,0.0,0.0,0.0,0.0,0.0,0.0,0.0,0.0,0.0,0.0,0.0,0.0,0.0,0.0,0.0,0.0,0.0,0.0,0.0,0.0,0.0,0.0,0.0,0.0,0.0,0.0,0.0,0.0,0.0,0.0,0.0,0.0,0.0,0.0,0.0,0.0,0.0,0.0,0.0,0.0,0.0,0.0,0.0,0.0,0.0,0.0,0.0,0.0,0.0,0.0,0.0,0.0,0.0,0.0,0.0,0.0,0.0,0.0,0.0,0.0,0.0,0.0,0.0,0.0,0.0,0.0,0.0,0.0,0.0,0.0,0.0,0.0,0.0,0.0,0.0,0.0,0.0,0.0,0.0,0.0,0.0,0.0,0.0,0.0,0.0,0.0,0.0,0.0,0.0,0.0,0.0,0.0,0.0,0.0,0.0,0.0,0.0,0.0,0.0,0.0,0.0,0.0,0.0,0.0,0.0,0.0,0.0,0.0,0.0,0.0,0.0,0.0,0.0,0.0,0.0,0.0,0.0,0.0,0.0,0.0,0.0,0.0,0.0,0.0,0.0,0.0,0.0,0.0,0.0,0.0,0.0,0.0,0.0,0.0,0.0,0.0,0.0,0.0,0.0,0.0,0.0,0.0,0.0,0.0,0.0,0.0,0.0,0.0,0.0,0.0,0.0,0.0,0.0,0.0,0.0,0.0,0.0,0.0,0.0,0.0,0.0,0.0,0.0,0.0,0.0,0.0,0.0,0.0,0.0,0.0,0.0,0.0,0.0,0.0,0.0,0.0,0.0,0.0,0.0,0.0,0.0,0.0,0.0,0.0,0.0,0.0,0.0,0.0,0.0,0.0,0.0,0.0,0.0,0.0,0.0,0.0,0.0,0.0,0.0,0.0,0.0,0.0,0.0,0.0,0.0,0.0,0.0,0.0,0.0,0.0,0.0,0.0,0.0,0.0,0.0,0.0,0.0,0.0,0.0,0.0,0.0,0.0,0.0,0.0,0.0,0.0,0.0,0.0,0.0,0.0,0.0,0.0,0.0,0.0,0.0,0.0,0.0,0.0,0.0,0.0,0.0,0.0,0.0,0.0,0.0,0.0,0.0,0.0,0.0,0.0,0.0,0.0,0.0,0.0,0.0,0.0,0.0,0.0,0.0,0.0,0.0,0.0,0.0,0.0,0.0,0.0,0.0,0.0,0.0,0.0,0.0,0.0,0.0,0.0,0.0,0.0,0.0,0.0,0.0,0.0,0.0,0.0,0.0,0.0,0.0,0.0,0.0,0.0,0.0,0.0,0.0,0.0,0.0,0.0,0.0,0.0,0.0,0.0,0.0,0.0,0.0,0.0,0.0,0.0,0.0,0.0,0.0,0.0,0.0,0.0,0.0,0.0,0.0,0.0,0.0,0.0,0.0,0.0,0.0,0.0,0.0,0.0,0.0,0.0,0.0,0.0,0.0,0.0,0.0,0.0,0.0,0.0,0.0,0.0,0.0,0.0,0.0,0.0,0.0,0.0,0.0,0.0,0.0,0.0,0.0,0.0,0.0,0.0,0.0,0.0,0.0,0.0,0.0,0.0,0.0,0.0,0.0,0.0,0.0,0.0,0.0,0.0,0.0,0.0,0.0,0.0,0.0,0.0,0.0,0.0,0.0,0.0,0.0,0.0,0.0,0.0,0.0,0.0,0.0,0.0,-0.4891,0.0,0.0,0.0,0.0,0.0,0.0,0.0,0.0,0.0,0.0,0.0,0.0,0.0,0.0,0.0,0.0,0.0,0.0,0.0,0.0,0.0,0.0,0.0,0.0,0.0,0.0,0.0,0.0,0.0,0.0,0.0,0.0,0.0,0.0,0.0,0.0,0.0,0.0,0.0,0.0,0.0,0.0,0.0,0.0,0.0,0.0,0.0,0.0,0.0,0.0,0.0,0.0,0.0,0.0,0.0,0.0,0.0,0.0,0.0,0.0,0.0,0.0,0.0,0.0,0.0,0.0,0.0,0.0,0.0,0.0,0.0,0.0,0.0,0.0,0.0,0.0,0.0,0.0,0.0,0.0,0.0,0.0,0.0,0.0,0.0,0.0,0.0,0.0,0.0,0.0,0.0,0.0,0.0,0.0,0.0,0.0,0.0,0.0,0.0,0.0,0.0,0.0,0.0,0.0,0.0,0.0,0.0,0.0,0.0,0.0,-0.5395,-0.5392,-0.5324,-0.5186,-0.5036,0.0,0.0,0.0,0.0,0.0,0.0,0.0,0.0,0.0,0.0,0.0,0.0,0.0,0.0,0.0,0.0,0.0,0.0,0.0,0.0,0.0,0.0,0.0,0.0,0.0,0.0,0.0,0.0,0.0,0.0,0.0,0.0,0.0,0.0,0.0,0.0,0.0,0.0,0.0,0.0,0.0,0.0,0.0,0.0,0.0,0.0,0.0,0.0,0.0,0.0,0.0,0.0,0.0,0.0,0.0,0.0,0.0,0.0,0.0,0.0,0.0,0.0,0.0,0.0,0.0,0.0,0.0,0.0,0.0,0.0,0.0,0.0,0.0,0.0,0.0,0.0,0.0,0.0,0.0,0.0,0.0,0.0,0.0,0.0,0.0,0.0,0.0,0.0,0.0,0.0,0.0,0.0,0.0,0.0,0.0,0.0,0.0,0.0,0.0,0.0,0.0,0.0,0.0,0.0,0.0,0.0,0.0,0.0,0.0,0.0,0.0,0.0,-0.5446,-0.5373,-0.5182,0.0,0.0,0.0,0.0,0.0,0.0,0.0,0.0,0.0,0.0,0.0,0.0,0.0,0.0,0.0,0.0,0.0,0.0,0.0,0.0,0.0,0.0,0.0,0.0,0.0,0.0,0.0,0.0,0.0,0.0,0.0,0.0,0.0,0.0,0.0,0.0,0.0,0.0,0.0,0.0,0.0,0.0,0.0,0.0,0.0,0.0,0.0,0.0,0.0,0.0,0.0,0.0,0.0,0.0,0.0,0.0,0.0,0.0,0.0,0.0,0.0,0.0,0.0,0.0,0.0,0.0,0.0,0.0,0.0,0.0,0.0,0.0,0.0,0.0,0.0,0.0,0.0,0.0,0.0,0.0,0.0,0.0,0.0,0.0,0.0,0.0,0.0,0.0,0.0,0.0,0.0,0.0,0.0,0.0,0.0,0.0,0.0,0.0,0.0,0.0,0.0,0.0,0.0,0.0,0.0,0.0,0.0,0.0,0.0,0.0,-0.5701,-0.5572,-0.5603,0.0,-0.5364,0.0,0.0,0.0,0.0,0.0,0.0,0.0,0.0,0.0,0.0,0.0,0.0,0.0,0.0,0.0,0.0,0.0,0.0,0.0,0.0,0.0,0.0,0.0,0.0,0.0,0.0,0.0,0.0,0.0,0.0,0.0,0.0,0.0,0.0,0.0,0.0,0.0,0.0,0.0,0.0,0.0,0.0,0.0,0.0,0.0,0.0,0.0,0.0,0.0,0.0,0.0,0.0,0.0,0.0,0.0,0.0,0.0,0.0,0.0,0.0,0.0,0.0,0.0,0.0,0.0,0.0,0.0,0.0,0.0,0.0,0.0,0.0,0.0,0.0,0.0,0.0,0.0,0.0,0.0,0.0,0.0,0.0,0.0,0.0,0.0,0.0,0.0,0.0,0.0,0.0,0.0,0.0,0.0,0.0,0.0,0.0,0.0,0.0,0.0,0.0,0.0,0.0,0.0,0.0,0.0,0.0,0.0,0.0,0.0,0.0,-0.5772,-0.5715,-0.5734,-0.5608,0.0,0.0,0.0,0.0,0.0,0.0,0.0,0.0,0.0,0.0,0.0,0.0,0.0,0.0,0.0,0.0,0.0,0.0,0.0,0.0,0.0,0.0,0.0,0.0,0.0,0.0,0.0,0.0,0.0,0.0,0.0,0.0,0.0,0.0,0.0,0.0,0.0,0.0,0.0,0.0,0.0,0.0,0.0,0.0,0.0,0.0,0.0,0.0,0.0,0.0,0.0,0.0,0.0,0.0,0.0,0.0,0.0,0.0,0.0,0.0,0.0,0.0,0.0,0.0,0.0,0.0,0.0,0.0,0.0,0.0,0.0,0.0,0.0,0.0,0.0,0.0,0.0,0.0,0.0,0.0,0.0,0.0,0.0,0.0,0.0,0.0,0.0,0.0,0.0,0.0,0.0,0.0,0.0,0.0,0.0,0.0,0.0,0.0,0.0,0.0,0.0,0.0,0.0,0.0,0.0,0.0,0.0,0.0,0.0,0.0,-0.583,-0.5888,-0.58,-0.5867,-0.5737,-0.5422,0.0,0.0,0.0,0.0,0.0,0.0,0.0,0.0,0.0,0.0,0.0,0.0,0.0,0.0,0.0,0.0,0.0,0.0,0.0,0.0,0.0,0.0,0.0,0.0,0.0,0.0,0.0,0.0,0.0,0.0,0.0,0.0,0.0,0.0,0.0,0.0,0.0,0.0,0.0,0.0,0.0,0.0,0.0,0.0,0.0,0.0,0.0,0.0,0.0,0.0,0.0,0.0,0.0,0.0,0.0,0.0,0.0,0.0,0.0,0.0,0.0,0.0,0.0,0.0,0.0,0.0,0.0,0.0,0.0,0.0,0.0,0.0,0.0,0.0,0.0,0.0,0.0,0.0,0.0,0.0,0.0,0.0,0.0,0.0,0.0,0.0,0.0,0.0,0.0,0.0,0.0,0.0,0.0,0.0,0.0,0.0,0.0,0.0,0.0,0.0,0.0,0.0,0.0,0.0,0.0,0.0,0.0,0.0,-0.58,-0.6115,-0.6136,-0.581,-0.5979,-0.5877,0.0,0.0,0.0,0.0,0.0,0.0,0.0,0.0,0.0,0.0,0.0,0.0,0.0,0.0,0.0,0.0,0.0,0.0,0.0,0.0,0.0,0.0,0.0,0.0,0.0,0.0,0.0,0.0,0.0,0.0,0.0,0.0,0.0,0.0,0.0,0.0,0.0,0.0,0.0,0.0,0.0,0.0,0.0,0.0,0.0,0.0,0.0,0.0,0.0,0.0,0.0,0.0,0.0,0.0,0.0,0.0,0.0,0.0,0.0,0.0,0.0,0.0,0.0,0.0,0.0,0.0,0.0,0.0,0.0,0.0,0.0,0.0,0.0,0.0,0.0,0.0,0.0,0.0,0.0,0.0,0.0,0.0,0.0,0.0,0.0,0.0,0.0,0.0,0.0,0.0,0.0,0.0,0.0,0.0,0.0,0.0,0.0,0.0,0.0,0.0,0.0,0.0,0.0,0.0,0.0,0.0,0.0,0.0,0.0,-0.5803,-0.6006,-0.6088,-0.5993,-0.6088,-0.5907,0.0,0.0,0.0,0.0,0.0,0.0,0.0,0.0,0.0,0.0,0.0,0.0,0.0,0.0,0.0,0.0,0.0,0.0,0.0,0.0,0.0,0.0,0.0,0.0,0.0,0.0,0.0,0.0,0.0,0.0,0.0,0.0,0.0,0.0,0.0,0.0,0.0,0.0,0.0,0.0,0.0,0.0,0.0,0.0,0.0,0.0,0.0,0.0,0.0,0.0,0.0,0.0,0.0,0.0,0.0,0.0,0.0,0.0,0.0,0.0,0.0,0.0,0.0,0.0,0.0,0.0,0.0,0.0,0.0,0.0,0.0,0.0,0.0,0.0,0.0,0.0,0.0,0.0,0.0,0.0,0.0,0.0,0.0,0.0,0.0,0.0,0.0,0.0,0.0,0.0,0.0,0.0,0.0,0.0,0.0,0.0,0.0,0.0,0.0,0.0,0.0,0.0,0.0,0.0,0.0,0.0,0.0,0.0,0.0,-0.5975,0.0,-0.6103,0.0,-0.6159,-0.6006,0.0,0.0,0.0,0.0,0.0,0.0,0.0,0.0,0.0,0.0,0.0,0.0,0.0,0.0,0.0,0.0,0.0,0.0,0.0,0.0,0.0,0.0,0.0,0.0,0.0,0.0,0.0,0.0,0.0,0.0,0.0,0.0,0.0,0.0,0.0,0.0,0.0,0.0,0.0,0.0,0.0,0.0,0.0,0.0,0.0,0.0,0.0,0.0,0.0,0.0,0.0,0.0,0.0,0.0,0.0,0.0,0.0,0.0,0.0,0.0,0.0,0.0,0.0,0.0,0.0,0.0,0.0,0.0,0.0,0.0,0.0,0.0,0.0,0.0,0.0,0.0,0.0,0.0,0.0,0.0,0.0,0.0,0.0,0.0,0.0,0.0,0.0,0.0,0.0,0.0,0.0,0.0,0.0,0.0,0.0,0.0,0.0,0.0,0.0,0.0,0.0,0.0,0.0,0.0,0.0,0.0,0.0,0.0,-0.6379,-0.629,-0.6297,-0.6231,-0.6115,-0.6268,-0.616,0.0,0.0,0.0,0.0,0.0,0.0,0.0,0.0,0.0,0.0,0.0,0.0,0.0,0.0,0.0,0.0,0.0,0.0,0.0,0.0,0.0,0.0,0.0,0.0,0.0,0.0,0.0,0.0,0.0,0.0,0.0,0.0,0.0,0.0,0.0,0.0,0.0,0.0,0.0,0.0,0.0,0.0,0.0,0.0,0.0,0.0,0.0,0.0,0.0,0.0,0.0,0.0,0.0,0.0,0.0,0.0,0.0,0.0,0.0,0.0,0.0,0.0,0.0,0.0,0.0,0.0,0.0,0.0,0.0,0.0,0.0,0.0,0.0,0.0,0.0,0.0,0.0,0.0,0.0,0.0,0.0,0.0,0.0,0.0,0.0,0.0,0.0,0.0,0.0,0.0,0.0,0.0,0.0,0.0,0.0,0.0,0.0,0.0,0.0,0.0,0.0,0.0,0.0,0.0,0.0,0.0,0.0,0.0,0.0,-0.617,-0.6178,-0.6186,-0.6306,-0.6259,-0.6163,0.0,0.0,0.0,0.0,0.0,0.0,0.0,0.0,0.0,0.0,0.0,0.0,0.0,0.0,0.0,0.0,0.0,0.0,0.0,0.0,0.0,0.0,0.0,0.0,0.0,0.0,0.0,0.0,0.0,0.0,0.0,0.0,0.0,0.0,0.0,0.0,0.0,0.0,0.0,0.0,0.0,0.0,0.0,0.0,0.0,0.0,0.0,0.0,0.0,0.0,0.0,0.0,0.0,0.0,0.0,0.0,0.0,0.0,0.0,0.0,0.0,0.0,0.0,0.0,0.0,0.0,0.0,0.0,0.0,0.0,0.0,0.0,0.0,0.0,0.0,0.0,0.0,0.0,0.0,0.0,0.0,0.0,0.0,0.0,0.0,0.0,0.0,0.0,0.0,0.0,0.0,0.0,0.0,0.0,0.0,0.0,0.0,0.0,0.0,0.0,0.0,0.0,0.0,0.0,0.0,0.0,0.0,0.0,0.0,-0.621,-0.6214,-0.6286,-0.6413,-0.6307,-0.6266,-0.6184,0.0,0.0,0.0,0.0,0.0,0.0,0.0,0.0,0.0,0.0,0.0,0.0,0.0,0.0,0.0,0.0,0.0,0.0,0.0,0.0,0.0,0.0,0.0,0.0,0.0,0.0,0.0,0.0,0.0,0.0,0.0,0.0,0.0,0.0,0.0,0.0,0.0,0.0,0.0,0.0,0.0,0.0,0.0,0.0,0.0,0.0,0.0,0.0,0.0,0.0,0.0,0.0,0.0,0.0,0.0,0.0,0.0,0.0,0.0,0.0,0.0,0.0,0.0,0.0,0.0,0.0,0.0,0.0,0.0,0.0,0.0,0.0,0.0,0.0,0.0,0.0,0.0,0.0,0.0,0.0,0.0,0.0,0.0,0.0,0.0,0.0,0.0,0.0,0.0,0.0,0.0,0.0,0.0,0.0,0.0,0.0,0.0,0.0,0.0,0.0,0.0,0.0,0.0,0.0,0.0,0.0,0.0,0.0,-0.6436,-0.6424,-0.6391,-0.6424,-0.642,-0.6339,0.0,0.0,0.0,0.0,0.0,0.0,0.0,0.0,0.0,0.0,0.0,0.0,0.0,0.0,0.0,0.0,0.0,0.0,0.0,0.0,0.0,0.0,0.0,0.0,0.0,0.0,0.0,0.0,0.0,0.0,0.0,0.0,0.0,0.0,0.0,0.0,0.0,0.0,0.0,0.0,0.0,0.0,0.0,0.0,0.0,0.0,0.0,0.0,0.0,0.0,0.0,0.0,0.0,0.0,0.0,0.0,0.0,0.0,0.0,0.0,0.0,0.0,0.0,0.0,0.0,0.0,0.0,0.0,0.0,0.0,0.0,0.0,0.0,0.0,0.0,0.0,0.0,0.0,0.0,0.0,0.0,0.0,0.0,0.0,0.0,0.0,0.0,0.0,0.0,0.0,0.0,0.0,0.0,0.0,0.0,0.0,0.0,0.0,0.0,0.0,0.0,0.0,0.0,0.0,0.0,0.0,0.0,0.0,0.0,-0.6819,-0.6556,-0.642,-0.642,-0.642,-0.6367,0.0,0.0,0.0,0.0,0.0,0.0,0.0,0.0,0.0,0.0,0.0,0.0,0.0,0.0,0.0,0.0,0.0,0.0,0.0,0.0,0.0,0.0,0.0,0.0,0.0,0.0,0.0,0.0,0.0,0.0,0.0,0.0,0.0,0.0,0.0,0.0,0.0,0.0,0.0,0.0,0.0,0.0,0.0,0.0,0.0,0.0,0.0,0.0,0.0,0.0,0.0,0.0,0.0,0.0,0.0,0.0,0.0,0.0,0.0,0.0,0.0,0.0,0.0,0.0,0.0,0.0,0.0,0.0,0.0,0.0,0.0,0.0,0.0,0.0,0.0,0.0,0.0,0.0,0.0,0.0,0.0,0.0,0.0,0.0,0.0,0.0,0.0,0.0,0.0,0.0,0.0,0.0,0.0,0.0,0.0,0.0,0.0,0.0,0.0,0.0,0.0,0.0,0.0,0.0,0.0,0.0,0.0,0.0,-0.7216,-0.7134,-0.6886,-0.6726,-0.6618,-0.6548,-0.6511,0.0,0.0,0.0,0.0,0.0,0.0,0.0,0.0,0.0,0.0,0.0,0.0,0.0,0.0,0.0,0.0,0.0,0.0,0.0,0.0,0.0,0.0,0.0,0.0,0.0,0.0,0.0,0.0,0.0,0.0,0.0,0.0,0.0,0.0,0.0,0.0,0.0,0.0,0.0,0.0,0.0,0.0,0.0,0.0,0.0,0.0,0.0,0.0,0.0,0.0,0.0,0.0,0.0,0.0,0.0,0.0,0.0,0.0,0.0,0.0,0.0,0.0,0.0,0.0,0.0,0.0,0.0,0.0,0.0,0.0,0.0,0.0,0.0,0.0,0.0,0.0,0.0,0.0,0.0,0.0,0.0,0.0,0.0,0.0,0.0,0.0,0.0,0.0,0.0,0.0,0.0,0.0,0.0,0.0,0.0,0.0,0.0,0.0,0.0,0.0,0.0,0.0,0.0,0.0,0.0,0.0,0.0,0.0,-0.757,-0.737,-0.7309,-0.7173,-0.6922,-0.6773,-0.6708,0.0,0.0,0.0,0.0,0.0,0.0,0.0,0.0,0.0,0.0,0.0,0.0,0.0,0.0,0.0,0.0,0.0,0.0,0.0,0.0,0.0,0.0,0.0,0.0,0.0,0.0,0.0,0.0,0.0,0.0,0.0,0.0,0.0,0.0,0.0,0.0,0.0,0.0,0.0,0.0,0.0,0.0,0.0,0.0,0.0,0.0,0.0,0.0,0.0,0.0,0.0,0.0,0.0,0.0,0.0,0.0,0.0,0.0,0.0,0.0,0.0,0.0,0.0,0.0,0.0,0.0,0.0,0.0,0.0,0.0,0.0,0.0,0.0,0.0,0.0,0.0,0.0,0.0,0.0,0.0,0.0,0.0,0.0,0.0,0.0,0.0,0.0,0.0,0.0,0.0,0.0,0.0,0.0,0.0,0.0,0.0,0.0,0.0,0.0,0.0,0.0,0.0,0.0,0.0,0.0,0.0,0.0,0.0,-0.7916,-0.7672,-0.7445,-0.7173,-0.6918,-0.6876,-0.6876,0.0,0.0,0.0,0.0,0.0,0.0,0.0,0.0,0.0,0.0,0.0,0.0,0.0,0.0,0.0,0.0,0.0,0.0,0.0,0.0,0.0,0.0,0.0,0.0,0.0,0.0,0.0,0.0,0.0,0.0,0.0,0.0,0.0,0.0,0.0,0.0,0.0,0.0,0.0,0.0,0.0,0.0,0.0,0.0,0.0,0.0,0.0,0.0,-0.1265,0.0,0.0,0.0,0.0,0.0,0.0,0.0,0.0,0.0,0.0,0.0,0.0,0.0,0.0,0.0,0.0,0.0,0.0,0.0,0.0,0.0,0.0,0.0,0.0,0.0,0.0,0.0,0.0,0.0,0.0,0.0,0.0,0.0,0.0,0.0,0.0,0.0,0.0,0.0,0.0,0.0,0.0,0.0,0.0,0.0,0.0,0.0,0.0,0.0,0.0,0.0,0.0,0.0,0.0,0.0,0.0,0.0,0.0,0.0,-0.812,-0.7943,-0.7674,-0.7409,-0.7185,-0.7199,-0.7138,0.0,0.0,0.0,0.0,0.0,0.0,0.0,0.0,0.0,0.0,0.0,0.0,0.0,0.0,0.0,0.0,0.0,0.0,0.0,0.0,0.0,0.0,0.0,0.0,0.0,0.0,0.0,0.0,0.0,0.0,0.0,0.0,0.0,0.0,0.0,0.0,0.0,0.0,0.0,0.0,0.0,0.0,0.0,0.0,0.0,0.0,0.0,0.0,0.0,0.0,0.0,0.0,0.0,0.0,0.0,0.0,0.0,0.0,0.0,0.0,0.0,0.0,0.0,0.0,0.0,0.0,0.0,0.0,0.0,0.0,0.0,0.0,0.0,0.0,0.0,0.0,0.0,0.0,0.0,0.0,0.0,0.0,0.0,0.0,0.0,0.0,0.0,0.0,0.0,0.0,0.0,0.0,0.0,0.0,0.0,0.0,0.0,0.0,0.0,0.0,0.0,0.0,0.0,0.0,0.0,0.0,0.0,-0.8245,-0.825,-0.8042,-0.7902,-0.7712,-0.7498,-0.7493,-0.7428,-0.7265,0.0,0.0,0.0,0.0,0.0,0.0,0.0,0.0,0.0,0.0,0.0,0.0,0.0,0.0,0.0,0.0,0.0,0.0,0.0,0.0,0.0,0.0,0.0,0.0,0.0,0.0,0.0,0.0,0.0,0.0,0.0,0.0,0.0,0.0,0.0,0.0,0.0,0.0,0.0888,0.0386,0.0,0.0,0.0,0.0,0.0,0.0,0.0,0.0,-0.1312,0.0,0.0,0.0,0.0,0.0,0.0,0.0,0.0,0.0,0.0,0.0,0.0,0.0,0.0,0.0,0.0,0.0,0.0,0.0,0.0,0.0,0.0,0.0,0.0,0.0,0.0,0.0,0.0,0.0,0.0,0.0,0.0,0.0,0.0,0.0,0.0,0.0,0.0,0.0,0.0,0.0,0.0,0.0,0.0,0.0,0.0,0.0,0.0,0.0,0.0,0.0,0.0,0.0,0.0,0.0,0.0,-0.7834,-0.8068,-0.8068,-0.7868,-0.7801,-0.7712,-0.7536,-0.7493,-0.7489,-0.7456,0.0,0.0,0.0,0.0,0.0,0.0,0.0,0.0,0.0,0.0,0.0,0.0,0.0,0.0,0.0,0.0,0.0,0.0,0.0,0.0,0.0,0.0,0.0,0.0,0.0,0.0,0.0,0.0,0.0,0.0,0.0,0.0,0.0,0.0,0.0,0.0,0.0,0.0,0.0,0.0737,0.0268,0.0,0.0,0.0,0.0,0.0,0.0,0.0,0.0,-0.1467,0.0,0.0,0.0,0.0,0.0,0.0,0.0,0.0,0.0,0.0,0.0,0.0,0.0,0.0,0.0,0.0,0.0,0.0,0.0,0.0,0.0,0.0,0.0,0.0,0.0,0.0,0.0,0.0,0.0,0.0,0.0,0.0,0.0,0.0,0.0,0.0,0.0,0.0,0.0,0.0,0.0,0.0,0.0,0.0,0.0,0.0,0.0,0.0,0.0,0.0,0.0,0.0,0.0,0.0,0.0,-0.7918,-0.801,-0.8049,-0.8054,-0.7947,-0.7867,-0.7759,-0.7754,-0.7754,0.0,0.0,0.0,0.0,0.0,0.0,0.0,0.0,0.0,0.0,0.0,0.0,0.0,0.0,0.0,0.0,0.0,0.0,0.0,0.0,0.0,0.0,0.0,0.0,0.0,0.0,0.0,0.0,0.0,0.0,0.0,0.0,0.0,0.0,0.0,0.0,0.0,0.0,0.0,0.0,0.0836,0.0313,-0.0446,0.0,0.0,0.0,0.0,0.0,0.0,-0.1501,-0.1634,0.0,0.0,0.0,0.0,0.0,0.0,0.0,0.0,0.0,0.0,0.0,0.0,0.0,0.0,0.0,0.0,0.0,0.0,0.0,0.0,0.0,0.0,0.0,0.0,0.0,0.0,0.0,0.0,0.0,0.0,0.0,0.0,0.0,0.0,0.0,0.0,0.0,0.0,0.0,0.0,0.0,0.0,0.0,0.0,0.0,0.0,0.0,0.0,0.0,0.0,0.0,0.0,0.0,0.0,0.0,-0.8015,-0.801,-0.8082,-0.8221,-0.8083,-0.7982,-0.7982,-0.7982,-0.7982,0.0,0.0,0.0,0.0,0.0,0.0,0.0,0.0,0.0,0.0,0.0,0.0,0.0,0.0,0.0,0.0,0.0,0.0,0.0,0.0,0.0,0.0,0.0,0.0,0.0,0.0,0.0,0.0,0.0,0.0,0.0,0.0,0.0,0.0,0.0,0.0,0.0,0.0,0.0,0.0,0.0,0.0239,-0.0531,-0.0711,0.0,0.0,0.0,0.0,-0.1387,-0.1615,0.0,0.0,0.0,0.0,0.0,0.0,0.0,0.0,0.0,0.0,0.0,0.0,0.0,0.0,0.0,0.0,0.0,0.0,0.0,0.0,0.0,0.0,0.0,0.0,0.0,0.0,0.0,0.0,0.0,0.0,0.0,0.0,0.0,0.0,0.0,0.0,0.0,0.0,0.0,0.0,0.0,0.0,0.0,0.0,0.0,0.0,0.0,0.0,0.0,0.0,0.0,0.0,0.0,0.0,0.0,0.0,-0.799,-0.7995,-0.8027,-0.8022,-0.8035,-0.7982,-0.7982,-0.7982,-0.7982,0.0,0.0,0.0,0.0,0.0,0.0,0.0,0.0,0.0,0.0,0.0,0.0,0.0,0.0,0.0,0.0,0.0,0.0,0.0,0.0,0.0,0.0,0.0,0.0,0.0,0.0,0.0,0.0,0.0,0.0,0.0,0.0,0.0,0.0,0.0,0.0,0.0,0.0,0.0,0.0,0.0,0.0163,-0.0376,-0.077,-0.1136,0.0,0.0,-0.1386,-0.1389,-0.1615,0.0,0.0,0.0,0.0,0.0,0.0,0.0,0.0,0.0,0.0,0.0,0.0,0.0,0.0,0.0,0.0,0.0,0.0,0.0,0.0,0.0,0.0,0.0,0.0,0.0,0.0,0.0,0.0,0.0,0.0,0.0,0.0,0.0,0.0,0.0,0.0,0.0,0.0,0.0,0.0,0.0,0.0,0.0,0.0,0.0,0.0,0.0,0.0,0.0,0.0,0.0,0.0,0.0,0.0,0.0,-0.8052,-0.8107,-0.8112,-0.8182,-0.8279,-0.8284,-0.8279,-0.829,-0.8284,-0.8284,0.0,0.0,0.0,0.0,0.0,0.0,0.0,0.0,0.0,0.0,0.0,0.0,0.0,0.0,0.0,0.0,0.0,0.0,0.0,0.0,0.0,0.0,0.0,0.0,0.0,0.0,0.0,0.0,0.0,0.0,0.0,0.0,0.0,0.0,0.0,0.0,0.0,0.0,0.0,0.0,0.0,0.0,-0.0504,-0.0859,0.0,0.0,0.0,-0.1415,-0.1388,0.0,0.0,0.0,0.0,0.0,0.0,0.0,0.0,0.0,0.0,0.0,0.0,0.0,0.0,0.0,0.0,0.0,0.0,0.0,0.0,0.0,0.0,0.0,0.0,0.0,0.0,0.0,0.0,0.0,0.0,0.0,0.0,0.0,0.0,0.0,0.0,0.0,0.0,0.0,0.0,0.0,0.0,0.0,0.0,0.0,0.0,0.0,0.0,0.0,0.0,0.0,0.0,0.0,0.0,0.0,0.0,0.0,-0.8269,-0.8269,-0.8339,-0.8479,-0.8517,-0.8517,-0.8517,-0.8517,0.0,0.0,0.0,0.0,0.0,0.0,0.0,0.0,0.0,0.0,0.0,0.0,0.0,0.0,0.0,0.0,0.0,0.0,0.0,0.0,0.0,0.0,0.0,0.0,0.0,0.0,0.0,-0.1401,0.0,0.0,0.0,0.0,0.0,0.0,0.0,0.0,0.0,0.0,0.0,0.0,0.0,0.0,-0.0246,-0.0625,-0.0941,-0.1181,0.0,0.0,-0.1409,-0.1387,-0.1815,-0.2159,0.0,0.0,0.0,0.0,0.0,0.0,0.0,0.0,0.0,0.0,0.0,0.0,0.0,0.0,0.0,0.0,0.0,0.0,0.0,0.0,0.0,0.0,0.0,0.0,0.0,0.0,0.0,0.0,0.0,0.0,0.0,0.0,0.0,0.0,0.0,0.0,0.0,0.0,0.0,0.0,0.0,0.0,0.0,0.0,0.0,0.0,0.0,0.0,0.0,0.0,0.0,0.0,0.0,0.0,-0.8479,-0.8479,-0.8479,-0.8479,-0.8517,-0.8517,-0.8517,-0.8517,-0.8517,-0.8517,0.0,0.0,0.0,0.0,0.0,0.0,0.0,0.0,0.0,0.0,0.0,0.0,0.0,0.0,0.0,0.0,0.0,0.0,0.0,0.0,0.0,0.0,0.0,0.0,0.0,0.0,0.0,0.0,0.0,0.0,0.0,0.0,0.0,0.0,0.0,0.0,0.0,0.0,0.0,0.0,0.0,-0.0448,-0.0652,-0.11,-0.1391,0.0,-0.1415,-0.1388,-0.139,-0.1836,-0.2195,-0.2198,0.0,0.0,0.0,0.0,0.0,0.0,0.0,0.0,0.0,0.0,0.0,0.0,0.0,0.0,0.0,0.0,0.0,0.0,0.0,0.0,0.0,0.0,0.0,0.0,0.0,0.0,0.0,0.0,0.0,0.0,0.0,0.0,0.0,0.0,0.0,0.0,0.0,0.0,0.0,0.0,0.0,0.0,0.0,0.0,0.0,0.0,0.0,0.0,0.0,0.0,0.0,0.0,0.0,-0.8517,-0.8517,-0.8517,-0.8517,-0.8517,-0.8517,-0.8517,-0.8517,-0.8517,-0.8517,0.0,0.0,0.0,0.0,0.0,0.0,0.0,0.0,0.0,0.0,0.0,0.0,0.0,0.0,0.0,0.0,0.0,0.0,0.0,0.0,0.0,0.0,0.0,0.0,0.0,0.0,0.0,0.0,-0.144,-0.1209,-0.1015,0.0,0.0,0.0,0.0,0.0,0.0,0.0,0.0,0.0,0.0,-0.06,-0.0853,-0.1128,0.0,0.0,-0.1399,-0.1458,-0.1612,-0.1909,-0.221,-0.2373,-0.272,0.0,0.0,0.0,0.0,0.0,0.0,0.0,0.0,0.0,0.0,0.0,0.0,0.0,0.0,0.0,0.0,0.0,0.0,0.0,0.0,0.0,0.0,0.0,0.0,0.0,0.0,0.0,0.0,0.0,0.0,0.0,0.0,0.0,0.0,0.0,0.0,0.0,0.0,0.0,0.0,0.0,0.0,0.0,0.0,0.0,0.0,0.0,0.0,0.0,0.0,0.0,0.0,-0.8517,-0.8517,-0.8576,-0.8582,-0.8614,-0.8608,-0.8641,-0.8673,-0.8641,-0.8641,0.0,0.0,0.0,0.0,0.0,0.0,0.0,0.0,0.0,0.0,0.0,0.0,0.0,0.0,0.0,0.0,0.0,0.0,0.0,0.0,0.0,0.0,0.0,0.0,0.0,0.0,0.0,0.0,-0.1578,-0.1351,-0.1249,0.0,0.0,0.0,0.0,0.0,0.0,0.0,0.0,0.0,0.0,-0.0799,-0.0974,-0.1245,-0.1442,-0.1516,-0.1616,-0.1719,-0.188,-0.2083,-0.2299,-0.2484,0.0,0.0,0.0,0.0,0.0,0.0,0.0,0.0,0.0,0.0,0.0,0.0,0.0,0.0,0.0,0.0,0.0,0.0,0.0,0.0,0.0,0.0,0.0,0.0,0.0,0.0,0.0,-0.4421,0.0,0.0,-0.5757,0.0,0.0,0.0,0.0,0.0,0.0,0.0,0.0,0.0,0.0,0.0,0.0,0.0,0.0,0.0,0.0,0.0,0.0,0.0,0.0,0.0,0.0,-0.8517,-0.8517,-0.8705,-0.877,-0.8802,-0.892,-0.899,-0.8985,-0.8985,-0.899,-0.8985,0.0,0.0,0.0,0.0,0.0,0.0,0.0,0.0,0.0,0.0,0.0,0.0,0.0,0.0,0.0,0.0,0.0,0.0,0.0,0.0,0.0,0.0,0.0,0.0,0.0,0.0,-0.1945,-0.1756,-0.1644,0.0,0.0,0.0,0.0,0.0,0.0,0.0,0.0,0.0,-0.0652,-0.0854,-0.0977,-0.1018,-0.141,-0.1696,-0.1776,-0.199,-0.2153,-0.22,-0.2378,-0.2531,0.0,0.0,0.0,0.0,0.0,0.0,0.0,0.0,0.0,0.0,0.0,0.0,0.0,0.0,0.0,0.0,0.0,0.0,0.0,0.0,0.0,0.0,0.0,0.0,0.0,0.0,0.0,-0.471,-0.4831,0.0,0.0,0.0,0.0,0.0,0.0,0.0,0.0,0.0,0.0,0.0,-0.9097,-0.9097,0.0,0.0,0.0,0.0,0.0,0.0,0.0,0.0,0.0,0.0,0.0,0.0,-0.8733,-0.8684,-0.877,-0.8861,-0.8926,-0.8985,-0.899,-0.899,-0.899,-0.899,-0.899,0.0,0.0,0.0,0.0,0.0,0.0,0.0,0.0,0.0,0.0,0.0,0.0,0.0,0.0,0.0,0.0,0.0,0.0,0.0,0.0,0.0,0.0,0.0,0.0,0.0,-0.2581,0.0,0.0,0.0,0.0,0.0,0.0,0.0,0.0,0.0,0.0,0.0,-0.0756,-0.0876,-0.1123,-0.1331,-0.1455,-0.1737,-0.1983,0.0,0.0,0.0,0.0,0.0,0.0,0.0,0.0,0.0,0.0,0.0,0.0,0.0,0.0,-0.4336,-0.3843,-0.3585,-0.343,-0.3291,0.0,0.0,0.0,0.0,0.0,0.0,0.0,0.0,0.0,0.0,0.0,0.0,0.0,0.0,-0.5117,-0.5211,-0.5661,0.0,0.0,0.0,0.0,0.0,0.0,0.0,0.0,-0.8892,-0.9058,-0.9265,-0.9355,-0.953,0.0,-0.982,-0.9782,0.0,0.0,0.0,0.0,0.0,0.0,0.0,0.0,-0.892,-0.8898,-0.8874,-0.8958,-0.9081,-0.9107,-0.9113,-0.9113,-0.9113,-0.9049,-0.899,-0.9081,-0.9081,0.0,0.0,0.0,0.0,0.0,0.0,0.0,0.0,0.0,0.0,0.0,0.0,0.0,0.0,0.0,0.0,0.0,0.0,0.0,0.0,0.0,0.0,0.0,-0.2701,0.0,0.0,0.0,0.0,0.0,0.0,0.0,0.0,0.0,-0.1149,-0.0986,-0.1031,-0.1236,-0.1404,-0.1573,-0.1829,0.0,0.0,0.0,0.0,0.0,0.0,0.0,-0.2754,-0.2955,-0.3119,-0.3324,-0.3688,-0.407,-0.4352,-0.4451,0.0,0.0,-0.4157,-0.3879,-0.37,-0.356,-0.3247,-0.3006,-0.3008,-0.2963,-0.283,0.0,0.0,0.0,0.0,0.0,0.0,0.0,0.0,-0.5246,-0.5391,0.0,-0.5928,0.0,0.0,0.0,0.0,-0.8684,-0.889,0.0,0.0,-0.912,-0.922,-0.9439,-0.9679,-0.9896,-1.0117,-1.0333,-1.049,-1.0441,-0.9628,0.0,0.0,0.0,0.0,0.0,0.0,-0.9002,-0.9108,-0.9044,-0.9113,-0.9274,-0.9306,-0.93,-0.9274,-0.9274,-0.9177,-0.9017,-0.9177,-0.9204,-0.9017,-0.9017,0.0,0.0,0.0,0.0,0.0,0.0,0.0,0.0,0.0,0.0,0.0,0.0,0.0,0.0,0.0,0.0,0.0,0.0,0.0,0.0,-0.2732,0.0,0.0,0.0,0.0,0.0,0.0,0.0,0.0,0.0,0.0,-0.1827,-0.1593,-0.1514,-0.1787,0.0,0.0,0.0,0.0,-0.2543,-0.2505,-0.2739,-0.2875,-0.2875,-0.2921,-0.2943,-0.2996,0.0,0.0,-0.4082,-0.4189,-0.429,-0.4573,-0.4629,-0.458,-0.4445,-0.4287,-0.4089,-0.3849,-0.3502,-0.3232,-0.3183,-0.3051,-0.292,-0.4827,0.0,0.0,0.0,0.0,-0.5206,-0.5358,-0.5445,-0.5632,-0.5685,-0.5667,-0.6224,0.0,0.0,0.0,0.0,0.0,0.0,-0.9266,-0.9125,-0.9231,-0.9405,-0.9606,-0.9682,-0.991,-1.0317,-1.0404,-1.0452,-1.0507,-1.0259,-1.0044,-0.9939,0.0,0.0,0.0,0.0,-0.9382,-0.9506,-0.9311,-0.9242,-0.93,-0.93,-0.9242,-0.9087,-0.9081,-0.9049,-0.899,-0.921,-0.9274,-0.921,-0.921,0.0,0.0,0.0,0.0,0.0,0.0,0.0,0.0,0.0,0.0,0.0,0.0,0.0,0.0,0.0,0.0,0.0,0.0,0.0,-0.3586,-0.3281,-0.3057,0.0,0.0,0.0,0.0,0.0,0.0,0.0,0.0,0.0,-0.2309,-0.2101,-0.2014,0.0,0.0,-0.2312,-0.2402,-0.2625,-0.2765,-0.2782,-0.283,0.0,-0.292,-0.2907,-0.3032,-0.3187,-0.3602,-0.402,-0.4184,-0.4332,-0.4524,-0.4569,-0.4619,-0.4591,-0.453,-0.4318,-0.4105,-0.4001,-0.3742,-0.3452,-0.3226,-0.3138,-0.3094,-0.516,-0.5009,-0.5015,-0.5043,-0.5125,-0.5368,-0.5473,-0.5554,-0.577,-0.5871,-0.5899,-0.6306,-0.6647,-0.694,-0.7797,0.0,0.0,0.0,-0.9404,-0.9299,-0.9405,-0.9526,-0.9637,-0.9726,-0.994,-1.0201,-1.0408,-1.0549,-1.0592,-1.0691,-1.0663,-1.0443,0.0,0.0,-1.0143,-0.9781,-0.9679,-0.9786,-0.9462,-0.93,-0.93,-0.9177,-0.9022,-0.8835,-0.8861,-0.8926,-0.8926,-0.9081,-0.9177,-0.9177,-0.9242,-0.9242,0.0,0.0,0.0,0.0,0.0,0.0,0.0,0.0,0.0,0.0,0.0,-0.5685,-0.514,0.0,0.0,0.0,-0.4224,-0.4132,-0.3981,-0.3635,0.0,0.0,0.0,0.0,0.0,0.0,0.0,-0.3077,-0.2803,-0.2654,-0.2777,-0.2602,-0.2424,-0.2334,-0.2424,-0.256,-0.2649,0.0,-0.2918,-0.3006,-0.3006,-0.3051,-0.3187,-0.3219,-0.3289,-0.3516,-0.3829,-0.4139,-0.4231,-0.437,-0.4465,-0.4463,-0.4465,-0.4463,-0.4463,-0.4324,-0.4165,-0.4194,-0.3955,-0.3678,-0.3496,-0.336,-0.3181,-0.5395,-0.5376,-0.5136,-0.5058,-0.5082,-0.538,-0.5512,-0.5522,-0.5734,-0.5911,-0.6133,-0.6309,-0.673,-0.7331,-0.8266,0.0,-0.9498,-0.948,-0.9525,-0.9606,-0.9583,-0.9553,-0.9496,-0.9763,-0.9883,-0.9925,-1.0412,-1.0665,-1.0695,-1.0942,-1.0999,-1.0812,-1.0625,-1.0556,-1.049,-1.0063,-0.9881,-1.0014,-0.9571,-0.9274,-0.9274,-0.8926,-0.8705,-0.8517,-0.8673,-0.877,-0.877,-0.8926,-0.899,-0.8985,-0.9177,-0.921,-0.9049,0.0,0.0,0.0,0.0,0.0,0.0,0.0,0.0,0.0,0.0,0.0,0.0,0.0,0.0,0.0,-0.4445,0.0,-0.4352,-0.3942,0.0,0.0,0.0,-0.3331,-0.3295,-0.3215,-0.3214,-0.3481,0.0,0.0,-0.3183,-0.3051,-0.2871,-0.2597,-0.2557,-0.2604,-0.2875,-0.2918,-0.3008,-0.3183,-0.3226,-0.3317,-0.3542,-0.359,-0.3638,-0.3819,-0.3901,-0.4043,-0.4265,-0.4308,-0.4304,-0.431,-0.43,-0.4304,-0.43,-0.4308,-0.4324,-0.436,-0.4132,-0.3901,-0.3857,-0.3585,-0.3272,-0.5395,-0.5399,-0.5333,-0.5382,-0.5489,-0.5519,-0.5634,-0.5731,-0.5764,-0.5911,-0.6133,-0.6309,-0.6944,-0.7903,-0.8443,-0.9008,-0.9504,-0.9462,-0.949,-0.9594,-0.9566,-0.9506,-0.9484,-0.955,-0.9715,-0.9919,-1.0232,-1.0491,-1.0695,-1.0948,-1.1074,-1.1031,-1.0999,-1.0887,-1.072,-1.02,-1.0055,-1.0223,-0.9604,-0.9177,-0.8931,-0.8705,-0.8549,-0.8517,-0.8549,-0.8582,-0.8582,-0.877,-0.8829,-0.8861,-0.899,-0.9113,-0.9242,-0.9145,0.0,0.0,0.0,0.0,0.0,0.0,0.0,0.0,0.0,-0.6325,-0.5859,0.0,-0.588,0.0,-0.5359,-0.5064,-0.4876,-0.4578,0.0,0.0,-0.3804,-0.3639,-0.3409,-0.3416,-0.3453,-0.3554,-0.3487,-0.3452,-0.3497,-0.3454,-0.3388,-0.3291,-0.3021,-0.283,-0.292,-0.3006,-0.3138,-0.3226,-0.336,-0.354,-0.3587,-0.3721,-0.3857,-0.3901,-0.408,-0.4255,-0.43,-0.4297,-0.4297,-0.4297,-0.4297,-0.4297,-0.4297,-0.4297,-0.4304,-0.4326,-0.4269,-0.4123,-0.3946,-0.381,-0.3631,-0.5458,-0.5395,-0.5395,-0.5446,-0.5488,-0.5525,-0.5532,-0.5638,-0.5707,-0.5811,-0.6026,-0.6437,-0.7099,-0.7973,-0.8265,-0.8725,-0.9279,-0.9275,-0.9288,-0.9458,-0.9485,-0.9478,-0.9478,-0.9478,-0.9648,-0.9913,-1.0172,-1.043,-1.0683,-1.0985,-1.1117,-1.1117,-1.1117,-1.1031,-1.0907,-1.0527,-1.0307,-1.0292,-0.9538,-0.9049,-0.8802,-0.8608,-0.8517,-0.8517,-0.8517,-0.8517,-0.8517,-0.8608,-0.8673,-0.8673,-0.8835,-0.899,-0.9177,-0.9145,-0.9177,0.0,0.0,0.0,0.0,0.0,0.0,0.0,0.0,0.0,0.0,0.0,-0.6591,-0.6367,-0.6119,-0.5857,-0.5425,-0.5237,-0.4888,-0.4384,-0.432,-0.4179,-0.3811,-0.3768,-0.3805,-0.3888,-0.3721,-0.3631,-0.3721,-0.3676,-0.3573,-0.3529,-0.3339,-0.3163,-0.3111,-0.3249,-0.3358,-0.3449,-0.3609,-0.3765,-0.39,-0.3989,-0.4078,-0.4078,-0.421,-0.4297,-0.4297,-0.4297,-0.4297,-0.4297,-0.4297,-0.4297,-0.4297,-0.4297,-0.4297,-0.4297,-0.4297,-0.4255,-0.4078,-0.3991,-0.381,-0.5554,-0.5428,-0.5428,-0.5428,-0.5395,-0.5395,-0.5395,-0.5395,-0.5554,-0.5719,-0.5987,-0.6613,-0.7238,-0.7754,-0.7941,-0.8384,-0.9025,-0.9022,-0.9113,-0.93,-0.9446,-0.9478,-0.9484,-0.9552,-0.9652,-0.9913,-1.0202,-1.0454,-1.0725,-1.0985,-1.1117,-1.1117,-1.1117,-1.1117,-1.1105,-1.0845,-1.0575,-1.0175,-0.9389,-0.8894,-0.877,-0.8608,-0.8517,-0.8517,-0.8517,-0.8549,-0.8517,-0.8517,-0.8517,-0.8517,-0.8705,-0.8867,-0.8985,-0.9177,-0.93,0.0,-0.93,0.0,0.0,0.0,0.0,0.0,0.0,0.0,0.0,-0.7496,-0.7309,-0.708,-0.6868,-0.656,-0.6054,-0.586,-0.5547,-0.5124,-0.4917,-0.4704,-0.4421,-0.4259,-0.4225,-0.4315,-0.3972,-0.3798,-0.3898,-0.381,-0.3674,-0.37,-0.3698,-0.3606,-0.3445,-0.3487,-0.3589,-0.3796,-0.3897,-0.4036,-0.421,-0.4297,-0.4297,-0.4297,-0.4297,-0.4297,-0.4297,-0.4297,-0.4297,-0.4344,-0.4389,-0.4344,-0.4344,-0.4344,-0.4344,-0.4297,-0.4297,-0.4297,-0.43,-0.4123,-0.3946,-0.5719,-0.555,-0.5583,-0.5491,-0.5395,-0.5395,-0.5395,-0.5395,-0.5554,-0.5815,-0.6181,-0.6679,-0.7128,-0.7579,-0.7872,-0.8305,-0.8864,-0.8943,-0.9113,-0.93,-0.944,-0.9478,-0.9496,-0.9733,-0.9859,-0.9931,-1.0417,-1.0635,-1.0725,-1.0948,-1.1117,-1.1117,-1.1117,-1.1117,-1.1111,0.0,0.0,0.0,-0.9073,-0.8732,-0.8576,-0.8517,-0.8517,-0.8517,-0.8679,0.0,-0.8517,-0.8679,-0.8673,-0.8517,-0.8705,0.0,0.0,0.0,0.0,0.0,0.0,0.0,0.0,0.0,0.0,0.0,-0.8967,-0.8659,-0.8267,-0.8211,-0.8096,-0.7906,-0.771,-0.7322,-0.6788,-0.6521,-0.617,-0.555,-0.5232,-0.4955,-0.474,-0.4626,-0.4558,-0.448,-0.4365,-0.4305,-0.4192,-0.4166,-0.4138,-0.4077,-0.411,-0.4023,-0.3884,-0.3826,-0.3829,-0.3881,-0.4069,-0.421,-0.4297,-0.4297,-0.4297,-0.4297,-0.4297,-0.4297,-0.4297,-0.4297,-0.4389,-0.4569,-0.4614,-0.4614,-0.4614,-0.4614,-0.4569,-0.4344,-0.4297,-0.4297,-0.4297,-0.4255,-0.4168,-0.5921,-0.5752,-0.565,-0.555,0.0,-0.5428,-0.5395,-0.5395,-0.5657,-0.5951,-0.6313,-0.6712,-0.7106,-0.7526,-0.7852,-0.8214,-0.8673,-0.8829,-0.899,-0.9145,-0.9344,-0.944,-0.949,-0.9781,-0.9973,-1.0112,-1.0532,-1.0785,-1.0912,-1.1014,-1.1117,-1.1117,-1.1117,-1.1117,-1.1105,-1.0917,-1.0408,-0.9588,-0.9264,-0.8887,-0.8517,-0.8517,-0.8549,-0.8646,-0.8738,0.0,0.0,0.0,0.0,0.0,0.0,0.0,0.0,0.0,0.0,-0.9478,-0.944,-0.937,-0.9312,-0.9332,-0.9443,-0.9649,-0.9749,-0.9568,-0.8884,-0.8841,-0.8746,-0.8551,-0.8356,-0.8055,-0.7561,-0.7215,-0.6788,-0.6173,-0.5846,-0.5518,-0.5023,-0.4915,-0.479,-0.446,-0.4395,-0.4331,-0.4163,-0.4169,-0.4153,-0.4112,-0.4106,-0.4106,-0.411,-0.4049,-0.4072,-0.4115,-0.421,-0.4297,-0.4297,-0.4297,-0.4297,-0.4297,-0.4297,-0.4297,-0.4297,-0.4389,-0.4569,-0.4703,-0.4792,-0.4835,-0.4835,-0.4835,-0.4792,-0.4567,-0.4523,-0.4433,-0.4344,-0.4297,-0.4253,-0.6115,-0.5918,-0.5782,-0.5683,-0.565,-0.5524,-0.5495,-0.5557,-0.5789,0.0,0.0,-0.6749,-0.7138,-0.7559,-0.7852,-0.8182,-0.8517,-0.8705,-0.8867,-0.9017,-0.9204,-0.937,-0.9496,-0.9781,-1.0039,-1.0304,-1.0563,-1.0858,-1.1111,-1.1117,-1.1117,-1.1117,-1.1117,-1.1117,-1.1062,-1.076,-1.0384,-0.9921,-0.9576,-0.9158,-0.8674,-0.863,-0.8673,-0.8829,-0.8867,-0.8931,-0.899,-0.9049,-0.9049,-0.899,-0.9049,-0.9113,-0.9274,-0.9338,-0.9376,-0.9478,-0.9478,-0.9478,-0.9344,-0.9592,-0.9774,-0.9898,-1.0298,-1.0255,-0.9506,-0.9435,-0.9316,-0.9117,-0.8889,-0.8594,-0.8255,-0.7829,-0.7369,-0.6834,-0.6528,-0.6071,-0.5416,-0.5194,-0.4958,-0.4525,-0.4421,-0.4264,-0.412,-0.4044,-0.3992,-0.3994,-0.4,-0.4029,-0.4194,-0.4191,-0.4232,-0.4287,-0.4297,-0.4297,-0.4297,-0.4297,-0.4297,-0.4297,-0.4297,-0.4342,-0.4389,-0.4569,-0.4705,-0.4837,-0.4971,-0.5057,-0.5055,-0.5055,-0.5013,-0.479,-0.475,-0.4607,-0.4412,-0.4275,-0.4271,-0.6284,-0.6148,-0.6112,-0.6017,-0.5855,-0.5822,-0.5918,-0.6083,-0.5954,-0.6185,-0.6679,-0.6811,-0.7176,-0.7699,-0.7889,-0.8182,-0.8511,-0.8705,-0.8861,-0.9017,-0.921,-0.937,-0.9502,-0.9781,-1.0045,-1.0298,-1.0557,-1.0815,-1.1087,-1.1117,-1.1117,-1.1117,-1.1117,-1.1117,-1.1111,-1.1038,-1.0826,-1.042,-0.9731,-0.9371,-0.9297,-0.9066,-0.8958,-0.8985,-0.9145,-0.9145,-0.9017,-0.9177,-0.9177,-0.9017,-0.9177,-0.9274,-0.93,-0.9408,-0.9478,-0.9478,-0.9478,-0.9478,-0.9484,-0.9724,-1.0015,-1.0301,-1.0611,-1.055,-1.0105,-0.9922,-0.9733,-0.9544,-0.917,-0.8865,-0.8627,-0.825,-0.7829,-0.7407,-0.6872,-0.6423,-0.61,-0.5632,-0.5204,-0.495,-0.4685,-0.4394,-0.4251,-0.4105,-0.3978,-0.3986,-0.3974,-0.4063,-0.414,-0.4236,-0.4279,-0.4295,-0.4297,-0.4297,-0.4297,-0.4297,-0.4297,-0.4297,-0.4297,-0.4389,-0.4569,-0.4696,-0.4828,-0.5235,-0.5262,-0.5309,-0.5356,-0.5371,-0.5218,-0.4989,-0.4812,-0.4663,-0.4504,-0.4313,-0.4183,-0.6511,-0.6445,-0.6276,-0.6148,-0.605,-0.5954,-0.6017,-0.6181,-0.6115,-0.628,-0.6708,-0.6843,-0.7209,-0.7694,-0.7884,-0.8182,-0.8517,-0.8576,-0.877,-0.8985,-0.9081,-0.9274,-0.9508,-0.9748,-1.0039,-1.0304,-1.0563,-1.0821,-1.1093,-1.1117,-1.1117,-1.1117,-1.1117,-1.1117,-1.1117,-1.1117,-1.1014,-1.082,-1.0137,-0.9633,-0.9421,-0.9148,-0.9049,-0.9145,-0.9242,-0.9312,-0.928,-0.935,-0.9382,-0.9285,-0.935,-0.9408,-0.9408,-0.9478,-0.9478,-0.9478,-0.9478,-0.9576,-0.9715,-1.01,-1.0461,-1.0748,-1.0896,-1.085,-1.0556,-1.0255,-0.9992,-0.9771,-0.9506,-0.9246,-0.9051,-0.867,-0.8246,-0.7706,-0.7288,-0.6868,-0.6374,-0.6064,-0.5659,-0.5156,-0.4888,-0.4634,-0.4243,-0.4129,-0.401,-0.3932,-0.3924,-0.3981,-0.4024,-0.4104,-0.4193,-0.4275,-0.4297,-0.4297,-0.4295,-0.4297,-0.4297,-0.4297,-0.4433,-0.4525,-0.4699,-0.4844,-0.5022,-0.5231,-0.5366,-0.5411,-0.5408,-0.5403,-0.5276,-0.5061,-0.4932,-0.4777,-0.4482,-0.4227,-0.4026,-0.6708,-0.6675,-0.6408,-0.6276,-0.6247,-0.6086,-0.6119,-0.6251,-0.6251,-0.6445,-0.6745,-0.6876,-0.7204,-0.7759,-0.7922,-0.8187,-0.8484,-0.8544,-0.8732,-0.8985,-0.9049,-0.9215,-0.9502,-0.9727,-0.9979,-1.0286,-1.0503,-1.0761,-1.1081,-1.1117,-1.1117,-1.1117,-1.1117,-1.1117,-1.1117,-1.1117,-1.1117,-1.1087,-1.0551,-1.002,-0.9614,-0.936,-0.9241,-0.9338,-0.9338,-0.9408,-0.9478,-0.9478,-0.9478,-0.9478,-0.9478,-0.9478,-0.9478,-0.9478,-0.9478,-0.9478,-0.9478,-0.9654,-0.9985,-1.0418,-1.0797,-1.1093,-1.1117,-1.0999,-1.0812,-1.0513,-1.0218,-0.9992,-0.9733,-0.9506,-0.9359,-0.9013,-0.8551,-0.805,-0.7748,-0.7292,-0.6683,-0.6416,-0.6064,-0.5395,-0.5121,-0.4813,-0.4426,-0.4233,-0.4086,-0.3944,-0.3866,-0.3869,-0.3901,-0.3924,-0.4069,-0.4185,-0.424,-0.423,-0.4238,-0.4232,-0.423,-0.424,-0.4454,-0.4575,-0.4699,-0.4952,-0.5173,-0.5243,-0.5355,-0.5398,-0.5418,-0.5421,-0.5304,-0.5147,-0.5068,-0.4834,-0.438,-0.4057,-0.3889,-0.6811,-0.6708,-0.6675,-0.6548,-0.6383,-0.635,-0.6354,-0.6387,-0.6387,-0.6581,-0.6881,-0.6913,-0.7307,-0.7922,-0.7987,-0.8182,-0.8517,-0.8705,-0.8861,-0.9017,-0.9177,-0.935,-0.9496,-0.9552,-0.9811,-1.0256,-1.0346,-1.0623,-1.1093,-1.1117,-1.1117,-1.1117,-1.1117,-1.1117,-1.1117,-1.1117,-1.1117,-1.1068,-1.0797,-1.0491,-1.0227,-0.997,-0.9724,-0.9484,-0.9484,-0.9478,-0.951,-0.9478,-0.9478,-0.9478,-0.951,-0.951,-0.951,-0.951,-0.9478,-0.951,-0.949,-0.9727,-1.0214,-1.0527,-1.084,-1.1075,-1.1117,-1.1037,-1.0812,-1.0775,-1.0588,-1.0218,-0.9846,-0.962,-0.9544,-0.9208,-0.8861,-0.8589,-0.8089,-0.7672,-0.733,-0.6756,-0.6257,-0.6219,-0.5515,-0.4965,-0.4849,-0.4579,-0.427,-0.4077,-0.3973,-0.3932,-0.3951,-0.3978,-0.3981,-0.403,-0.4019,-0.4065,-0.4073,-0.4021,-0.4083,-0.4075,-0.4233,-0.4458,-0.4718,-0.4915,-0.5095,-0.5257,-0.536,-0.5336,-0.5385,-0.541,-0.5349,-0.5237,-0.5074,-0.4836,-0.4338,-0.4008,-0.3897,-0.7232,-0.7167,-0.6909,-0.6712,-0.6576,-0.6449,-0.642,-0.642,-0.6511,-0.6712,-0.6913,-0.7007,-0.7428,-0.7982,-0.7982,-0.8187,-0.8511,-0.8705,-0.8861,-0.9017,-0.921,-0.9459,-0.9733,-0.9751,-1.0015,-1.0491,-1.0527,-1.0713,-1.1057,-1.1117,-1.1117,-1.1117,-1.1117,-1.1117,-1.1117,-1.1117,-1.1117,-1.1105,-1.1009,-1.0828,-1.0509,-1.0118,-0.9859,-0.9745,-0.96,-0.9548,-0.9676,-0.9676,-0.9702,-0.9792,-0.9798,-0.9792,-0.9798,-0.9734,-0.9676,-0.9688,-0.9877,-1.0142,-1.0503,-1.0803,-1.096,-1.1111,-1.1117,-1.1074,-1.0999,-1.085,-1.07,-1.0406,-1.0099,-0.9884,-0.962,-0.9435,-0.9203,-0.878,-0.847,-0.8127,-0.7557,-0.7215,-0.6876,-0.6374,-0.5986,-0.5553,-0.5082,-0.4654,-0.4384,-0.4268,-0.419,-0.4136,-0.417,-0.4214,-0.4229,-0.4221,-0.4234,-0.417,-0.4041,-0.4116,-0.4153,-0.4237,-0.4492,-0.4787,-0.4814,-0.501,-0.514,-0.5262,-0.5219,-0.5181,-0.5151,-0.5162,-0.5159,-0.513,-0.5002,-0.4703,-0.4379,-0.4145,-0.3986,-0.7639,-0.7466,-0.7073,-0.6843,-0.6741,-0.6581,-0.6552,-0.6552,-0.6679,-0.6843,-0.6979,-0.7134,-0.7493,-0.7949,-0.7982,-0.8187,-0.8511,-0.8738,-0.8965,-0.9108,-0.9347,-0.9652,-0.9991,-1.0009,-1.0244,-1.0623,-1.0713,-1.0846,-1.1087,-1.1117,-1.1117,-1.1117,-1.1117,-1.1117,-1.1117,-1.1117,-1.1117,-1.1117,-1.1117,-1.1015,-1.0755,-1.0352,-1.0088,-1.0003,-0.9796,-0.9748,-0.9916,-0.9873,-0.9894,-1.0021,-1.0021,-1.0021,-1.0021,-0.9995,-1.0005,-1.0118,-1.0353,-1.059,-1.0785,-1.1003,-1.1117,-1.1117,-1.1117,-1.1117,-1.1074,-1.0962,-1.0775,-1.0588,-1.0406,-1.011,-0.9771,-0.962,-0.9354,-0.8932,-0.8775,-0.8399,-0.7748,-0.7595,-0.7219,-0.6606,-0.6335,-0.5986,-0.524,-0.4813,-0.4579,-0.4504,-0.4423,-0.4384,-0.4384,-0.4389,-0.4389,-0.4384,-0.4387,-0.4328,-0.4136,-0.4229,-0.4324,-0.4406,-0.4642,-0.4844,-0.4946,-0.5023,-0.514,-0.5135,-0.5056,-0.5031,-0.5064,-0.5042,-0.4987,-0.4982,-0.4865,-0.4675,-0.444,-0.4233,-0.4038,-0.7969,-0.748,-0.7077,-0.6935,-0.6885,-0.6889,-0.6889,-0.6865,-0.6881,-0.7012,-0.7171,-0.7246,-0.7498,-0.8007,-0.8055,-0.8197,-0.8517,-0.8846,-0.9127,-0.9393,-0.971,-1.0027,-1.0268,-1.028,-1.0424,-1.0701,-1.0755,-1.0839,-1.1105,-1.1117,-1.1117,-1.1117,-1.1117,-1.1117,-1.1117,-1.1117,-1.1117,-1.1117,-1.1117,-1.1099,-1.1057,-1.081,-1.0521,-1.0339,-1.0196,-1.0155,-1.0197,-1.0064,-1.0034,-1.0028,-1.0059,-1.0047,-1.0053,-1.0314,-1.0562,-1.0788,-1.0897,-1.0952,-1.1008,-1.1083,-1.1111,-1.1117,-1.1117,-1.1117,-1.1117,-1.108,-1.0962,-1.0775,-1.0588,-1.0331,-0.996,-0.9733,-0.9549,-0.9279,-0.8932,-0.8551,-0.8102,-0.7757,-0.7369,-0.6907,-0.6525,-0.606,-0.5398,-0.5085,-0.4929,-0.4737,-0.4543,-0.4462,-0.4501,-0.4462,-0.4462,-0.4462,-0.4462,-0.4431,-0.4403,-0.4409,-0.4395,-0.4481,-0.4629,-0.4744,-0.48,-0.4865,-0.4953,-0.5037,-0.5026,-0.5021,-0.5018,-0.5018,-0.5021,-0.494,-0.4859,-0.4662,-0.4462,-0.4233,-0.4038,-0.8689,-0.824,-0.7862,-0.7656,-0.7642,-0.7319,-0.7164,-0.7151,-0.7089,-0.7134,-0.726,-0.7603,-0.7927,-0.8199,-0.8516,-0.8675,-0.8776,-0.9091,-0.9394,-0.9651,-0.9988,-1.0298,-1.0527,-1.0545,-1.0719,-1.0936,-1.0936,-1.1015,-1.1099,-1.1117,-1.1117,-1.1117,-1.1117,-1.1117,-1.1117,-1.1117,-1.1117,-1.1117,-1.1117,-1.1117,-1.1111,-1.1015,-1.0918,-1.0816,-1.058,-1.0529,-1.0631,-1.0733,-1.0815,-1.0876,-1.0882,-1.0882,-1.0889,-1.0913,-1.0992,-1.115,-1.1165,-1.1189,-1.1248,-1.1279,-1.1217,-1.1105,-1.1117,-1.1117,-1.1117,-1.1117,-1.0999,-1.0812,-1.0738,-1.0513,-1.018,-0.9916,-0.9695,-0.9511,-0.9241,-0.8899,-0.8518,-0.8136,-0.7714,-0.7292,-0.6756,-0.6138,-0.5786,-0.5515,-0.5362,-0.5287,-0.509,-0.4971,-0.4929,-0.4893,-0.4779,-0.4781,-0.4781,-0.4781,-0.4781,-0.4665,-0.4626,-0.4665,-0.475,-0.4875,-0.494,-0.494,-0.5026,-0.5029,-0.5018,-0.5018,-0.5018,-0.5018,-0.5018,-0.4979,-0.4898,-0.474,-0.4462,-0.4309,-0.4114,-0.9141,-0.883,-0.8473,-0.8297,-0.8242,-0.7903,-0.7773,-0.7759,-0.773,-0.7669,-0.776,-0.8127,-0.8387,-0.8545,-0.8863,-0.9085,-0.9226,-0.9428,-0.9691,-0.9926,-1.0284,-1.0557,-1.081,-1.0809,-1.09,-1.1087,-1.1117,-1.1117,-1.1117,-1.1117,-1.1117,-1.1117,-1.1117,-1.1117,-1.1117,-1.1117,-1.1117,-1.1117,-1.1117,-1.1117,-1.1117,-1.1117,-1.1117,-1.11,-1.0942,-1.0926,-1.102,-1.1173,-1.1292,-1.1389,-1.143,-1.1435,-1.1522,-1.1472,-1.1499,-1.1605,-1.1578,-1.1539,-1.1557,-1.1484,-1.1335,-1.1223,-1.1149,-1.1117,-1.1117,-1.1117,-1.1037,-1.0925,-1.0812,-1.0669,-1.0443,-1.0143,-0.9879,-0.9657,-0.9468,-0.9208,-0.878,-0.8475,-0.8059,-0.7522,-0.6907,-0.6409,-0.6099,-0.5909,-0.5754,-0.5637,-0.5482,-0.5401,-0.5362,-0.5285,-0.521,-0.5174,-0.5132,-0.509,-0.5051,-0.4935,-0.4818,-0.482,-0.482,-0.494,-0.5018,-0.5018,-0.5018,-0.5018,-0.5018,-0.5018,-0.5018,-0.5018,-0.5018,-0.5018,-0.494,-0.482,-0.4582,-0.4423,-0.419,-0.9344,-0.9289,-0.8876,-0.8745,-0.875,-0.8639,-0.8659,-0.8619,-0.8594,-0.8549,-0.8504,-0.8684,-0.88,-0.8981,-0.9069,-0.9362,-0.9774,-0.9848,-0.9977,-1.025,-1.0545,-1.0809,-1.1063,-1.1075,-1.1075,-1.1117,-1.1117,-1.1117,-1.1117,-1.1117,-1.1117,-1.1117,-1.1117,-1.1117,-1.1117,-1.1117,-1.1117,-1.1117,-1.1117,-1.1117,-1.1117,-1.1117,-1.1117,-1.1111,-1.1255,-1.1309,-1.1264,-1.1373,-1.1441,-1.1414,-1.1449,-1.1583,-1.183,-1.187,-1.1997,-1.2138,-1.21,-1.1996,-1.1959,-1.1632,-1.1477,-1.1335,-1.1223,-1.1149,-1.1117,-1.1117,-1.1111,-1.1037,-1.0925,-1.0818,-1.07,-1.0443,-1.0105,-0.9695,-0.962,-0.9354,-0.8932,-0.8703,-0.8399,-0.7672,-0.7138,-0.6753,-0.6451,-0.63,-0.618,-0.587,-0.5715,-0.5676,-0.5676,-0.5598,-0.5598,-0.5524,-0.5404,-0.5285,-0.5207,-0.5129,-0.5054,-0.4979,-0.4979,-0.5018,-0.5018,-0.5018,-0.5018,-0.5018,-0.5018,-0.5018,-0.5018,-0.5018,-0.5018,-0.4979,-0.494,-0.4859,-0.4582,-0.4345,-0.419,-1.0394,-1.0101,-0.9701,-0.9516,-0.9453,-0.9093,-0.8918,-0.8892,-0.8766,-0.8689,-0.875,-0.899,-0.9129,-0.931,-0.9615,-0.9918,-1.0139,-1.0355,-1.0545,-1.064,-1.0837,-1.1021,-1.1099,-1.1117,-1.1117,-1.1117,-1.1117,-1.1117,-1.1117,-1.1117,-1.1117,-1.1117,-1.1117,-1.1117,-1.1117,-1.1117,-1.1117,-1.1117,-1.1117,-1.1117,-1.1117,-1.1117,-1.1117,-1.1111,-1.1298,-1.1397,-1.1396,-1.1636,-1.1814,-1.1795,-1.1952,-1.2071,-1.2144,-1.2171,-1.2204,-1.2285,-1.2231,-1.2157,-1.2003,-1.1855,-1.1669,-1.1446,-1.1329,-1.1217,-1.1117,-1.1117,-1.1117,-1.1117,-1.1037,-1.0956,-1.0812,-1.0706,-1.04,-1.003,-0.9771,-0.9544,-0.9279,-0.8932,-0.8432,-0.7821,-0.748,-0.7215,-0.6949,-0.6834,-0.6637,-0.6483,-0.6328,-0.6215,-0.6103,-0.5944,-0.5754,-0.5598,-0.5521,-0.5479,-0.5401,-0.5282,-0.5168,-0.5054,-0.5018,-0.5018,-0.5018,-0.5018,-0.5018,-0.5018,-0.5018,-0.5018,-0.5018,-0.5018,-0.5018,-0.5018,-0.4979,-0.4781,-0.4504,-0.4307,-0.4192,-1.0962,-1.0663,-1.0293,-1.0143,-1.0088,-0.9712,-0.9506,-0.9453,-0.9327,-0.9228,-0.9264,-0.9516,-0.9617,-0.9723,-1.0114,-1.0363,-1.0443,-1.07,-1.0856,-1.0931,-1.1037,-1.1117,-1.1117,-1.1117,-1.1117,-1.1117,-1.1117,-1.1117,-1.1117,-1.1117,-1.1117,-1.1117,-1.1117,-1.1117,-1.1117,-1.1117,-1.1117,-1.1117,-1.1117,-1.1117,-1.1117,-1.1117,-1.1117,-1.1111,-1.1223,-1.1304,-1.1298,-1.1589,-1.1818,-1.1892,-1.2077,-1.2224,-1.2268,-1.2298,-1.2305,-1.2305,-1.2305,-1.2231,-1.212,-1.204,-1.1892,-1.1663,-1.1477,-1.1366,-1.1223,-1.1186,-1.1117,-1.1117,-1.1111,-1.1037,-1.0925,-1.0812,-1.07,-1.0443,-1.0067,-0.9771,-0.9582,-0.9084,-0.8623,-0.8165,-0.7906,-0.7676,-0.7442,-0.7249,-0.7096,-0.7022,-0.683,-0.6679,-0.6525,-0.6402,-0.6173,-0.5983,-0.5948,-0.5831,-0.5592,-0.5437,-0.5282,-0.5168,-0.5054,-0.5018,-0.5018,-0.5018,-0.5018,-0.5018,-0.5018,-0.5018,-0.5018,-0.5018,-0.5018,-0.5018,-0.4979,-0.4779,-0.4543,-0.4423,-0.4268,-1.1149,-1.1074,-1.07,-1.0513,-1.0513,-1.0458,-1.0297,-1.0201,-1.0153,-1.0018,-0.9959,-1.0093,-1.0158,-1.0244,-1.0432,-1.0594,-1.0775,-1.0812,-1.0925,-1.1037,-1.1117,-1.1117,-1.1117,-1.1117,-1.1117,-1.1117,-1.1117,-1.1117,-1.1117,-1.1117,-1.1117,-1.1117,-1.1117,-1.1117,-1.1117,-1.1117,-1.1117,-1.1117,-1.1117,-1.1117,-1.1117,-1.1117,-1.1117,-1.1117,-1.1111,-1.1149,-1.1149,-1.1298,-1.1521,-1.1713,-1.1892,-1.204,-1.2194,-1.2268,-1.2268,-1.2268,-1.2268,-1.2305,-1.2268,-1.215,-1.2009,-1.1929,-1.1669,-1.1409,-1.1372,-1.126,-1.1149,-1.1117,-1.1117,-1.1117,-1.1043,-1.0962,-1.0812,-1.0743,-1.0363,-0.9992,-0.962,-0.9122,-0.8818,-0.8665,-0.8365,-0.8059,-0.7863,-0.7672,-0.7484,-0.7334,-0.7138,-0.7022,-0.6945,-0.6826,-0.6788,-0.6563,-0.6296,-0.606,-0.5783,-0.5515,-0.5359,-0.5204,-0.5093,-0.5018,-0.5018,-0.5018,-0.5018,-0.5018,-0.5018,-0.5018,-0.5018,-0.5018,-0.5018,-0.5018,-0.4898,-0.474,-0.4621,-0.4462,-0.4229,-1.1669,-1.1477,-1.1111,-1.0925,-1.0887,-1.0631,-1.0475,-1.04,-1.0406,-1.0368,-1.0331,-1.0406,-1.0406,-1.0438,-1.0625,-1.0738,-1.085,-1.0962,-1.1037,-1.1111,-1.1117,-1.1117,-1.1117,-1.1117,-1.1117,-1.1117,-1.1117,-1.1117,-1.1117,-1.1117,-1.1117,-1.1117,-1.1117,-1.1117,-1.1117,-1.1117,-1.1117,-1.1117,-1.1117,-1.1117,-1.1117,-1.1117,-1.1117,-1.1117,-1.1117,-1.1117,-1.1117,-1.1149,-1.1335,-1.1669,-1.1744,-1.1818,-1.1892,-1.2009,-1.2083,-1.2114,-1.2194,-1.2305,-1.2268,-1.2224,-1.2157,-1.2003,-1.1855,-1.1706,-1.1446,-1.1372,-1.126,-1.1149,-1.1117,-1.1117,-1.1074,-1.1037,-1.0962,-1.0781,-1.0475,-1.0067,-0.9695,-0.9468,-0.9241,-0.8984,-0.8708,-0.8475,-0.8284,-0.8097,-0.791,-0.7834,-0.7642,-0.7492,-0.733,-0.718,-0.7065,-0.6756,-0.6486,-0.6251,-0.598,-0.5709,-0.5479,-0.5282,-0.5168,-0.5018,-0.5018,-0.5018,-0.5018,-0.5018,-0.5018,-0.5018,-0.5018,-0.5018,-0.5018,-0.5018,-0.494,-0.482,-0.4582,-0.4384,-0.419,-1.1929,-1.1818,-1.1484,-1.1298,-1.1186,-1.0999,-1.0775,-1.0663,-1.0631,-1.0556,-1.0513,-1.0588,-1.0631,-1.0625,-1.085,-1.0925,-1.0925,-1.1037,-1.1111,-1.1117,-1.1117,-1.1117,-1.1117,-1.1117,-1.1117,-1.1117,-1.1117,-1.1117,-1.1117,-1.1117,-1.1117,-1.1117,-1.1117,-1.1117,-1.1117,-1.1117,-1.1117,-1.1117,-1.1117,-1.1117,-1.1117,-1.1117,-1.1117,-1.1117,-1.1117,-1.1117,-1.1117,-1.1117,-1.126,-1.1484,-1.1595,-1.1632,-1.1706,-1.1781,-1.1898,-1.1892,-1.2003,-1.204,-1.2077,-1.2114,-1.212,-1.204,-1.2003,-1.1898,-1.1669,-1.1521,-1.1329,-1.1254,-1.1186,-1.1111,-1.1117,-1.1117,-1.0999,-1.0812,-1.0588,-1.0293,-0.9916,-0.9695,-0.9506,-0.9284,-0.9056,-0.8861,-0.8675,-0.8446,-0.8327,-0.8212,-0.8025,-0.7834,-0.7642,-0.7492,-0.73,-0.6988,-0.6718,-0.6521,-0.6212,-0.5941,-0.5595,-0.5401,-0.5129,-0.5018,-0.5018,-0.5018,-0.5018,-0.5018,-0.5018,-0.5018,-0.5018,-0.5018,-0.5018,-0.4979,-0.494,-0.4781,-0.4543,-0.4309,-0.4114,-1.204,-1.2009,-1.1781,-1.1632,-1.1484,-1.1446,-1.1223,-1.0962,-1.0887,-1.0812,-1.07,-1.0775,-1.0856,-1.0856,-1.0999,-1.1117,-1.1074,-1.1074,-1.1117,-1.1117,-1.1117,-1.1117,-1.1117,-1.1117,-1.1117,-1.1117,-1.1117,-1.1117,-1.1117,-1.1117,-1.1117,-1.1117,-1.1117,-1.1117,-1.1117,-1.1117,-1.1117,-1.1117,-1.1117,-1.1117,-1.1117,-1.1117,-1.1117,-1.1117,-1.1117,-1.1117,-1.1117,-1.1117,-1.1186,-1.1335,-1.1372,-1.1446,-1.1595,-1.1632,-1.1669,-1.1669,-1.1744,-1.1744,-1.1744,-1.1892,-1.1972,-1.1972,-1.1966,-1.1966,-1.1855,-1.1632,-1.1446,-1.1366,-1.1229,-1.1117,-1.1117,-1.1117,-1.1037,-1.0887,-1.0812,-1.0625,-1.0293,-0.9879,-0.9657,-0.962,-0.943,-0.9246,-0.9056,-0.8861,-0.8708,-0.856,-0.8369,-0.8174,-0.7949,-0.7761,-0.7531,-0.7257,-0.7022,-0.6791,-0.6483,-0.6173,-0.5828,-0.5518,-0.5171,-0.5018,-0.5018,-0.5018,-0.5018,-0.5018,-0.5018,-0.5018,-0.5018,-0.5018,-0.5018,-0.494,-0.4898,-0.4662,-0.4423,-0.427,-0.4077,-1.2224,-1.2224,-1.2009,-1.1892,-1.1855,-1.1706,-1.1595,-1.1484,-1.1329,-1.1223,-1.1186,-1.1111,-1.1043,-1.1031,-1.1074,-1.1117,-1.1117,-1.1117,-1.1117,-1.1117,-1.1117,-1.1117,-1.1117,-1.1117,-1.1117,-1.1117,-1.1117,-1.1117,-1.1117,-1.1117,-1.1117,-1.1117,-1.1117,-1.1117,-1.1117,-1.1117,-1.1117,-1.1117,-1.1117,-1.1117,-1.1117,-1.1117,-1.1117,-1.1117,-1.1117,-1.1117,-1.1117,-1.1117,-1.1037,-1.0999,-1.1074,-1.1186,-1.1223,-1.1335,-1.1409,-1.1484,-1.1595,-1.1669,-1.1706,-1.1706,-1.1781,-1.1781,-1.1892,-1.1922,-1.1781,-1.1706,-1.1558,-1.1409,-1.1223,-1.1149,-1.1117,-1.1117,-1.108,-1.1005,-1.0887,-1.0775,-1.0625,-1.0288,-0.996,-0.9695,-0.9582,-0.9473,-0.9251,-0.9208,-0.9056,-0.8908,-0.8713,-0.8518,-0.825,-0.7991,-0.7761,-0.7488,-0.7099,-0.6826,-0.6595,-0.6212,-0.5789,-0.5521,-0.5212,-0.5018,-0.5018,-0.5018,-0.5018,-0.5018,-0.5018,-0.5018,-0.5018,-0.5018,-0.5018,-0.4937,-0.482,-0.4621,-0.4426,-0.4233,-0.3923,-1.2378,-1.2305,-1.2194,-1.2077,-1.2003,-1.1892,-1.1787,-1.1669,-1.1595,-1.1484,-1.1409,-1.126,-1.1186,-1.1117,-1.1117,-1.1117,-1.1117,-1.1117,-1.1117,-1.1117,-1.1117,-1.1117,-1.1117,-1.1117,-1.1117,-1.1117,-1.1117,-1.1117,-1.1117,-1.1117,-1.1117,-1.1117,-1.1117,-1.1117,-1.1117,-1.1117,-1.1117,-1.1117,-1.1117,-1.1117,-1.1117,-1.1117,-1.1117,-1.1117,-1.1117,-1.1117,-1.1117,-1.0999,-1.0887,-1.0812,-1.0812,-1.0812,-1.0812,-1.0925,-1.0999,-1.1149,-1.118,-1.1335,-1.1372,-1.1484,-1.1558,-1.1552,-1.1744,-1.1781,-1.17,-1.1706,-1.1589,-1.1446,-1.1298,-1.1223,-1.1117,-1.1117,-1.1117,-1.1117,-1.1037,-1.0887,-1.0775,-1.0443,-1.0148,-0.9922,-0.9809,-0.9657,-0.9506,-0.9473,-0.9246,-0.9018,-0.8908,-0.8708,-0.8365,-0.8102,-0.7915,-0.7603,-0.7176,-0.6826,-0.6633,-0.6289,-0.575,-0.5482,-0.5251,-0.5057,-0.5018,-0.5018,-0.5018,-0.5018,-0.5018,-0.5018,-0.5018,-0.5018,-0.4979,-0.494,-0.482,-0.4621,-0.4387,-0.4153,-0.3765,-1.2489,-1.2305,-1.2305,-1.2187,-1.2077,-1.204,-1.1966,-1.1824,-1.1737,-1.1676,-1.1527,-1.1446,-1.1298,-1.1192,-1.1117,-1.1117,-1.1117,-1.1117,-1.1117,-1.1117,-1.1117,-1.1117,-1.1117,-1.1117,-1.1117,-1.1117,-1.1117,-1.1117,-1.1117,-1.1117,-1.1117,-1.1117,-1.1117,-1.1117,-1.1117,-1.1117,-1.1117,-1.1117,-1.1117,-1.1117,-1.1117,-1.1117,-1.1117,-1.1117,-1.1117,-1.108,-1.1005,-1.0925,-1.0775,-1.07,-1.0556,-1.0438,-1.04,-1.0519,-1.0556,-1.0781,-1.0812,-1.0925,-1.1074,-1.1223,-1.1298,-1.1329,-1.1515,-1.1632,-1.1632,-1.1632,-1.1558,-1.1484,-1.1409,-1.1298,-1.1149,-1.1117,-1.1117,-1.1117,-1.1117,-1.1037,-1.085,-1.0519,-1.0331,-1.018,-1.003,-0.9846,-0.9733,-0.9663,-0.9397,-0.917,-0.9094,-0.8903,-0.856,-0.8217,-0.8025,-0.7718,-0.7253,-0.6791,-0.6521,-0.6173,-0.5676,-0.5482,-0.5251,-0.5096,-0.5018,-0.5018,-0.5018,-0.5018,-0.5018,-0.5018,-0.5018,-0.5018,-0.4979,-0.494,-0.474,-0.4504,-0.4268,-0.4036,-0.3645,-1.2489,-1.2305,-1.2305,-1.2305,-1.2268,-1.2231,-1.2231,-1.2187,-1.2003,-1.1929,-1.1855,-1.1564,-1.1409,-1.1298,-1.1143,-1.1111,-1.1117,-1.1117,-1.1117,-1.1117,-1.1117,-1.1117,-1.1117,-1.1117,-1.1117,-1.1117,-1.1117,-1.1117,-1.1117,-1.1117,-1.1117,-1.1117,-1.1117,-1.1117,-1.1117,-1.1117,-1.1117,-1.1117,-1.1117,-1.1117,-1.1117,-1.1117,-1.1117,-1.1117,-1.1074,-1.0999,-1.0887,-1.0812,-1.0625,-1.0325,-1.0255,-1.0143,-1.0105,-1.0293,-1.0443,-1.055,-1.0556,-1.0625,-1.0812,-1.0887,-1.0999,-1.1149,-1.1298,-1.1409,-1.1446,-1.149,-1.1521,-1.1558,-1.1484,-1.1335,-1.1117,-1.1111,-1.1117,-1.1117,-1.1117,-1.1074,-1.0999,-1.0812,-1.0556,-1.0331,-1.018,-1.0073,-0.9922,-0.9809,-0.962,-0.9392,-0.9246,-0.9099,-0.8832,-0.8446,-0.8063,-0.7753,-0.7365,-0.6868,-0.6409,-0.5986,-0.5598,-0.5521,-0.5326,-0.5096,-0.5018,-0.5018,-0.5018,-0.5018,-0.5018,-0.5018,-0.5018,-0.5018,-0.4979,-0.4979,-0.4701,-0.4384,-0.4268,-0.4075,-0.3645,-1.2599,-1.2305,-1.2305,-1.2305,-1.2305,-1.2305,-1.2305,-1.2268,-1.2194,-1.212,-1.1929,-1.1706,-1.1484,-1.1372,-1.1186,-1.1117,-1.1117,-1.1117,-1.1117,-1.1117,-1.1117,-1.1117,-1.1117,-1.1117,-1.1117,-1.1117,-1.1117,-1.1117,-1.1117,-1.1117,-1.1117,-1.1117,-1.1117,-1.1117,-1.1117,-1.1117,-1.1117,-1.1117,-1.1117,-1.1117,-1.1117,-1.1117,-1.1117,-1.1074,-1.0999,-1.0887,-1.0775,-1.055,-1.04,-1.0218,-0.9997,-0.9846,-0.9809,-0.9846,-1.003,-1.0255,-1.0331,-1.0438,-1.0588,-1.0663,-1.0743,-1.0931,-1.1037,-1.1111,-1.1223,-1.1335,-1.1484,-1.1595,-1.1521,-1.1372,-1.1298,-1.1186,-1.1111,-1.1117,-1.1117,-1.1117,-1.108,-1.0999,-1.0775,-1.0519,-1.0331,-1.018,-1.011,-0.996,-0.9809,-0.962,-0.943,-0.9246,-0.9027,-0.8565,-0.8102,-0.7714,-0.7326,-0.683,-0.6331,-0.5909,-0.5559,-0.5482,-0.5326,-0.5096,-0.5018,-0.5018,-0.5018,-0.5018,-0.5018,-0.5018,-0.5018,-0.5018,-0.5018,-0.4979,-0.4662,-0.4384,-0.4307,-0.4075,-0.3645,-1.268,-1.2305,-1.2305,-1.2305,-1.2305,-1.2305,-1.2305,-1.2305,-1.2305,-1.2224,-1.204,-1.1855,-1.1669,-1.1446,-1.1223,-1.1117,-1.1117,-1.1117,-1.1117,-1.1117,-1.1117,-1.1117,-1.1117,-1.1117,-1.1117,-1.1117,-1.1117,-1.1117,-1.1117,-1.1117,-1.1117,-1.1117,-1.1117,-1.1117,-1.1117,-1.1117,-1.1117,-1.1117,-1.1117,-1.1117,-1.1117,-1.1117,-1.1074,-1.1037,-1.0887,-1.0781,-1.0631,-1.0406,-1.018,-0.9992,-0.9803,-0.9582,-0.9506,-0.9397,-0.9544,-0.9922,-1.0035,-1.018,-1.0331,-1.0443,-1.0556,-1.0812,-1.0812,-1.0925,-1.1111,-1.1335,-1.1521,-1.1595,-1.1632,-1.1484,-1.1409,-1.126,-1.1149,-1.1117,-1.1117,-1.1117,-1.1117,-1.108,-1.1005,-1.0743,-1.0519,-1.0331,-1.0223,-1.0105,-0.9954,-0.9695,-0.9506,-0.9322,-0.9061,-0.8489,-0.8025,-0.7638,-0.7253,-0.6753,-0.6293,-0.587,-0.5559,-0.5443,-0.5249,-0.5057,-0.5018,-0.5018,-0.5018,-0.5018,-0.5018,-0.5018,-0.5018,-0.4979,-0.494,-0.482,-0.4582,-0.4387,-0.4231,-0.3958,-0.3567,-1.268,-1.2305,-1.2305,-1.2305,-1.2305,-1.2305,-1.2305,-1.2305,-1.2305,-1.2305,-1.2231,-1.204,-1.1855,-1.1558,-1.126,-1.1111,-1.1117,-1.1117,-1.1117,-1.1117,-1.1117,-1.1117,-1.1117,-1.1117,-1.1117,-1.1117,-1.1117,-1.1117,-1.1117,-1.1117,-1.1117,-1.1117,-1.1117,-1.1117,-1.1117,-1.1117,-1.1117,-1.1117,-1.1117,-1.1117,-1.1117,-1.1117,-1.0999,-1.0887,-1.0775,-1.0631,-1.0368,-1.0218,-1.0067,-0.9733,-0.9657,-0.9511,-0.9359,-0.9322,-0.9322,-0.9435,-0.9587,-0.9771,-0.996,-1.0105,-1.0363,-1.0625,-1.0743,-1.0887,-1.1111,-1.1409,-1.1595,-1.1446,-1.1706,-1.1744,-1.1521,-1.1372,-1.1298,-1.1186,-1.1111,-1.1111,-1.1117,-1.1117,-1.1043,-1.0999,-1.0738,-1.0481,-1.0293,-1.0218,-1.0105,-0.9809,-0.9549,-0.9359,-0.9056,-0.8484,-0.7834,-0.7407,-0.7173,-0.671,-0.6212,-0.5792,-0.5559,-0.5401,-0.521,-0.5018,-0.5018,-0.5018,-0.5018,-0.5018,-0.5018,-0.5018,-0.5018,-0.4979,-0.4898,-0.474,-0.4543,-0.435,-0.4157,-0.3804,-0.3489,-1.268,-1.2305,-1.2305,-1.2305,-1.2305,-1.2305,-1.2305,-1.2305,-1.2305,-1.2305,-1.2268,-1.2083,-1.1818,-1.1521,-1.1223,-1.1117,-1.1117,-1.1117,-1.1117,-1.1117,-1.1117,-1.1117,-1.1117,-1.1117,-1.1117,-1.1117,-1.1117,-1.1117,-1.1117,-1.1117,-1.1117,-1.1117,-1.1117,-1.1117,-1.1117,-1.1117,-1.1117,-1.1117,-1.1117,-1.1117,-1.1117,-1.1074,-1.0999,-1.0775,-1.07,-1.0475,-1.0255,-1.0067,-0.9879,-0.962,-0.9506,-0.9322,-0.9137,-0.9018,-0.8975,-0.8975,-0.917,-0.9397,-0.97,-0.9809,-1.0105,-1.04,-1.0594,-1.0775,-1.1068,-1.144,-1.1669,-1.1595,-1.1818,-1.1892,-1.1706,-1.1521,-1.1372,-1.126,-1.1186,-1.1111,-1.1111,-1.1117,-1.1074,-1.1037,-1.0993,-1.07,-1.0443,-1.0293,-1.0143,-0.9884,-0.9587,-0.9322,-0.9018,-0.856,-0.7829,-0.7057,-0.6903,-0.6672,-0.6212,-0.575,-0.5559,-0.5362,-0.5171,-0.5015,-0.5018,-0.5018,-0.5018,-0.5018,-0.5018,-0.5018,-0.5018,-0.4979,-0.4937,-0.474,-0.4543,-0.435,-0.4116,-0.3763,-0.337,-1.2673,-1.2305,-1.2305,-1.2305,-1.2305,-1.2305,-1.2305,-1.2305,-1.2305,-1.2305,-1.2231,-1.2077,-1.1781,-1.1484,-1.1298,-1.1155,-1.1117,-1.1117,-1.1117,-1.1117,-1.1117,-1.1117,-1.1117,-1.1117,-1.1117,-1.1117,-1.1117,-1.1117,-1.1117,-1.1117,-1.1117,-1.1117,-1.1117,-1.1117,-1.1117,-1.1117,-1.1117,-1.1117,-1.1117,-1.1117,-1.1111,-1.1031,-1.0887,-1.0738,-1.055,-1.0331,-1.0143,-0.9954,-0.9733,-0.9511,-0.9322,-0.9132,-0.8941,-0.8822,-0.878,-0.8784,-0.8903,-0.9132,-0.9435,-0.962,-0.9809,-1.0105,-1.0438,-1.0775,-1.1074,-1.1446,-1.1706,-1.1669,-1.1966,-1.2046,-1.1972,-1.1706,-1.1558,-1.1409,-1.126,-1.1186,-1.1105,-1.1111,-1.1117,-1.1074,-1.0999,-1.085,-1.0588,-1.04,-1.018,-0.9922,-0.9625,-0.9284,-0.8865,-0.8446,-0.7829,-0.7061,-0.6865,-0.6633,-0.6057,-0.5673,-0.5479,-0.5323,-0.5132,-0.5015,-0.5018,-0.5018,-0.5018,-0.5018,-0.5018,-0.5018,-0.5018,-0.4979,-0.4898,-0.4662,-0.4426,-0.427,-0.4036,-0.3682,-0.3175,-1.2673,-1.2305,-1.2305,-1.2305,-1.2305,-1.2305,-1.2305,-1.2305,-1.2305,-1.2305,-1.2268,-1.2077,-1.1892,-1.1669,-1.1446,-1.126,-1.1117,-1.1117,-1.1117,-1.1117,-1.1117,-1.1117,-1.1117,-1.1117,-1.1117,-1.1117,-1.1117,-1.1117,-1.1117,-1.1117,-1.1117,-1.1117,-1.1117,-1.1117,-1.1117,-1.1117,-1.1117,-1.1117,-1.1117,-1.1074,-1.1037,-1.0925,-1.0738,-1.0513,-1.0331,-1.0105,-0.9922,-0.9733,-0.9549,-0.9327,-0.9175,-0.898,-0.8822,-0.8746,-0.8703,-0.8703,-0.8746,-0.8975,-0.9284,-0.9511,-0.9809,-1.0175,-1.0513,-1.0775,-1.1074,-1.1484,-1.1669,-1.1744,-1.2009,-1.2157,-1.2083,-1.1929,-1.1744,-1.1595,-1.1409,-1.1298,-1.1186,-1.1111,-1.1117,-1.1117,-1.0999,-1.0887,-1.0663,-1.0438,-1.018,-0.9922,-0.9549,-0.9208,-0.8599,-0.814,-0.7714,-0.7176,-0.698,-0.6556,-0.5828,-0.5559,-0.5482,-0.5287,-0.5093,-0.5015,-0.5018,-0.5018,-0.5018,-0.5018,-0.5018,-0.5018,-0.5007,-0.4938,-0.4812,-0.453,-0.4345,-0.4192,-0.3882,-0.3452,-0.2865,-1.2636,-1.2298,-1.2305,-1.2305,-1.2305,-1.2305,-1.2305,-1.2305,-1.2305,-1.2305,-1.2305,-1.2077,-1.1892,-1.1706,-1.1484,-1.1298,-1.1111,-1.1117,-1.1117,-1.1117,-1.1117,-1.1117,-1.1117,-1.1117,-1.1117,-1.1117,-1.1117,-1.1117,-1.1117,-1.1117,-1.1117,-1.1117,-1.1117,-1.1117,-1.1117,-1.1117,-1.1117,-1.1111,-1.1074,-1.1037,-1.0887,-1.085,-1.0625,-1.0325,-1.025,-1.003,-0.9771,-0.9657,-0.9397,-0.9175,-0.9061,-0.8903,-0.8746,-0.8703,-0.8703,-0.8703,-0.8703,-0.8894,-0.9208,-0.9435,-0.9695,-1.0293,-1.055,-1.0738,-1.1074,-1.149,-1.1669,-1.1818,-1.2046,-1.2231,-1.2194,-1.2083,-1.1892,-1.1737,-1.1589,-1.1446,-1.1298,-1.1186,-1.1111,-1.1111,-1.1037,-1.0919,-1.07,-1.0513,-1.0218,-0.9922,-0.9506,-0.9056,-0.8484,-0.7987,-0.7599,-0.7215,-0.698,-0.6595,-0.5902,-0.5673,-0.5521,-0.5287,-0.5093,-0.5018,-0.5018,-0.5018,-0.5018,-0.5018,-0.4993,-0.4963,-0.4936,-0.4912,-0.4729,-0.4457,-0.4251,-0.4114,-0.3726,-0.3258,-0.271,-1.2673,-1.2415,-1.2335,-1.2305,-1.2305,-1.2305,-1.2305,-1.2305,-1.2305,-1.2305,-1.2305,-1.212,-1.1966,-1.1781,-1.1595,-1.1372,-1.1223,-1.1149,-1.1117,-1.1117,-1.1117,-1.1117,-1.1117,-1.1117,-1.1117,-1.1117,-1.1117,-1.1117,-1.1117,-1.1117,-1.1117,-1.1117,-1.1117,-1.1117,-1.1117,-1.1117,-1.1117,-1.1074,-1.0999,-1.0962,-1.0812,-1.0663,-1.0513,-1.018,-1.0067,-0.9879,-0.962,-0.9473,-0.9251,-0.9061,-0.8946,-0.8827,-0.8746,-0.8703,-0.8703,-0.8703,-0.8742,-0.8894,-0.9208,-0.9511,-0.9809,-1.0368,-1.0481,-1.0738,-1.108,-1.1446,-1.1669,-1.1744,-1.2046,-1.2305,-1.2305,-1.2194,-1.204,-1.1892,-1.1781,-1.1632,-1.1409,-1.1298,-1.1186,-1.1105,-1.1031,-1.0956,-1.07,-1.0481,-1.0067,-0.9809,-0.9506,-0.898,-0.8369,-0.7949,-0.768,-0.7292,-0.6942,-0.6479,-0.6015,-0.5786,-0.5521,-0.5323,-0.5129,-0.5057,-0.5018,-0.5012,-0.4977,-0.4901,-0.4874,-0.489,-0.4847,-0.4795,-0.4623,-0.4392,-0.419,-0.3947,-0.3569,-0.3102,-0.271,-1.2783,-1.2569,-1.2378,-1.2305,-1.2305,-1.2305,-1.2305,-1.2305,-1.2305,-1.2305,-1.2305,-1.2268,-1.2157,-1.1929,-1.1744,-1.1521,-1.1335,-1.1186,-1.1117,-1.1117,-1.1117,-1.1117,-1.1117,-1.1117,-1.1111,-1.1117,-1.1149,-1.1149,-1.1155,-1.1149,-1.1149,-1.1111,-1.1111,-1.1117,-1.1117,-1.1117,-1.1117,-1.108,-1.0925,-1.0812,-1.07,-1.0438,-1.0255,-1.0067,-0.9846,-0.9657,-0.9473,-0.9246,-0.9061,-0.8946,-0.8784,-0.8703,-0.8703,-0.8665,-0.8665,-0.8703,-0.8703,-0.8899,-0.9289,-0.9657,-1.0067,-1.0443,-1.0519,-1.0738,-1.1111,-1.1446,-1.1706,-1.1787,-1.2083,-1.2268,-1.2305,-1.2268,-1.2157,-1.2083,-1.1972,-1.1787,-1.1558,-1.1372,-1.1254,-1.1149,-1.1074,-1.0999,-1.0743,-1.0443,-0.9916,-0.962,-0.9397,-0.8903,-0.8293,-0.7949,-0.7757,-0.7292,-0.6865,-0.656,-0.6135,-0.5789,-0.5518,-0.5321,-0.516,-0.504,-0.4991,-0.4933,-0.489,-0.4825,-0.4819,-0.479,-0.4727,-0.4662,-0.4451,-0.4232,-0.3975,-0.3701,-0.3326,-0.3022,-0.263,-1.2783,-1.2599,-1.2372,-1.2305,-1.2305,-1.2305,-1.2305,-1.2305,-1.2305,-1.2305,-1.2305,-1.2305,-1.2194,-1.1966,-1.1774,-1.1595,-1.1403,-1.1186,-1.1117,-1.1117,-1.1117,-1.1117,-1.1117,-1.1149,-1.1186,-1.126,-1.1298,-1.1372,-1.1521,-1.1372,-1.1298,-1.1298,-1.1149,-1.1117,-1.1117,-1.1117,-1.1117,-1.1074,-1.0925,-1.0738,-1.0588,-1.0331,-1.0067,-0.9841,-0.9657,-0.9473,-0.9284,-0.9061,-0.8908,-0.8789,-0.8589,-0.8551,-0.8589,-0.8589,-0.8551,-0.8665,-0.8703,-0.8894,-0.9316,-0.9771,-1.018,-1.0443,-1.0631,-1.085,-1.126,-1.1521,-1.1744,-1.1898,-1.2114,-1.2268,-1.2305,-1.2305,-1.2231,-1.2187,-1.2077,-1.1892,-1.1669,-1.1484,-1.1329,-1.1186,-1.1074,-1.0887,-1.0669,-1.0443,-0.9992,-0.9582,-0.9359,-0.8865,-0.8255,-0.8063,-0.7834,-0.7292,-0.6826,-0.6598,-0.6293,-0.5906,-0.5654,-0.5446,-0.5209,-0.4972,-0.4955,-0.4906,-0.4828,-0.4741,-0.4711,-0.4681,-0.4574,-0.4466,-0.4251,-0.4036,-0.3829,-0.3606,-0.3251,-0.2982,-0.2747,-1.2826,-1.2673,-1.2409,-1.2305,-1.2305,-1.2305,-1.2305,-1.2305,-1.2305,-1.2305,-1.2305,-1.2305,-1.2231,-1.2077,-1.1892,-1.1706,-1.1477,-1.1298,-1.1149,-1.1111,-1.1117,-1.1149,-1.1186,-1.1223,-1.1335,-1.1446,-1.1521,-1.1601,-1.1669,-1.1558,-1.1484,-1.1335,-1.118,-1.1111,-1.1117,-1.1117,-1.1117,-1.1037,-1.085,-1.0625,-1.0475,-1.0218,-0.9922,-0.9695,-0.9506,-0.9322,-0.9061,-0.887,-0.8713,-0.8594,-0.8441,-0.8369,-0.8441,-0.8475,-0.8441,-0.8556,-0.8861,-0.9013,-0.9354,-0.9954,-1.0325,-1.0475,-1.07,-1.0999,-1.1335,-1.1595,-1.1781,-1.1966,-1.2187,-1.2268,-1.2305,-1.2305,-1.2305,-1.2268,-1.2194,-1.2009,-1.1818,-1.1626,-1.1446,-1.1298,-1.1074,-1.085,-1.0588,-1.0368,-1.0105,-0.9695,-0.9284,-0.8751,-0.8298,-0.8102,-0.7834,-0.7249,-0.6822,-0.6633,-0.6328,-0.5983,-0.5764,-0.5573,-0.5278,-0.4983,-0.4833,-0.4805,-0.4728,-0.4662,-0.4635,-0.4561,-0.4421,-0.4241,-0.4132,-0.396,-0.3773,-0.3514,-0.3163,-0.2982,-0.2826,-1.29,-1.2863,-1.2489,-1.2298,-1.2305,-1.2305,-1.2305,-1.2305,-1.2305,-1.2305,-1.2305,-1.2305,-1.2268,-1.2224,-1.2077,-1.1892,-1.1706,-1.1484,-1.1335,-1.1223,-1.1229,-1.1298,-1.1372,-1.1409,-1.1521,-1.1632,-1.1706,-1.1744,-1.1744,-1.1706,-1.1632,-1.1409,-1.126,-1.1149,-1.1111,-1.1117,-1.1117,-1.0999,-1.0738,-1.0588,-1.0438,-1.0105,-0.9809,-0.9582,-0.9397,-0.9208,-0.8941,-0.867,-0.8518,-0.8365,-0.8217,-0.814,-0.8178,-0.8289,-0.8365,-0.8556,-0.8975,-0.9208,-0.9392,-0.9992,-1.0363,-1.0513,-1.0738,-1.1037,-1.1335,-1.1669,-1.1855,-1.2046,-1.2231,-1.2268,-1.2305,-1.2305,-1.2305,-1.2305,-1.2305,-1.2157,-1.1966,-1.1818,-1.1595,-1.1409,-1.1186,-1.0962,-1.0625,-1.0368,-1.018,-0.9657,-0.9208,-0.8827,-0.8369,-0.814,-0.7791,-0.7134,-0.6822,-0.6665,-0.6349,-0.5966,-0.5743,-0.5563,-0.5274,-0.4978,-0.4823,-0.4706,-0.4608,-0.4555,-0.4525,-0.4458,-0.441,-0.4246,-0.4049,-0.391,-0.3788,-0.3474,-0.3175,-0.31,-0.2904,-1.3053,-1.2863,-1.2636,-1.2445,-1.2305,-1.2305,-1.2305,-1.2305,-1.2305,-1.2305,-1.2305,-1.2305,-1.2305,-1.2268,-1.2077,-1.1966,-1.1855,-1.1713,-1.1595,-1.1521,-1.1446,-1.1552,-1.1595,-1.1632,-1.175,-1.1861,-1.1935,-1.1966,-1.204,-1.2009,-1.1713,-1.1446,-1.1335,-1.126,-1.1149,-1.1117,-1.1117,-1.1005,-1.0706,-1.055,-1.0368,-1.0067,-0.9771,-0.9473,-0.9322,-0.9094,-0.8784,-0.8518,-0.8403,-0.8327,-0.8063,-0.7953,-0.8102,-0.8178,-0.8255,-0.8632,-0.9013,-0.9322,-0.9435,-1.003,-1.0513,-1.0625,-1.0962,-1.1298,-1.1595,-1.1781,-1.1966,-1.2114,-1.2231,-1.2268,-1.2305,-1.2305,-1.2305,-1.2305,-1.2305,-1.2194,-1.2077,-1.1929,-1.1744,-1.1446,-1.1223,-1.0925,-1.0625,-1.0475,-1.0218,-0.962,-0.9132,-0.8784,-0.8446,-0.8178,-0.7711,-0.7053,-0.6774,-0.6638,-0.6266,-0.5883,-0.569,-0.5509,-0.5225,-0.4957,-0.4752,-0.4609,-0.4522,-0.4484,-0.4506,-0.4501,-0.4484,-0.4288,-0.4094,-0.3952,-0.3817,-0.3482,-0.3209,-0.3096,-0.2826,-1.3083,-1.2893,-1.2673,-1.2489,-1.2305,-1.2305,-1.2305,-1.2305,-1.2305,-1.2305,-1.2305,-1.2305,-1.2305,-1.2268,-1.2187,-1.2077,-1.1966,-1.1855,-1.1744,-1.1669,-1.1706,-1.1744,-1.1787,-1.1855,-1.1935,-1.2046,-1.212,-1.215,-1.2224,-1.2114,-1.1818,-1.1669,-1.1521,-1.1372,-1.1267,-1.1155,-1.1117,-1.0968,-1.0781,-1.055,-1.0331,-1.0035,-0.9625,-0.9359,-0.9251,-0.898,-0.8632,-0.8403,-0.8289,-0.8174,-0.7799,-0.7718,-0.791,-0.7987,-0.8293,-0.867,-0.9051,-0.9322,-0.9549,-1.0067,-1.0438,-1.0738,-1.1149,-1.1477,-1.1706,-1.1855,-1.2077,-1.2224,-1.2268,-1.2305,-1.2305,-1.2305,-1.2305,-1.2305,-1.2268,-1.2224,-1.215,-1.204,-1.1781,-1.1446,-1.1186,-1.0887,-1.07,-1.0588,-1.0255,-0.962,-0.917,-0.8827,-0.8484,-0.8178,-0.7559,-0.6889,-0.6723,-0.6588,-0.6169,-0.5818,-0.5666,-0.5487,-0.5303,-0.5058,-0.4786,-0.4617,-0.4537,-0.4508,-0.4525,-0.4542,-0.4577,-0.4351,-0.4173,-0.4047,-0.3853,-0.3465,-0.3134,-0.2901,-0.2552,-1.3083,-1.2893,-1.2666,-1.2445,-1.2305,-1.2305,-1.2305,-1.2305,-1.2305,-1.2305,-1.2305,-1.2305,-1.2305,-1.2305,-1.2268,-1.2187,-1.2114,-1.2003,-1.1966,-1.1744,-1.1818,-1.1898,-1.2003,-1.204,-1.2114,-1.2231,-1.2268,-1.2261,-1.2224,-1.215,-1.204,-1.1966,-1.1626,-1.1409,-1.1335,-1.1186,-1.1111,-1.1037,-1.0775,-1.055,-1.0368,-0.9997,-0.9549,-0.9327,-0.9137,-0.887,-0.8484,-0.8217,-0.803,-0.7795,-0.7642,-0.7561,-0.7757,-0.791,-0.8289,-0.8708,-0.9132,-0.9392,-0.9695,-1.018,-1.0513,-1.0887,-1.1335,-1.1589,-1.1744,-1.1966,-1.2194,-1.2268,-1.2305,-1.2305,-1.2305,-1.2305,-1.2305,-1.2305,-1.2268,-1.2268,-1.2231,-1.2077,-1.1855,-1.1558,-1.1298,-1.0999,-1.0625,-1.0475,-1.018,-0.9582,-0.9208,-0.8903,-0.8484,-0.814,-0.7508,-0.6798,-0.6663,-0.6504,-0.5999,-0.5698,-0.5595,-0.5466,-0.5312,-0.5121,-0.4873,-0.4726,-0.4563,-0.4602,-0.4618,-0.4668,-0.4655,-0.4435,-0.4275,-0.4139,-0.3868,-0.3439,-0.3098,-0.2746,-0.2395,-1.3236,-1.2863,-1.2526,-1.2342,-1.2298,-1.2305,-1.2305,-1.2305,-1.2305,-1.2305,-1.2305,-1.2305,-1.2305,-1.2305,-1.2305,-1.2231,-1.2231,-1.2187,-1.2194,-1.212,-1.212,-1.2083,-1.2194,-1.2187,-1.2261,-1.2268,-1.2305,-1.2305,-1.2268,-1.2231,-1.2157,-1.2003,-1.1744,-1.1595,-1.1409,-1.1223,-1.1111,-1.1074,-1.085,-1.0625,-1.0443,-1.0105,-0.9695,-0.9435,-0.917,-0.8865,-0.8518,-0.8217,-0.7991,-0.7799,-0.7599,-0.7676,-0.7949,-0.8063,-0.8369,-0.8832,-0.9175,-0.9473,-0.9846,-1.0218,-1.0594,-1.0925,-1.1292,-1.1558,-1.1781,-1.2083,-1.2231,-1.2268,-1.2305,-1.2305,-1.2305,-1.2305,-1.2305,-1.2305,-1.2305,-1.2305,-1.2305,-1.212,-1.1892,-1.1669,-1.1446,-1.1074,-1.0663,-1.0331,-0.9992,-0.9695,-0.9435,-0.9056,-0.8484,-0.8016,-0.7496,-0.6911,-0.6675,-0.6401,-0.5898,-0.5627,-0.5538,-0.5443,-0.5291,-0.5138,-0.4967,-0.485,-0.4717,-0.4706,-0.4728,-0.4751,-0.4742,-0.4515,-0.4373,-0.4257,-0.3803,-0.3329,-0.2943,-0.2591,-0.2239,-1.3302,-1.2966,-1.2599,-1.2378,-1.2305,-1.2305,-1.2305,-1.2305,-1.2305,-1.2305,-1.2305,-1.2305,-1.2305,-1.2305,-1.2305,-1.2305,-1.2305,-1.2305,-1.2268,-1.2305,-1.2305,-1.2268,-1.2305,-1.2305,-1.2305,-1.2305,-1.2305,-1.2305,-1.2305,-1.2305,-1.2231,-1.2114,-1.1929,-1.1706,-1.1521,-1.1335,-1.1186,-1.1117,-1.0893,-1.0706,-1.0475,-1.0105,-0.9695,-0.9397,-0.9132,-0.8827,-0.8446,-0.814,-0.7949,-0.7718,-0.7561,-0.7714,-0.7949,-0.8063,-0.8408,-0.8827,-0.9208,-0.9511,-0.996,-1.0331,-1.0669,-1.1074,-1.1366,-1.1669,-1.1892,-1.212,-1.2268,-1.2305,-1.2305,-1.2305,-1.2305,-1.2305,-1.2305,-1.2305,-1.2305,-1.2305,-1.2231,-1.2114,-1.1929,-1.1706,-1.1446,-1.1111,-1.0738,-1.0475,-1.0105,-0.9582,-0.9322,-0.898,-0.8446,-0.7974,-0.7454,-0.6982,-0.67,-0.6259,-0.57,-0.5511,-0.5457,-0.5363,-0.5309,-0.5255,-0.5145,-0.5003,-0.4887,-0.4885,-0.4886,-0.4887,-0.4801,-0.4593,-0.4445,-0.4327,-0.3789,-0.3139,-0.2788,-0.2474,-0.2123,-1.339,-1.3119,-1.2753,-1.2489,-1.2305,-1.2305,-1.2305,-1.2305,-1.2305,-1.2305,-1.2305,-1.2305,-1.2305,-1.2305,-1.2305,-1.2305,-1.2305,-1.2305,-1.2305,-1.2305,-1.2305,-1.2305,-1.2305,-1.2305,-1.2305,-1.2305,-1.2305,-1.2305,-1.2305,-1.2305,-1.2268,-1.2261,-1.2077,-1.1892,-1.1706,-1.1521,-1.1298,-1.1111,-1.0925,-1.0738,-1.0481,-1.0143,-0.9733,-0.9397,-0.9099,-0.8718,-0.8331,-0.8063,-0.7872,-0.7714,-0.7561,-0.7753,-0.7944,-0.8102,-0.8522,-0.8908,-0.9213,-0.962,-1.0105,-1.0406,-1.085,-1.126,-1.1558,-1.1781,-1.1966,-1.215,-1.2268,-1.2305,-1.2305,-1.2305,-1.2305,-1.2305,-1.2305,-1.2305,-1.2305,-1.2305,-1.2224,-1.2114,-1.1929,-1.1744,-1.144,-1.1143,-1.0775,-1.055,-1.0143,-0.9582,-0.9094,-0.8708,-0.8322,-0.7957,-0.7517,-0.7023,-0.6633,-0.6139,-0.5569,-0.544,-0.5457,-0.5487,-0.543,-0.5381,-0.5335,-0.5222,-0.5101,-0.5075,-0.5075,-0.4966,-0.4794,-0.4572,-0.4501,-0.4307,-0.3724,-0.3061,-0.2747,-0.2395,-0.2044,-1.3266,-1.2936,-1.2709,-1.2489,-1.2305,-1.2305,-1.2305,-1.2305,-1.2305,-1.2305,-1.2305,-1.2305,-1.2305,-1.2305,-1.2305,-1.2305,-1.2305,-1.2305,-1.2305,-1.2305,-1.2305,-1.2305,-1.2305,-1.2305,-1.2305,-1.2305,-1.2305,-1.2305,-1.2305,-1.2305,-1.2305,-1.2268,-1.2114,-1.1929,-1.1706,-1.1521,-1.1335,-1.1186,-1.1074,-1.0925,-1.0663,-1.0293,-0.9846,-0.9511,-0.9284,-0.8865,-0.8479,-0.8217,-0.7987,-0.7757,-0.7599,-0.7757,-0.7949,-0.814,-0.8522,-0.9018,-0.9289,-0.9733,-1.0143,-1.0406,-1.085,-1.1372,-1.1632,-1.1811,-1.2003,-1.2187,-1.2268,-1.2305,-1.2305,-1.2305,-1.2305,-1.2305,-1.2305,-1.2305,-1.2305,-1.2305,-1.2268,-1.2187,-1.204,-1.1848,-1.1589,-1.1143,-1.0625,-1.0363,-1.0143,-0.962,-0.916,-0.8742,-0.8255,-0.7914,-0.758,-0.7088,-0.6641,-0.618,-0.571,-0.5504,-0.5494,-0.5535,-0.5579,-0.5575,-0.5542,-0.5414,-0.5347,-0.5304,-0.5115,-0.4957,-0.4776,-0.4582,-0.427,-0.4034,-0.3528,-0.3022,-0.2669,-0.2316,-0.1965]}]]